[[{"header":{"parameterUnit":"m.s-1","parameterCategory":1,"la1":31.0,"la2":29.5877,"lo1":-88.7671,"lo2":-86.6584,"dy":0.0162,"dx":0.0185,"nx":115,"ny":88,"refTime":"2024-09-15T06:00:00:Z","depth":0,"parameterNumber":2,"parameterNumberName":"U-component_of_WINDS"},"data":[0.0,0.0,0.0,0.0,0.0,0.0,0.0,0.0,0.0,0.0,0.0,0.0,0.0,0.0,0.0,0.0,0.0,0.0,0.0,0.0,0.0,0.0,0.0,0.0,0.0,0.0,0.0,0.0,0.0,0.0,0.0,0.0,0.0,0.0,0.0,0.0,0.0,0.0,0.0,0.0,0.0,0.0,0.0,0.0,0.0,0.0,0.0,0.0,0.0,0.0,0.0,0.0,0.0,0.0,0.0,0.0,0.0,0.0,0.0,0.0,0.0,0.0,0.0,0.0,0.0,0.0,0.0,0.0,0.0,0.0,0.0,0.0,0.0,0.0,0.0,0.0,0.0,0.0,0.0,0.0,0.0,0.0,0.0,0.0,0.0,0.0,0.0,0.0,0.0,0.0,0.0,0.0,0.0,0.0,0.0,0.0,0.0,0.0,0.0,0.0,0.0,0.0,0.0,0.0,0.0,0.0,0.0,0.0,0.0,0.0,0.0,0.0,0.0,0.0,0.0,0.0,0.0,0.0,0.0,0.0,0.0,0.0,0.0,0.0,0.0,0.0,0.0,0.0,0.0,0.0,0.0,0.0,0.0,0.0,0.0,0.0,0.0,0.0,0.0,0.0,0.0,0.0,0.0,0.0,0.0,0.0,0.0,0.0,0.0,0.0,0.0,0.0,0.0,0.0,0.0,0.0,0.0,0.0,0.0,0.0,0.0,0.0,0.0,0.0,0.0,0.0,0.0,0.0,0.0,0.0,0.0,0.0,0.0,0.0,0.0,0.0,0.0,0.0,0.0,0.0,0.0,0.0,0.0,0.0,0.0,0.0,0.0,0.0,0.0,0.0,0.0,0.0,0.0,0.0,0.0,0.0,0.0,0.0,0.0,0.0,0.0,0.0,0.0,0.0,0.0,0.0,0.0,0.0,0.0,0.0,0.0,0.0,0.0,0.0,0.0,0.0,0.0,0.0,0.0,0.0,0.0,0.0,0.0,0.0,0.0,0.0,0.0,0.0,0.0,0.0,0.0,0.0,0.0,0.0,0.0,0.0,0.0,0.0,0.0,0.0,0.0,0.0,0.0,0.0,0.0,0.0,0.0,0.0,0.0,0.0,0.0,0.0,0.0,0.0,0.0,0.0,0.0,0.0,0.0,0.0,0.0,0.0,0.0,0.0,0.0,0.0,0.0,0.0,0.0,0.0,0.0,0.0,0.0,0.0,0.0,0.0,0.0,0.0,0.0,0.0,0.0,0.0,0.0,0.0,0.0,0.0,0.0,0.0,0.0,0.0,0.0,0.0,0.0,0.0,0.0,0.0,0.0,0.0,0.0,0.0,0.0,0.0,0.0,0.0,0.0,0.0,0.0,0.0,0.0,0.0,0.0,0.0,0.0,0.0,0.0,0.0,0.0,0.0,0.0,0.0,0.0,0.0,0.0,0.0,0.0,0.0,0.0,0.0,0.0,0.0,0.0,0.0,0.0,0.0,0.0,0.0,0.0,0.0,0.0,0.0,0.0,0.0,0.0,0.0,0.0,0.0,0.0,0.0,0.0,0.0,0.0,0.0,0.0,0.0,0.0,0.0,0.0,0.0,0.0,0.0,0.0,0.0,0.0,0.0,0.0,0.0,0.0,0.0,0.0,0.0,0.0,0.0,0.0,0.0,0.0,0.0,0.0,0.0,0.0,0.0,0.0,0.0,0.0,0.0,0.0,0.0,0.0,0.0,0.0,0.0,0.0,0.0,0.0,0.0,0.0,0.0,0.0,0.0,0.0,0.0,0.0,0.0,0.0,0.0,0.0,0.0,0.0,0.0,0.0,0.0,0.0,0.0,0.0,0.0,0.0,0.0,0.0,0.0,0.0,0.0,0.0,0.0,0.0,0.0,0.0,0.0,0.0,0.0,0.0,0.0,0.0,0.0,0.0,0.0,0.0,0.0,0.0,0.0,0.0,0.0,0.0,0.0,0.0,0.0,0.0,0.0,0.0,0.0,0.0,0.0,0.0,0.0,0.0,0.0,0.0,0.0,0.0,0.0,0.0,0.0,0.0,0.0,0.0,0.0,0.0,0.0,0.0,0.0,0.0,0.0,0.0,0.0,0.0,0.0,0.0,0.0,0.0,0.0,0.0,0.0,0.0,0.0,0.0,0.0,0.0,0.0,0.0,0.0,0.0,0.0,0.0,0.0,0.0,0.0,0.0,0.0,0.0,0.0,0.0,0.0,0.0,0.0,0.0,0.0,0.0,0.0,0.0,0.0,0.0,0.0,0.0,0.0,0.0,0.0,0.0,0.0,0.0,0.0,0.0,0.0,0.0,0.0,0.0,0.0,0.0,0.0,0.0,0.0,0.0,0.0,0.0,0.0,0.0,0.0,0.0,0.0,0.0,0.0,0.0,0.0,0.0,0.0,0.0,0.0,0.0,0.0,0.0,0.0,0.0,0.0,0.0,0.0,0.0,0.0,0.0,0.0,0.0,0.0,0.0,0.0,0.0,0.0,0.0,0.0,0.0,0.0,0.0,0.0,0.0,0.0,0.0,0.0,0.0,0.0,0.0,0.0,0.0,0.0,0.0,0.0,0.0,0.0,0.0,0.0,0.0,0.0,0.0,0.0,0.0,0.0,0.0,0.0,0.0,0.0,0.0,0.0,0.0,0.0,0.0,0.0,0.0,0.0,0.0,0.0,0.0,0.0,0.0,0.0,0.0,0.0,0.0,0.0,0.0,0.0,0.0,0.0,0.0,0.0,0.0,0.0,0.0,0.0,0.0,0.0,0.0,0.0,0.0,0.0,0.0,0.0,0.0,0.0,0.0,0.0,0.0,0.0,0.0,0.0,0.0,0.0,0.0,0.0,0.0,0.0,0.0,0.0,0.0,0.0,0.0,0.0,0.0,0.0,0.0,0.0,0.0,0.0,0.0,0.0,0.0,0.0,0.0,0.0,0.0,0.0,0.0,0.0,0.0,0.0,0.0,0.0,0.0,0.0,0.0,0.0,0.0,0.0,0.0,0.0,0.0,0.0,0.0,0.0,0.0,0.0,0.0,0.0,0.0,0.0,0.0,0.0,0.0,0.0,0.0,0.0,0.0,0.0,0.0,0.0,0.0,0.0,0.0,0.0,0.0,0.0,0.0,0.0,0.0,0.0,0.0,0.0,0.0,0.0,0.0,0.0,0.0,0.0,0.0,0.0,0.0,0.0,0.0,0.0,0.0,0.0,0.0,0.0,0.0,0.0,0.0,0.0,0.0,0.0,0.0,0.0,0.0,0.0,0.0,0.0,0.0,0.0,0.0,0.0,0.0,0.0,0.0,0.0,0.0,0.0,0.0,0.0,0.0,0.0,0.0,0.0,0.0,0.0,0.0,0.0,0.0,0.0,0.0,0.0,0.0,0.0,0.0,0.0,0.0,0.0,0.0,0.0,0.0,0.0,0.0,0.0,0.0,0.0,0.0,0.0,0.0,0.0,0.0,0.0,0.0,0.0,0.0,0.0,0.0,0.0,0.0,0.0,0.0,0.0,0.0,0.0,0.0,0.0,0.0,0.0,0.0,0.0,0.0,0.0,0.0,0.0,0.0,0.0,0.0,0.0,0.0,0.0,0.0,0.0,0.0,0.0,0.0,0.0,0.0,0.0,0.0,0.0,0.0,0.0,0.0,0.0,0.0,0.0,0.0,0.0,0.0,0.0,0.0,0.0,0.0,0.0,0.0,0.0,0.0,0.0,0.0,0.0,0.0,0.0,0.0,0.0,0.0,0.0,0.0,0.0,0.0,0.0,0.0,0.0,0.0,0.0,0.0,0.0,0.0,0.0,0.0,0.0,0.0,0.0,0.0,0.0,0.0,0.0,0.0,0.0,0.0,0.0,0.0,0.0,0.0,0.0,0.0,0.0,0.0,0.0,0.0,0.0,0.0,0.0,0.0,0.0,0.0,0.0,0.0,0.0,0.0,0.0,0.0,0.0,0.0,0.0,0.0,0.0,0.0,0.0,0.0,0.0,0.0,0.0,0.0,0.0,0.0,0.0,0.0,0.0,0.0,0.0,0.0,0.0,0.0,0.0,0.0,0.0,0.0,0.0,0.0,0.0,0.0,0.0,0.0,0.0,0.0,0.0,0.0,0.0,0.0,0.0,0.0,0.0,0.0,0.0,0.0,0.0,0.0,0.0,0.0,0.0,0.0,0.0,0.0,0.0,0.0,0.0,0.0,0.0,0.0,0.0,0.0,0.0,0.0,0.0,0.0,0.0,0.0,0.0,0.0,0.0,0.0,0.0,0.0,0.0,0.0,0.0,-0.6606,0.0,0.0,0.0,0.0,0.0,0.0,0.0,0.0,0.0,0.0,0.0,0.0,0.0,0.0,0.0,0.0,0.0,0.0,0.0,0.0,0.0,0.0,0.0,0.0,0.0,0.0,0.0,0.0,0.0,0.0,0.0,0.0,0.0,0.0,0.0,0.0,0.0,0.0,0.0,0.0,0.0,0.0,0.0,0.0,0.0,0.0,0.0,0.0,0.0,0.0,0.0,0.0,0.0,0.0,0.0,0.0,0.0,0.0,0.0,0.0,0.0,0.0,0.0,0.0,0.0,0.0,0.0,0.0,0.0,0.0,0.0,0.0,0.0,0.0,0.0,0.0,0.0,0.0,0.0,0.0,0.0,0.0,0.0,0.0,0.0,0.0,0.0,0.0,0.0,0.0,0.0,0.0,0.0,0.0,0.0,0.0,0.0,0.0,0.0,0.0,0.0,0.0,0.0,0.0,0.0,0.0,0.0,0.0,0.0,0.0,-0.5969,-0.6369,-0.6611,-0.6855,-0.7045,0.0,0.0,0.0,0.0,0.0,0.0,0.0,0.0,0.0,0.0,0.0,0.0,0.0,0.0,0.0,0.0,0.0,0.0,0.0,0.0,0.0,0.0,0.0,0.0,0.0,0.0,0.0,0.0,0.0,0.0,0.0,0.0,0.0,0.0,0.0,0.0,0.0,0.0,0.0,0.0,0.0,0.0,0.0,0.0,0.0,0.0,0.0,0.0,0.0,0.0,0.0,0.0,0.0,0.0,0.0,0.0,0.0,0.0,0.0,0.0,0.0,0.0,0.0,0.0,0.0,0.0,0.0,0.0,0.0,0.0,0.0,0.0,0.0,0.0,0.0,0.0,0.0,0.0,0.0,0.0,0.0,0.0,0.0,0.0,0.0,0.0,0.0,0.0,0.0,0.0,0.0,0.0,0.0,0.0,0.0,0.0,0.0,0.0,0.0,0.0,0.0,0.0,0.0,0.0,0.0,0.0,0.0,0.0,0.0,0.0,0.0,0.0,-0.7072,-0.7303,-0.758,0.0,0.0,0.0,0.0,0.0,0.0,0.0,0.0,0.0,0.0,0.0,0.0,0.0,0.0,0.0,0.0,0.0,0.0,0.0,0.0,0.0,0.0,0.0,0.0,0.0,0.0,0.0,0.0,0.0,0.0,0.0,0.0,0.0,0.0,0.0,0.0,0.0,0.0,0.0,0.0,0.0,0.0,0.0,0.0,0.0,0.0,0.0,0.0,0.0,0.0,0.0,0.0,0.0,0.0,0.0,0.0,0.0,0.0,0.0,0.0,0.0,0.0,0.0,0.0,0.0,0.0,0.0,0.0,0.0,0.0,0.0,0.0,0.0,0.0,0.0,0.0,0.0,0.0,0.0,0.0,0.0,0.0,0.0,0.0,0.0,0.0,0.0,0.0,0.0,0.0,0.0,0.0,0.0,0.0,0.0,0.0,0.0,0.0,0.0,0.0,0.0,0.0,0.0,0.0,0.0,0.0,0.0,0.0,0.0,0.0,-0.6953,-0.7843,-0.7888,0.0,-0.8219,0.0,0.0,0.0,0.0,0.0,0.0,0.0,0.0,0.0,0.0,0.0,0.0,0.0,0.0,0.0,0.0,0.0,0.0,0.0,0.0,0.0,0.0,0.0,0.0,0.0,0.0,0.0,0.0,0.0,0.0,0.0,0.0,0.0,0.0,0.0,0.0,0.0,0.0,0.0,0.0,0.0,0.0,0.0,0.0,0.0,0.0,0.0,0.0,0.0,0.0,0.0,0.0,0.0,0.0,0.0,0.0,0.0,0.0,0.0,0.0,0.0,0.0,0.0,0.0,0.0,0.0,0.0,0.0,0.0,0.0,0.0,0.0,0.0,0.0,0.0,0.0,0.0,0.0,0.0,0.0,0.0,0.0,0.0,0.0,0.0,0.0,0.0,0.0,0.0,0.0,0.0,0.0,0.0,0.0,0.0,0.0,0.0,0.0,0.0,0.0,0.0,0.0,0.0,0.0,0.0,0.0,0.0,0.0,0.0,0.0,-0.7452,-0.7987,-0.8184,-0.8349,0.0,0.0,0.0,0.0,0.0,0.0,0.0,0.0,0.0,0.0,0.0,0.0,0.0,0.0,0.0,0.0,0.0,0.0,0.0,0.0,0.0,0.0,0.0,0.0,0.0,0.0,0.0,0.0,0.0,0.0,0.0,0.0,0.0,0.0,0.0,0.0,0.0,0.0,0.0,0.0,0.0,0.0,0.0,0.0,0.0,0.0,0.0,0.0,0.0,0.0,0.0,0.0,0.0,0.0,0.0,0.0,0.0,0.0,0.0,0.0,0.0,0.0,0.0,0.0,0.0,0.0,0.0,0.0,0.0,0.0,0.0,0.0,0.0,0.0,0.0,0.0,0.0,0.0,0.0,0.0,0.0,0.0,0.0,0.0,0.0,0.0,0.0,0.0,0.0,0.0,0.0,0.0,0.0,0.0,0.0,0.0,0.0,0.0,0.0,0.0,0.0,0.0,0.0,0.0,0.0,0.0,0.0,0.0,0.0,0.0,-0.7326,-0.7821,-0.8237,-0.8599,-0.8673,-0.8459,0.0,0.0,0.0,0.0,0.0,0.0,0.0,0.0,0.0,0.0,0.0,0.0,0.0,0.0,0.0,0.0,0.0,0.0,0.0,0.0,0.0,0.0,0.0,0.0,0.0,0.0,0.0,0.0,0.0,0.0,0.0,0.0,0.0,0.0,0.0,0.0,0.0,0.0,0.0,0.0,0.0,0.0,0.0,0.0,0.0,0.0,0.0,0.0,0.0,0.0,0.0,0.0,0.0,0.0,0.0,0.0,0.0,0.0,0.0,0.0,0.0,0.0,0.0,0.0,0.0,0.0,0.0,0.0,0.0,0.0,0.0,0.0,0.0,0.0,0.0,0.0,0.0,0.0,0.0,0.0,0.0,0.0,0.0,0.0,0.0,0.0,0.0,0.0,0.0,0.0,0.0,0.0,0.0,0.0,0.0,0.0,0.0,0.0,0.0,0.0,0.0,0.0,0.0,0.0,0.0,0.0,0.0,0.0,0.0,-0.7771,-0.8069,-0.884,-0.9248,-0.9103,0.0,0.0,0.0,0.0,0.0,0.0,0.0,0.0,0.0,0.0,0.0,0.0,0.0,0.0,0.0,0.0,0.0,0.0,0.0,0.0,0.0,0.0,0.0,0.0,0.0,0.0,0.0,0.0,0.0,0.0,0.0,0.0,0.0,0.0,0.0,0.0,0.0,0.0,0.0,0.0,0.0,0.0,0.0,0.0,0.0,0.0,0.0,0.0,0.0,0.0,0.0,0.0,0.0,0.0,0.0,0.0,0.0,0.0,0.0,0.0,0.0,0.0,0.0,0.0,0.0,0.0,0.0,0.0,0.0,0.0,0.0,0.0,0.0,0.0,0.0,0.0,0.0,0.0,0.0,0.0,0.0,0.0,0.0,0.0,0.0,0.0,0.0,0.0,0.0,0.0,0.0,0.0,0.0,0.0,0.0,0.0,0.0,0.0,0.0,0.0,0.0,0.0,0.0,0.0,0.0,0.0,0.0,0.0,0.0,-0.6904,-0.7539,-0.8396,-0.9402,-0.9067,-0.887,0.0,0.0,0.0,0.0,0.0,0.0,0.0,0.0,0.0,0.0,0.0,0.0,0.0,0.0,0.0,0.0,0.0,0.0,0.0,0.0,0.0,0.0,0.0,0.0,0.0,0.0,0.0,0.0,0.0,0.0,0.0,0.0,0.0,0.0,0.0,0.0,0.0,0.0,0.0,0.0,0.0,0.0,0.0,0.0,0.0,0.0,0.0,0.0,0.0,0.0,0.0,0.0,0.0,0.0,0.0,0.0,0.0,0.0,0.0,0.0,0.0,0.0,0.0,0.0,0.0,0.0,0.0,0.0,0.0,0.0,0.0,0.0,0.0,0.0,0.0,0.0,0.0,0.0,0.0,0.0,0.0,0.0,0.0,0.0,0.0,0.0,0.0,0.0,0.0,0.0,0.0,0.0,0.0,0.0,0.0,0.0,0.0,0.0,0.0,0.0,0.0,0.0,0.0,0.0,0.0,0.0,0.0,0.0,0.0,-0.7044,0.0,-0.8853,0.0,-0.9067,-0.8788,0.0,0.0,0.0,0.0,0.0,0.0,0.0,0.0,0.0,0.0,0.0,0.0,0.0,0.0,0.0,0.0,0.0,0.0,0.0,0.0,0.0,0.0,0.0,0.0,0.0,0.0,0.0,0.0,0.0,0.0,0.0,0.0,0.0,0.0,0.0,0.0,0.0,0.0,0.0,0.0,0.0,0.0,0.0,0.0,0.0,0.0,0.0,0.0,0.0,0.0,0.0,0.0,0.0,0.0,0.0,0.0,0.0,0.0,0.0,0.0,0.0,0.0,0.0,0.0,0.0,0.0,0.0,0.0,0.0,0.0,0.0,0.0,0.0,0.0,0.0,0.0,0.0,0.0,0.0,0.0,0.0,0.0,0.0,0.0,0.0,0.0,0.0,0.0,0.0,0.0,0.0,0.0,0.0,0.0,0.0,0.0,0.0,0.0,0.0,0.0,0.0,0.0,0.0,0.0,0.0,0.0,0.0,0.0,-0.7255,-0.8512,-0.9247,-0.9418,-0.8961,-0.9271,-0.8927,0.0,0.0,0.0,0.0,0.0,0.0,0.0,0.0,0.0,0.0,0.0,0.0,0.0,0.0,0.0,0.0,0.0,0.0,0.0,0.0,0.0,0.0,0.0,0.0,0.0,0.0,0.0,0.0,0.0,0.0,0.0,0.0,0.0,0.0,0.0,0.0,0.0,0.0,0.0,0.0,0.0,0.0,0.0,0.0,0.0,0.0,0.0,0.0,0.0,0.0,0.0,0.0,0.0,0.0,0.0,0.0,0.0,0.0,0.0,0.0,0.0,0.0,0.0,0.0,0.0,0.0,0.0,0.0,0.0,0.0,0.0,0.0,0.0,0.0,0.0,0.0,0.0,0.0,0.0,0.0,0.0,0.0,0.0,0.0,0.0,0.0,0.0,0.0,0.0,0.0,0.0,0.0,0.0,0.0,0.0,0.0,0.0,0.0,0.0,0.0,0.0,0.0,0.0,0.0,0.0,0.0,0.0,0.0,0.0,-0.7992,-0.8745,-0.9388,-0.9817,-0.9048,-0.8735,0.0,0.0,0.0,0.0,0.0,0.0,0.0,0.0,0.0,0.0,0.0,0.0,0.0,0.0,0.0,0.0,0.0,0.0,0.0,0.0,0.0,0.0,0.0,0.0,0.0,0.0,0.0,0.0,0.0,0.0,0.0,0.0,0.0,0.0,0.0,0.0,0.0,0.0,0.0,0.0,0.0,0.0,0.0,0.0,0.0,0.0,0.0,0.0,0.0,0.0,0.0,0.0,0.0,0.0,0.0,0.0,0.0,0.0,0.0,0.0,0.0,0.0,0.0,0.0,0.0,0.0,0.0,0.0,0.0,0.0,0.0,0.0,0.0,0.0,0.0,0.0,0.0,0.0,0.0,0.0,0.0,0.0,0.0,0.0,0.0,0.0,0.0,0.0,0.0,0.0,0.0,0.0,0.0,0.0,0.0,0.0,0.0,0.0,0.0,0.0,0.0,0.0,0.0,0.0,0.0,0.0,0.0,0.0,0.0,-0.8709,-0.9378,-0.9933,-1.0268,-0.9289,-0.8878,-0.9145,0.0,0.0,0.0,0.0,0.0,0.0,0.0,0.0,0.0,0.0,0.0,0.0,0.0,0.0,0.0,0.0,0.0,0.0,0.0,0.0,0.0,0.0,0.0,0.0,0.0,0.0,0.0,0.0,0.0,0.0,0.0,0.0,0.0,0.0,0.0,0.0,0.0,0.0,0.0,0.0,0.0,0.0,0.0,0.0,0.0,0.0,0.0,0.0,0.0,0.0,0.0,0.0,0.0,0.0,0.0,0.0,0.0,0.0,0.0,0.0,0.0,0.0,0.0,0.0,0.0,0.0,0.0,0.0,0.0,0.0,0.0,0.0,0.0,0.0,0.0,0.0,0.0,0.0,0.0,0.0,0.0,0.0,0.0,0.0,0.0,0.0,0.0,0.0,0.0,0.0,0.0,0.0,0.0,0.0,0.0,0.0,0.0,0.0,0.0,0.0,0.0,0.0,0.0,0.0,0.0,0.0,0.0,0.0,-1.0345,-1.0965,-1.1024,-1.0423,-0.9913,-0.9294,0.0,0.0,0.0,0.0,0.0,0.0,0.0,0.0,0.0,0.0,0.0,0.0,0.0,0.0,0.0,0.0,0.0,0.0,0.0,0.0,0.0,0.0,0.0,0.0,0.0,0.0,0.0,0.0,0.0,0.0,0.0,0.0,0.0,0.0,0.0,0.0,0.0,0.0,0.0,0.0,0.0,0.0,0.0,0.0,0.0,0.0,0.0,0.0,0.0,0.0,0.0,0.0,0.0,0.0,0.0,0.0,0.0,0.0,0.0,0.0,0.0,0.0,0.0,0.0,0.0,0.0,0.0,0.0,0.0,0.0,0.0,0.0,0.0,0.0,0.0,0.0,0.0,0.0,0.0,0.0,0.0,0.0,0.0,0.0,0.0,0.0,0.0,0.0,0.0,0.0,0.0,0.0,0.0,0.0,0.0,0.0,0.0,0.0,0.0,0.0,0.0,0.0,0.0,0.0,0.0,0.0,0.0,0.0,0.0,-1.0939,-1.1954,-1.2174,-1.1558,-1.0238,-0.9504,0.0,0.0,0.0,0.0,0.0,0.0,0.0,0.0,0.0,0.0,0.0,0.0,0.0,0.0,0.0,0.0,0.0,0.0,0.0,0.0,0.0,0.0,0.0,0.0,0.0,0.0,0.0,0.0,0.0,0.0,0.0,0.0,0.0,0.0,0.0,0.0,0.0,0.0,0.0,0.0,0.0,0.0,0.0,0.0,0.0,0.0,0.0,0.0,0.0,0.0,0.0,0.0,0.0,0.0,0.0,0.0,0.0,0.0,0.0,0.0,0.0,0.0,0.0,0.0,0.0,0.0,0.0,0.0,0.0,0.0,0.0,0.0,0.0,0.0,0.0,0.0,0.0,0.0,0.0,0.0,0.0,0.0,0.0,0.0,0.0,0.0,0.0,0.0,0.0,0.0,0.0,0.0,0.0,0.0,0.0,0.0,0.0,0.0,0.0,0.0,0.0,0.0,0.0,0.0,0.0,0.0,0.0,0.0,-1.09,-1.2282,-1.2919,-1.3115,-1.2775,-1.1331,-1.0305,0.0,0.0,0.0,0.0,0.0,0.0,0.0,0.0,0.0,0.0,0.0,0.0,0.0,0.0,0.0,0.0,0.0,0.0,0.0,0.0,0.0,0.0,0.0,0.0,0.0,0.0,0.0,0.0,0.0,0.0,0.0,0.0,0.0,0.0,0.0,0.0,0.0,0.0,0.0,0.0,0.0,0.0,0.0,0.0,0.0,0.0,0.0,0.0,0.0,0.0,0.0,0.0,0.0,0.0,0.0,0.0,0.0,0.0,0.0,0.0,0.0,0.0,0.0,0.0,0.0,0.0,0.0,0.0,0.0,0.0,0.0,0.0,0.0,0.0,0.0,0.0,0.0,0.0,0.0,0.0,0.0,0.0,0.0,0.0,0.0,0.0,0.0,0.0,0.0,0.0,0.0,0.0,0.0,0.0,0.0,0.0,0.0,0.0,0.0,0.0,0.0,0.0,0.0,0.0,0.0,0.0,0.0,0.0,-1.1994,-1.3566,-1.3788,-1.3867,-1.3788,-1.2592,-1.1242,0.0,0.0,0.0,0.0,0.0,0.0,0.0,0.0,0.0,0.0,0.0,0.0,0.0,0.0,0.0,0.0,0.0,0.0,0.0,0.0,0.0,0.0,0.0,0.0,0.0,0.0,0.0,0.0,0.0,0.0,0.0,0.0,0.0,0.0,0.0,0.0,0.0,0.0,0.0,0.0,0.0,0.0,0.0,0.0,0.0,0.0,0.0,0.0,0.0,0.0,0.0,0.0,0.0,0.0,0.0,0.0,0.0,0.0,0.0,0.0,0.0,0.0,0.0,0.0,0.0,0.0,0.0,0.0,0.0,0.0,0.0,0.0,0.0,0.0,0.0,0.0,0.0,0.0,0.0,0.0,0.0,0.0,0.0,0.0,0.0,0.0,0.0,0.0,0.0,0.0,0.0,0.0,0.0,0.0,0.0,0.0,0.0,0.0,0.0,0.0,0.0,0.0,0.0,0.0,0.0,0.0,0.0,0.0,-1.1805,-1.2392,-1.3722,-1.4247,-1.3888,-1.2242,-1.0866,0.0,0.0,0.0,0.0,0.0,0.0,0.0,0.0,0.0,0.0,0.0,0.0,0.0,0.0,0.0,0.0,0.0,0.0,0.0,0.0,0.0,0.0,0.0,0.0,0.0,0.0,0.0,0.0,0.0,0.0,0.0,0.0,0.0,0.0,0.0,0.0,0.0,0.0,0.0,0.0,0.0,0.0,0.0,0.0,0.0,0.0,0.0,0.0,-0.7697,0.0,0.0,0.0,0.0,0.0,0.0,0.0,0.0,0.0,0.0,0.0,0.0,0.0,0.0,0.0,0.0,0.0,0.0,0.0,0.0,0.0,0.0,0.0,0.0,0.0,0.0,0.0,0.0,0.0,0.0,0.0,0.0,0.0,0.0,0.0,0.0,0.0,0.0,0.0,0.0,0.0,0.0,0.0,0.0,0.0,0.0,0.0,0.0,0.0,0.0,0.0,0.0,0.0,0.0,0.0,0.0,0.0,0.0,0.0,-1.2258,-1.3194,-1.39,-1.4275,-1.4264,-1.2909,-1.1488,0.0,0.0,0.0,0.0,0.0,0.0,0.0,0.0,0.0,0.0,0.0,0.0,0.0,0.0,0.0,0.0,0.0,0.0,0.0,0.0,0.0,0.0,0.0,0.0,0.0,0.0,0.0,0.0,0.0,0.0,0.0,0.0,0.0,0.0,0.0,0.0,0.0,0.0,0.0,0.0,0.0,0.0,0.0,0.0,0.0,0.0,0.0,0.0,0.0,0.0,0.0,0.0,0.0,0.0,0.0,0.0,0.0,0.0,0.0,0.0,0.0,0.0,0.0,0.0,0.0,0.0,0.0,0.0,0.0,0.0,0.0,0.0,0.0,0.0,0.0,0.0,0.0,0.0,0.0,0.0,0.0,0.0,0.0,0.0,0.0,0.0,0.0,0.0,0.0,0.0,0.0,0.0,0.0,0.0,0.0,0.0,0.0,0.0,0.0,0.0,0.0,0.0,0.0,0.0,0.0,0.0,0.0,-1.1417,-1.2758,-1.4376,-1.4163,-1.4238,-1.4642,-1.3733,-1.237,-1.0628,0.0,0.0,0.0,0.0,0.0,0.0,0.0,0.0,0.0,0.0,0.0,0.0,0.0,0.0,0.0,0.0,0.0,0.0,0.0,0.0,0.0,0.0,0.0,0.0,0.0,0.0,0.0,0.0,0.0,0.0,0.0,0.0,0.0,0.0,0.0,0.0,0.0,0.0,-0.6057,-0.6657,0.0,0.0,0.0,0.0,0.0,0.0,0.0,0.0,-0.8504,0.0,0.0,0.0,0.0,0.0,0.0,0.0,0.0,0.0,0.0,0.0,0.0,0.0,0.0,0.0,0.0,0.0,0.0,0.0,0.0,0.0,0.0,0.0,0.0,0.0,0.0,0.0,0.0,0.0,0.0,0.0,0.0,0.0,0.0,0.0,0.0,0.0,0.0,0.0,0.0,0.0,0.0,0.0,0.0,0.0,0.0,0.0,0.0,0.0,0.0,0.0,0.0,0.0,0.0,0.0,0.0,-1.0685,-1.1346,-1.2384,-1.3886,-1.4408,-1.4476,-1.4153,-1.3576,-1.2463,-1.078,0.0,0.0,0.0,0.0,0.0,0.0,0.0,0.0,0.0,0.0,0.0,0.0,0.0,0.0,0.0,0.0,0.0,0.0,0.0,0.0,0.0,0.0,0.0,0.0,0.0,0.0,0.0,0.0,0.0,0.0,0.0,0.0,0.0,0.0,0.0,0.0,0.0,0.0,0.0,-0.6999,-0.7292,0.0,0.0,0.0,0.0,0.0,0.0,0.0,0.0,-0.9063,0.0,0.0,0.0,0.0,0.0,0.0,0.0,0.0,0.0,0.0,0.0,0.0,0.0,0.0,0.0,0.0,0.0,0.0,0.0,0.0,0.0,0.0,0.0,0.0,0.0,0.0,0.0,0.0,0.0,0.0,0.0,0.0,0.0,0.0,0.0,0.0,0.0,0.0,0.0,0.0,0.0,0.0,0.0,0.0,0.0,0.0,0.0,0.0,0.0,0.0,0.0,0.0,0.0,0.0,0.0,-1.0078,-1.1086,-1.2192,-1.3355,-1.4026,-1.4259,-1.4078,-1.3297,-1.2154,0.0,0.0,0.0,0.0,0.0,0.0,0.0,0.0,0.0,0.0,0.0,0.0,0.0,0.0,0.0,0.0,0.0,0.0,0.0,0.0,0.0,0.0,0.0,0.0,0.0,0.0,0.0,0.0,0.0,0.0,0.0,0.0,0.0,0.0,0.0,0.0,0.0,0.0,0.0,0.0,-0.7346,-0.7686,-0.7594,0.0,0.0,0.0,0.0,0.0,0.0,-0.9723,-0.9708,0.0,0.0,0.0,0.0,0.0,0.0,0.0,0.0,0.0,0.0,0.0,0.0,0.0,0.0,0.0,0.0,0.0,0.0,0.0,0.0,0.0,0.0,0.0,0.0,0.0,0.0,0.0,0.0,0.0,0.0,0.0,0.0,0.0,0.0,0.0,0.0,0.0,0.0,0.0,0.0,0.0,0.0,0.0,0.0,0.0,0.0,0.0,0.0,0.0,0.0,0.0,0.0,0.0,0.0,0.0,-0.9442,-1.0706,-1.1828,-1.2751,-1.3282,-1.3655,-1.3794,-1.2786,-1.1636,0.0,0.0,0.0,0.0,0.0,0.0,0.0,0.0,0.0,0.0,0.0,0.0,0.0,0.0,0.0,0.0,0.0,0.0,0.0,0.0,0.0,0.0,0.0,0.0,0.0,0.0,0.0,0.0,0.0,0.0,0.0,0.0,0.0,0.0,0.0,0.0,0.0,0.0,0.0,0.0,0.0,-0.8404,-0.8167,-0.8639,0.0,0.0,0.0,0.0,-1.0353,-1.0611,0.0,0.0,0.0,0.0,0.0,0.0,0.0,0.0,0.0,0.0,0.0,0.0,0.0,0.0,0.0,0.0,0.0,0.0,0.0,0.0,0.0,0.0,0.0,0.0,0.0,0.0,0.0,0.0,0.0,0.0,0.0,0.0,0.0,0.0,0.0,0.0,0.0,0.0,0.0,0.0,0.0,0.0,0.0,0.0,0.0,0.0,0.0,0.0,0.0,0.0,0.0,0.0,0.0,0.0,0.0,0.0,-0.9294,-1.0112,-1.1023,-1.1994,-1.2344,-1.2508,-1.253,-1.1925,-1.0994,0.0,0.0,0.0,0.0,0.0,0.0,0.0,0.0,0.0,0.0,0.0,0.0,0.0,0.0,0.0,0.0,0.0,0.0,0.0,0.0,0.0,0.0,0.0,0.0,0.0,0.0,0.0,0.0,0.0,0.0,0.0,0.0,0.0,0.0,0.0,0.0,0.0,0.0,0.0,0.0,0.0,-0.9893,-0.8398,-0.988,-1.0634,0.0,0.0,-1.1791,-1.1843,-1.2221,0.0,0.0,0.0,0.0,0.0,0.0,0.0,0.0,0.0,0.0,0.0,0.0,0.0,0.0,0.0,0.0,0.0,0.0,0.0,0.0,0.0,0.0,0.0,0.0,0.0,0.0,0.0,0.0,0.0,0.0,0.0,0.0,0.0,0.0,0.0,0.0,0.0,0.0,0.0,0.0,0.0,0.0,0.0,0.0,0.0,0.0,0.0,0.0,0.0,0.0,0.0,0.0,0.0,0.0,0.0,-0.8177,-0.8961,-1.0151,-1.1029,-1.1589,-1.1981,-1.2246,-1.236,-1.1082,-1.0194,0.0,0.0,0.0,0.0,0.0,0.0,0.0,0.0,0.0,0.0,0.0,0.0,0.0,0.0,0.0,0.0,0.0,0.0,0.0,0.0,0.0,0.0,0.0,0.0,0.0,0.0,0.0,0.0,0.0,0.0,0.0,0.0,0.0,0.0,0.0,0.0,0.0,0.0,0.0,0.0,0.0,0.0,-1.0111,-1.0946,0.0,0.0,0.0,-1.261,-1.2752,0.0,0.0,0.0,0.0,0.0,0.0,0.0,0.0,0.0,0.0,0.0,0.0,0.0,0.0,0.0,0.0,0.0,0.0,0.0,0.0,0.0,0.0,0.0,0.0,0.0,0.0,0.0,0.0,0.0,0.0,0.0,0.0,0.0,0.0,0.0,0.0,0.0,0.0,0.0,0.0,0.0,0.0,0.0,0.0,0.0,0.0,0.0,0.0,0.0,0.0,0.0,0.0,0.0,0.0,0.0,0.0,0.0,-0.8597,-1.0044,-1.0885,-1.113,-1.1493,-1.176,-1.1905,-1.041,0.0,0.0,0.0,0.0,0.0,0.0,0.0,0.0,0.0,0.0,0.0,0.0,0.0,0.0,0.0,0.0,0.0,0.0,0.0,0.0,0.0,0.0,0.0,0.0,0.0,0.0,0.0,-0.5798,0.0,0.0,0.0,0.0,0.0,0.0,0.0,0.0,0.0,0.0,0.0,0.0,0.0,0.0,-1.0853,-1.1403,-1.1937,-1.2142,0.0,0.0,-1.3349,-1.3225,-1.3249,-1.3028,0.0,0.0,0.0,0.0,0.0,0.0,0.0,0.0,0.0,0.0,0.0,0.0,0.0,0.0,0.0,0.0,0.0,0.0,0.0,0.0,0.0,0.0,0.0,0.0,0.0,0.0,0.0,0.0,0.0,0.0,0.0,0.0,0.0,0.0,0.0,0.0,0.0,0.0,0.0,0.0,0.0,0.0,0.0,0.0,0.0,0.0,0.0,0.0,0.0,0.0,0.0,0.0,0.0,0.0,0.0,-0.8283,-0.9561,-1.0302,-1.0365,-1.0466,-1.0536,-1.0605,-0.9957,-0.9331,0.0,0.0,0.0,0.0,0.0,0.0,0.0,0.0,0.0,0.0,0.0,0.0,0.0,0.0,0.0,0.0,0.0,0.0,0.0,0.0,0.0,0.0,0.0,0.0,0.0,0.0,0.0,0.0,0.0,0.0,0.0,0.0,0.0,0.0,0.0,0.0,0.0,0.0,0.0,0.0,0.0,-1.1921,-1.154,-1.291,-1.3466,0.0,0.0,-1.4152,-1.3149,-1.3893,-1.3946,-1.2052,0.0,0.0,0.0,0.0,0.0,0.0,0.0,0.0,0.0,0.0,0.0,0.0,0.0,0.0,0.0,0.0,0.0,0.0,0.0,0.0,0.0,0.0,0.0,0.0,0.0,0.0,0.0,0.0,0.0,0.0,0.0,0.0,0.0,0.0,0.0,0.0,0.0,0.0,0.0,0.0,0.0,0.0,0.0,0.0,0.0,0.0,0.0,0.0,0.0,0.0,0.0,0.0,0.0,-0.8543,-0.8584,-0.983,-1.0505,-1.0505,-1.0516,-1.0541,-1.0565,-0.9967,-0.9399,0.0,0.0,0.0,0.0,0.0,0.0,0.0,0.0,0.0,0.0,0.0,0.0,0.0,0.0,0.0,0.0,0.0,0.0,0.0,0.0,0.0,0.0,0.0,0.0,0.0,0.0,0.0,0.0,-0.5428,-0.5497,-0.601,0.0,0.0,0.0,0.0,0.0,0.0,0.0,0.0,0.0,0.0,-1.2041,-1.2757,-1.3608,0.0,0.0,-1.3881,-1.4098,-1.3619,-1.3558,-1.3127,-1.1958,-1.1367,0.0,0.0,0.0,0.0,0.0,0.0,0.0,0.0,0.0,0.0,0.0,0.0,0.0,0.0,0.0,0.0,0.0,0.0,0.0,0.0,0.0,0.0,0.0,0.0,0.0,0.0,0.0,0.0,0.0,0.0,0.0,0.0,0.0,0.0,0.0,0.0,0.0,0.0,0.0,0.0,0.0,0.0,0.0,0.0,0.0,0.0,0.0,0.0,0.0,0.0,0.0,0.0,-0.8663,-0.8989,-1.0034,-1.0677,-1.0845,-1.0684,-1.0572,-1.057,-1.0027,-0.953,0.0,0.0,0.0,0.0,0.0,0.0,0.0,0.0,0.0,0.0,0.0,0.0,0.0,0.0,0.0,0.0,0.0,0.0,0.0,0.0,0.0,0.0,0.0,0.0,0.0,0.0,0.0,0.0,-0.5607,-0.5736,-0.5804,0.0,0.0,0.0,0.0,0.0,0.0,0.0,0.0,0.0,0.0,-1.2418,-1.3712,-1.4094,-1.4194,-1.4215,-1.4198,-1.4087,-1.3749,-1.3373,-1.2835,-1.1824,0.0,0.0,0.0,0.0,0.0,0.0,0.0,0.0,0.0,0.0,0.0,0.0,0.0,0.0,0.0,0.0,0.0,0.0,0.0,0.0,0.0,0.0,0.0,0.0,0.0,0.0,0.0,-0.7299,0.0,0.0,-0.699,0.0,0.0,0.0,0.0,0.0,0.0,0.0,0.0,0.0,0.0,0.0,0.0,0.0,0.0,0.0,0.0,0.0,0.0,0.0,0.0,0.0,0.0,-0.8411,-0.9374,-1.0004,-1.0688,-1.1414,-1.0835,-1.0541,-1.0577,-1.0027,-0.974,-0.9774,0.0,0.0,0.0,0.0,0.0,0.0,0.0,0.0,0.0,0.0,0.0,0.0,0.0,0.0,0.0,0.0,0.0,0.0,0.0,0.0,0.0,0.0,0.0,0.0,0.0,0.0,-0.5492,-0.5913,-0.6063,0.0,0.0,0.0,0.0,0.0,0.0,0.0,0.0,0.0,0.0,-1.1998,-1.3253,-1.4215,-1.4253,-1.4195,-1.4217,-1.4468,-1.4311,-1.3376,-1.3613,-1.3392,0.0,0.0,0.0,0.0,0.0,0.0,0.0,0.0,0.0,0.0,0.0,0.0,0.0,0.0,0.0,0.0,0.0,0.0,0.0,0.0,0.0,0.0,0.0,0.0,0.0,0.0,0.0,-0.8118,-0.8011,0.0,0.0,0.0,0.0,0.0,0.0,0.0,0.0,0.0,0.0,0.0,-0.8709,-0.891,0.0,0.0,0.0,0.0,0.0,0.0,0.0,0.0,0.0,0.0,0.0,0.0,-0.853,-0.902,-1.004,-1.0715,-1.0947,-1.0764,-1.0632,-1.0656,-1.0474,-1.0184,-0.9814,0.0,0.0,0.0,0.0,0.0,0.0,0.0,0.0,0.0,0.0,0.0,0.0,0.0,0.0,0.0,0.0,0.0,0.0,0.0,0.0,0.0,0.0,0.0,0.0,0.0,-0.5335,0.0,0.0,0.0,0.0,0.0,0.0,0.0,0.0,0.0,0.0,0.0,-0.9727,-1.1501,-1.2389,-1.3281,-1.4242,-1.4378,-1.4326,0.0,0.0,0.0,0.0,0.0,0.0,0.0,0.0,0.0,0.0,0.0,0.0,0.0,0.0,-1.1867,-1.0035,-0.9356,-0.9129,-0.929,0.0,0.0,0.0,0.0,0.0,0.0,0.0,0.0,0.0,0.0,0.0,0.0,0.0,0.0,-0.8633,0.0,-0.822,0.0,0.0,0.0,0.0,0.0,0.0,0.0,0.0,-0.955,-0.9812,-0.9477,-0.9725,-0.953,0.0,-0.901,-0.8475,0.0,0.0,0.0,0.0,0.0,0.0,0.0,0.0,-0.874,-0.9455,-1.0271,-1.08,-1.099,-1.082,-1.0718,-1.0718,-1.0718,-1.041,-0.9828,-0.9435,-0.8907,0.0,0.0,0.0,0.0,0.0,0.0,0.0,0.0,0.0,0.0,0.0,0.0,0.0,0.0,0.0,0.0,0.0,0.0,0.0,0.0,0.0,0.0,0.0,-0.5363,0.0,0.0,0.0,0.0,0.0,0.0,0.0,0.0,0.0,-0.9117,-0.9803,-1.0832,-1.2276,-1.303,-1.3663,-1.4286,0.0,0.0,0.0,0.0,0.0,0.0,0.0,-1.2724,-1.2522,-1.2397,-1.2457,-1.2936,-1.3368,-1.3579,-1.3244,0.0,0.0,-1.1326,-1.0678,-1.0453,-1.0655,-1.0427,-1.0334,-1.0842,-1.1,-1.1066,0.0,0.0,0.0,0.0,0.0,0.0,0.0,0.0,-0.8842,-0.9024,0.0,-0.8531,0.0,0.0,0.0,0.0,0.0,-0.8678,0.0,0.0,-1.0379,-1.0672,-1.0708,-1.0565,-1.0271,-0.9895,-1.0345,-1.005,-0.9022,-0.8585,0.0,0.0,0.0,0.0,0.0,0.0,-0.9063,-1.0612,-1.0714,-1.103,-1.1539,-1.1012,-1.0766,-1.0793,-1.0745,-1.0437,-0.988,-0.9848,-0.9448,-0.865,-0.803,0.0,0.0,0.0,0.0,0.0,0.0,0.0,0.0,0.0,0.0,0.0,0.0,0.0,0.0,0.0,0.0,0.0,0.0,0.0,0.0,-0.5579,0.0,0.0,0.0,0.0,0.0,0.0,0.0,0.0,0.0,0.0,-1.0294,-1.1364,-1.2418,-1.2879,0.0,0.0,0.0,0.0,-1.4269,-1.4368,-1.4274,-1.4082,-1.3783,-1.3844,-1.3658,-1.2834,0.0,0.0,-1.3207,-1.3413,-1.3507,-1.3041,-1.3331,-1.3663,-1.3705,-1.2602,-1.1965,-1.2663,-1.1526,-1.0855,-1.1928,-1.1933,-1.1623,-1.0903,0.0,0.0,0.0,0.0,-0.9593,-1.0052,-1.064,-1.026,-1.022,-1.0402,-0.9729,0.0,0.0,0.0,0.0,0.0,0.0,-1.0481,-1.1085,-1.1217,-1.1298,-1.1322,-1.0866,-1.0569,-1.0457,-1.1033,-1.1141,-1.0843,-1.1114,-1.0093,-0.787,0.0,0.0,0.0,0.0,-1.007,-1.0679,-1.1114,-1.1346,-1.1382,-1.1353,-1.1546,-1.1967,-1.1141,-1.0747,-1.0851,-1.0581,-1.0014,-0.9082,-0.9129,0.0,0.0,0.0,0.0,0.0,0.0,0.0,0.0,0.0,0.0,0.0,0.0,0.0,0.0,0.0,0.0,0.0,0.0,0.0,-0.5613,-0.5653,-0.5946,0.0,0.0,0.0,0.0,0.0,0.0,0.0,0.0,0.0,-1.2579,-1.2691,-1.3035,0.0,0.0,-1.4425,-1.4425,-1.4378,-1.4373,-1.4425,-1.4378,0.0,-1.4204,-1.3876,-1.3728,-1.3862,-1.4055,-1.4185,-1.4049,-1.4038,-1.4045,-1.3952,-1.3908,-1.391,-1.4019,-1.3557,-1.3119,-1.3264,-1.2787,-1.2478,-1.2822,-1.2704,-1.253,-1.3375,-1.1951,-1.1343,-1.0934,-1.0718,-1.0958,-1.1134,-1.129,-1.1183,-1.1145,-1.1124,-1.0684,-1.0092,-0.946,-0.9315,0.0,0.0,0.0,-1.1338,-1.196,-1.1682,-1.1567,-1.1553,-1.0996,-1.0847,-1.1064,-1.1424,-1.1775,-1.2067,-1.2374,-1.1492,-0.9546,0.0,0.0,-0.9282,-1.0264,-1.0977,-1.1413,-1.1757,-1.1885,-1.1783,-1.1912,-1.1966,-1.1998,-1.1392,-1.1018,-1.0926,-1.0803,-1.0343,-0.9597,-0.9543,-0.9103,0.0,0.0,0.0,0.0,0.0,0.0,0.0,0.0,0.0,0.0,0.0,-0.6538,-0.6187,0.0,0.0,0.0,-0.559,-0.5832,-0.6445,-0.6612,0.0,0.0,0.0,0.0,0.0,0.0,0.0,-1.0654,-1.1758,-1.2699,-1.3173,-1.3123,-1.3355,-1.4302,-1.4425,-1.4425,-1.4425,0.0,-1.4425,-1.4425,-1.4425,-1.4425,-1.4373,-1.4047,-1.3863,-1.4195,-1.4233,-1.4244,-1.4244,-1.414,-1.4156,-1.4188,-1.4052,-1.3921,-1.3863,-1.3677,-1.3519,-1.352,-1.3415,-1.3228,-1.3084,-1.3017,-1.2832,-1.5335,-1.4655,-1.3233,-1.2201,-1.1527,-1.2114,-1.2049,-1.1493,-1.1854,-1.1961,-1.1874,-1.1478,-1.0876,-1.0173,-1.0033,0.0,-1.1762,-1.1782,-1.2109,-1.2667,-1.2062,-1.1762,-1.1693,-1.1089,-1.1096,-1.1653,-1.1693,-1.2122,-1.2865,-1.2772,-1.2499,-1.2111,-1.1737,-1.1468,-1.1349,-1.1422,-1.1836,-1.2549,-1.2569,-1.2569,-1.2569,-1.2493,-1.2146,-1.1481,-1.1509,-1.1181,-1.0473,-1.0568,-1.0454,-1.0059,-0.9556,-0.9163,-0.8861,0.0,0.0,0.0,0.0,0.0,0.0,0.0,0.0,0.0,0.0,0.0,0.0,0.0,0.0,0.0,-0.5967,0.0,-0.7627,-0.8062,0.0,0.0,0.0,-0.9483,-0.9,-1.0309,-1.1061,-1.0636,0.0,0.0,-1.2598,-1.2924,-1.3457,-1.4186,-1.4326,-1.4378,-1.4425,-1.4425,-1.4425,-1.4425,-1.4425,-1.4425,-1.4425,-1.4253,-1.4154,-1.4104,-1.4015,-1.4062,-1.402,-1.3968,-1.3952,-1.3915,-1.3883,-1.374,-1.3417,-1.3349,-1.3344,-1.3339,-1.3319,-1.3233,-1.2925,-1.2827,-1.2681,-1.6283,-1.6084,-1.5677,-1.4531,-1.3042,-1.3735,-1.3632,-1.3029,-1.3503,-1.3682,-1.3628,-1.266,-1.2024,-1.158,-1.1563,-1.2201,-1.3353,-1.336,-1.3688,-1.4181,-1.3639,-1.3095,-1.2586,-1.2027,-1.185,-1.2018,-1.2384,-1.2955,-1.3648,-1.4051,-1.413,-1.3873,-1.3768,-1.2995,-1.1629,-1.2431,-1.3,-1.3201,-1.3171,-1.3208,-1.3165,-1.2397,-1.218,-1.2648,-1.1612,-1.0927,-1.0636,-1.0386,-1.0053,-0.9658,-0.9799,-0.9552,-0.879,-0.7968,0.0,0.0,0.0,0.0,0.0,0.0,0.0,0.0,0.0,-0.759,-0.7338,0.0,-0.7145,0.0,-0.8054,-0.8005,-0.8285,-0.8672,0.0,0.0,-1.0229,-1.0433,-1.1214,-1.138,-1.1612,-1.2117,-1.2484,-1.2774,-1.2977,-1.3153,-1.3256,-1.3457,-1.3752,-1.4046,-1.4332,-1.4425,-1.4425,-1.4425,-1.4425,-1.4425,-1.4378,-1.4373,-1.4326,-1.4332,-1.4291,-1.4197,-1.3915,-1.381,-1.3784,-1.3709,-1.3671,-1.3486,-1.3011,-1.2938,-1.2924,-1.2852,-1.2769,-1.2715,-1.2632,-1.2426,-1.2278,-1.6615,-1.6596,-1.6562,-1.5711,-1.4489,-1.4822,-1.4609,-1.4025,-1.4521,-1.459,-1.424,-1.3391,-1.3034,-1.3121,-1.297,-1.3424,-1.4274,-1.4302,-1.4485,-1.4752,-1.3867,-1.3424,-1.3312,-1.2495,-1.2369,-1.2904,-1.3207,-1.3699,-1.438,-1.4656,-1.478,-1.4721,-1.4672,-1.4079,-1.3099,-1.3533,-1.3798,-1.3805,-1.3686,-1.3617,-1.3623,-1.2914,-1.2492,-1.2359,-1.1677,-1.0978,-1.0322,-1.016,-0.9824,-0.9322,-0.9723,-0.9473,-0.8411,-0.8302,-0.8106,0.0,0.0,0.0,0.0,0.0,0.0,0.0,0.0,0.0,0.0,0.0,-0.8492,-0.9084,-0.8997,-0.9123,-0.9602,-0.9858,-1.0452,-1.1431,-1.1343,-1.1431,-1.2052,-1.1883,-1.1935,-1.2398,-1.2431,-1.252,-1.2696,-1.2696,-1.2793,-1.2953,-1.3195,-1.353,-1.401,-1.414,-1.4186,-1.4373,-1.4425,-1.4326,-1.4186,-1.4145,-1.4145,-1.4145,-1.415,-1.4051,-1.3868,-1.3815,-1.3684,-1.3342,-1.3255,-1.308,-1.2614,-1.2492,-1.2472,-1.2452,-1.2377,-1.2328,-1.2328,-1.2224,-1.2076,-1.6615,-1.6615,-1.6615,-1.6267,-1.5722,-1.5663,-1.5285,-1.4782,-1.5255,-1.5086,-1.441,-1.4056,-1.4112,-1.4414,-1.412,-1.4308,-1.4849,-1.4878,-1.4863,-1.4793,-1.3643,-1.3396,-1.3912,-1.2788,-1.2852,-1.3947,-1.3939,-1.4309,-1.5029,-1.4925,-1.4904,-1.4975,-1.4904,-1.4825,-1.4777,-1.4486,-1.4287,-1.4287,-1.404,-1.3874,-1.3848,-1.36,-1.2818,-1.1589,-1.1653,-1.1112,-0.9838,-0.9994,-0.9837,-0.9225,-0.9664,-0.9446,-0.8285,-0.8628,-0.8819,0.0,-0.8683,0.0,0.0,0.0,0.0,0.0,0.0,0.0,0.0,-1.0092,-1.0034,-0.9417,-0.9549,-1.0099,-1.1069,-1.1273,-1.1588,-1.2185,-1.2278,-1.2229,-1.2121,-1.2076,-1.2076,-1.2076,-1.2076,-1.2076,-1.2126,-1.2076,-1.2229,-1.2578,-1.2622,-1.291,-1.3536,-1.3721,-1.3852,-1.4192,-1.4228,-1.4041,-1.3805,-1.3721,-1.371,-1.3716,-1.3716,-1.3716,-1.3621,-1.3631,-1.3445,-1.2886,-1.27,-1.2588,-1.218,-1.2126,-1.2121,-1.2126,-1.213,-1.2126,-1.2126,-1.2121,-1.2076,-1.6693,-1.6615,-1.6615,-1.6552,-1.6399,-1.6399,-1.6005,-1.5438,-1.6082,-1.5934,-1.5228,-1.5771,-1.552,-1.4673,-1.4584,-1.4782,-1.5215,-1.5208,-1.5215,-1.5193,-1.4407,-1.4097,-1.4183,-1.3496,-1.3532,-1.4198,-1.4234,-1.4566,-1.5238,-1.5208,-1.5133,-1.5006,-1.4989,-1.4904,-1.4801,0.0,0.0,0.0,-1.3987,-1.3815,-1.3594,-1.3323,-1.2633,-1.154,-1.1327,0.0,-0.9649,-1.0003,-1.0191,-1.0084,-1.0568,0.0,0.0,0.0,0.0,0.0,0.0,0.0,0.0,0.0,0.0,0.0,-1.0977,-1.1021,-1.063,-1.1404,-1.1318,-0.9851,-1.0918,-1.1654,-1.1426,-1.1711,-1.1955,-1.2103,-1.2126,-1.213,-1.2081,-1.2076,-1.2076,-1.2076,-1.2076,-1.2076,-1.2076,-1.2076,-1.213,-1.222,-1.2224,-1.2421,-1.2871,-1.3137,-1.3362,-1.3409,-1.351,-1.3409,-1.3314,-1.3319,-1.3324,-1.3314,-1.3309,-1.3228,-1.3007,-1.2968,-1.2764,-1.2332,-1.2224,-1.2229,-1.213,-1.2076,-1.2076,-1.2076,-1.2076,-1.2076,-1.2076,-1.2076,-1.2076,-1.7214,0.0,-1.6818,-1.6693,0.0,-1.6693,-1.6521,-1.6219,-1.6491,-1.6381,-1.6028,-1.642,-1.6126,-1.5344,-1.5212,-1.5191,-1.5306,-1.5306,-1.5306,-1.5246,-1.4631,-1.4493,-1.4783,-1.413,-1.4166,-1.479,-1.4783,-1.4986,-1.5298,-1.5306,-1.5231,-1.5133,-1.5163,-1.5102,-1.5063,-1.4794,-1.4497,-1.4208,-1.3782,-1.3642,-1.3769,-1.3214,-1.2556,-1.1946,-1.1631,0.0,0.0,0.0,0.0,0.0,0.0,0.0,0.0,0.0,0.0,-1.0624,-1.0326,-1.0261,-1.0504,-1.0574,-1.0937,-1.1728,-1.2003,-1.1999,-1.1711,-1.1855,-1.1691,-1.106,-1.1765,-1.2096,-1.1863,-1.1957,-1.2076,-1.2076,-1.2076,-1.2076,-1.2076,-1.2076,-1.2076,-1.2076,-1.2076,-1.2076,-1.2076,-1.2076,-1.2126,-1.218,-1.2175,-1.2278,-1.2573,-1.2813,-1.2992,-1.3165,-1.3218,-1.3127,-1.2997,-1.2949,-1.2944,-1.2949,-1.2949,-1.2905,-1.2725,-1.2681,-1.2573,-1.2175,-1.2076,-1.2076,-1.2076,-1.2076,-1.2076,-1.2076,-1.2076,-1.2076,-1.2076,-1.2076,-1.2076,-1.802,-1.79,-1.7284,-1.7025,-1.7033,-1.6889,-1.6849,-1.6823,0.0,0.0,0.0,-1.6592,-1.6359,-1.6004,-1.5776,-1.5529,-1.5313,-1.5306,-1.5306,-1.5277,-1.4609,-1.466,-1.5255,-1.4623,-1.4652,-1.5284,-1.5306,-1.5306,-1.5306,-1.5306,-1.5306,-1.5306,-1.5306,-1.5275,-1.5215,-1.5065,-1.4742,-1.4287,-1.3669,-1.3562,-1.396,-1.316,-1.2576,-1.2256,-1.2039,-1.1634,-1.1123,-1.1189,-1.1033,-1.063,-1.1093,-1.1135,-1.0642,-1.1087,-1.1558,-1.1826,-1.1491,-1.1608,-1.2394,-1.1751,-1.1703,-1.2564,-1.2682,-1.269,-1.2639,-1.2041,-1.1841,-1.229,-1.2224,-1.218,-1.2175,-1.2121,-1.213,-1.2126,-1.213,-1.2076,-1.2076,-1.213,-1.213,-1.2121,-1.2175,-1.2175,-1.2175,-1.2175,-1.2234,-1.2332,-1.2328,-1.2382,-1.248,-1.2632,-1.2764,-1.2992,-1.3025,-1.2939,-1.2715,-1.2676,-1.2681,-1.2632,-1.2622,-1.2632,-1.2632,-1.2627,-1.2475,-1.218,-1.2076,-1.2076,-1.2076,-1.2076,-1.2076,-1.2076,-1.2076,-1.213,-1.2121,-1.2126,-1.2126,-1.9301,-1.8929,-1.8214,-1.7922,-1.7882,-1.7226,-1.696,-1.6942,-1.672,-1.6615,-1.6596,-1.6612,-1.6355,-1.6004,-1.5983,-1.5689,-1.5306,-1.5306,-1.5306,-1.5277,-1.4609,-1.4631,-1.5269,-1.4623,-1.466,-1.5269,-1.5306,-1.5306,-1.5306,-1.5306,-1.5306,-1.5306,-1.5306,-1.5154,-1.4894,-1.4832,-1.4637,-1.4287,-1.3973,-1.3729,-1.3581,-1.3076,-1.2554,-1.207,-1.1986,-1.164,-1.1123,-1.1532,-1.1775,-1.1682,-1.2203,-1.2211,-1.1718,-1.2185,-1.2323,-1.1946,-1.1948,-1.182,-1.1509,-1.1472,-1.1714,-1.2236,-1.2898,-1.3142,-1.2725,-1.2473,-1.2395,-1.2471,-1.2431,-1.2436,-1.2426,-1.2332,-1.2283,-1.2278,-1.218,-1.2076,-1.2126,-1.2229,-1.2274,-1.2274,-1.2377,-1.2426,-1.2426,-1.2426,-1.2431,-1.248,-1.2485,-1.2485,-1.2534,-1.2529,-1.2524,-1.2573,-1.2618,-1.252,-1.2421,-1.2475,-1.2475,-1.2382,-1.2372,-1.2431,-1.2431,-1.2332,-1.2229,-1.213,-1.2126,-1.2126,-1.2126,-1.2076,-1.2126,-1.2126,-1.2121,-1.2175,-1.2229,-1.2269,-1.2274,-2.0127,-1.9812,-1.8692,-1.82,-1.8143,-1.7485,-1.7084,-1.6985,-1.6866,-1.6807,-1.6781,-1.6672,-1.6496,-1.6266,-1.6072,-1.5805,-1.5477,-1.5336,-1.5306,-1.5284,-1.4986,-1.5015,-1.5269,-1.4986,-1.5001,-1.5291,-1.5306,-1.5306,-1.5306,-1.5306,-1.5306,-1.5306,-1.5306,-1.5208,-1.51,-1.5048,-1.4902,-1.4574,-1.4006,-1.3742,-1.3782,-1.3173,-1.2779,-1.2663,-1.2472,-1.2239,-1.1998,-1.2215,-1.2342,-1.2348,-1.2577,-1.2595,-1.2372,-1.2577,-1.2489,-1.203,-1.1786,-1.1695,-1.1739,-1.2039,-1.2214,-1.2213,-1.2777,-1.3065,-1.2827,-1.2671,-1.2569,-1.2529,-1.2524,-1.252,-1.2524,-1.2431,-1.2421,-1.2431,-1.2328,-1.2332,-1.2332,-1.2382,-1.2421,-1.2426,-1.2475,-1.2529,-1.2529,-1.2529,-1.2529,-1.2583,-1.2676,-1.2725,-1.2735,-1.2725,-1.2671,-1.2534,-1.2529,-1.2485,-1.2426,-1.2431,-1.2475,-1.2426,-1.2372,-1.2426,-1.2431,-1.2377,-1.2323,-1.2328,-1.2328,-1.2328,-1.2328,-1.2332,-1.2328,-1.2318,-1.2323,-1.2328,-1.2377,-1.2274,-1.2076,-2.1053,-2.09,-1.9328,-1.8456,-1.8094,-1.756,-1.7257,-1.7101,-1.7109,-1.7109,-1.7068,-1.6901,-1.6688,-1.652,-1.625,-1.5996,-1.5689,-1.5514,-1.5388,-1.5336,-1.5343,-1.5306,-1.5306,-1.5306,-1.5306,-1.5306,-1.5306,-1.5306,-1.5306,-1.5306,-1.5306,-1.5306,-1.5306,-1.5306,-1.5306,-1.5208,-1.5025,-1.4683,-1.398,-1.3749,-1.3894,-1.3269,-1.3006,-1.3085,-1.2931,-1.2803,-1.2709,-1.2709,-1.2709,-1.2709,-1.2709,-1.2709,-1.2709,-1.2709,-1.2562,-1.2223,-1.1736,-1.1641,-1.1967,-1.2423,-1.2538,-1.2236,-1.2637,-1.2886,-1.2881,-1.2764,-1.2666,-1.2627,-1.2671,-1.2666,-1.2632,-1.2573,-1.2524,-1.2524,-1.2529,-1.248,-1.2529,-1.2529,-1.2529,-1.2529,-1.2578,-1.2578,-1.2578,-1.2578,-1.2627,-1.2735,-1.2827,-1.2886,-1.2886,-1.2886,-1.2832,-1.2681,-1.2578,-1.2573,-1.2578,-1.2573,-1.2573,-1.2529,-1.2529,-1.2529,-1.2534,-1.2529,-1.2524,-1.248,-1.248,-1.2475,-1.2529,-1.2529,-1.2431,-1.2328,-1.2229,-1.2224,-1.2081,-1.1923,-1.1619,-2.2485,-2.2083,-2.0508,-1.8952,-1.7657,-1.7508,-1.7459,-1.7442,-1.7451,-1.7451,-1.7435,-1.7412,-1.7129,-1.672,-1.6644,-1.6328,-1.5922,-1.5858,-1.5681,-1.5411,-1.5396,-1.5358,-1.5306,-1.5306,-1.5306,-1.5306,-1.5306,-1.5306,-1.5306,-1.5283,-1.5275,-1.5306,-1.5306,-1.5275,-1.5245,-1.5001,-1.4669,-1.4351,-1.3914,-1.3702,-1.3709,-1.3288,-1.3019,-1.2931,-1.2902,-1.2838,-1.2709,-1.2774,-1.2774,-1.2709,-1.2709,-1.2709,-1.2709,-1.2709,-1.2674,-1.2609,-1.2246,-1.1932,-1.1724,-1.1998,-1.2287,-1.2205,-1.2642,-1.2886,-1.2886,-1.2886,-1.2876,-1.2827,-1.2881,-1.2886,-1.2822,-1.273,-1.2681,-1.2681,-1.2573,-1.2529,-1.2529,-1.2627,-1.2676,-1.2681,-1.2779,-1.2881,-1.2837,-1.2832,-1.2832,-1.2837,-1.2881,-1.2886,-1.2886,-1.2886,-1.2881,-1.2881,-1.2881,-1.2779,-1.2735,-1.2779,-1.2779,-1.2686,-1.2681,-1.2632,-1.2627,-1.2529,-1.2475,-1.2274,-1.2377,-1.2377,-1.2426,-1.248,-1.2283,-1.1923,-1.1773,-1.1678,-1.1377,-1.1267,-1.1057,-2.2764,-2.2564,-2.1344,-1.9858,-1.8397,-1.783,-1.7567,-1.7498,-1.7498,-1.7498,-1.7483,-1.7477,-1.7338,-1.705,-1.6815,-1.6575,-1.6355,-1.6047,-1.5838,-1.5674,-1.5514,-1.5433,-1.5374,-1.5374,-1.5351,-1.5306,-1.5306,-1.5306,-1.5238,-1.5086,-1.5001,-1.497,-1.4808,-1.47,-1.4714,-1.4588,-1.4319,-1.3947,-1.3775,-1.3608,-1.3419,-1.3267,-1.31,-1.3019,-1.3025,-1.2914,-1.2809,-1.2768,-1.2768,-1.2709,-1.2709,-1.2709,-1.2709,-1.2709,-1.2478,-1.2044,-1.1877,-1.1863,-1.1974,-1.2373,-1.2617,-1.2617,-1.2773,-1.2886,-1.2886,-1.2886,-1.2886,-1.2886,-1.2886,-1.2886,-1.2881,-1.2837,-1.2832,-1.2832,-1.2779,-1.2735,-1.2735,-1.2779,-1.2827,-1.2827,-1.2881,-1.2886,-1.2886,-1.2886,-1.2886,-1.2886,-1.2886,-1.2886,-1.2886,-1.2886,-1.2886,-1.2886,-1.2886,-1.2881,-1.2832,-1.2832,-1.2886,-1.2832,-1.2827,-1.2779,-1.2426,-1.2332,-1.2175,-1.1864,-1.1814,-1.1814,-1.171,-1.176,-1.1665,-1.141,-1.136,-1.1267,-1.0816,-1.0706,-1.0502,-2.2885,-2.2712,-2.1816,-2.0305,-1.8576,-1.8111,-1.7766,-1.7498,-1.7498,-1.7498,-1.7498,-1.7498,-1.7467,-1.7297,-1.695,-1.6755,-1.6617,-1.6208,-1.593,-1.5824,-1.5624,-1.5492,-1.5418,-1.5418,-1.5403,-1.5358,-1.5336,-1.5321,-1.5283,-1.507,-1.494,-1.4902,-1.4683,-1.4574,-1.4543,-1.4422,-1.4157,-1.3881,-1.3688,-1.3452,-1.3239,-1.321,-1.3163,-1.3107,-1.3107,-1.3025,-1.2838,-1.2879,-1.2844,-1.2709,-1.2739,-1.2709,-1.2709,-1.2709,-1.2458,-1.1921,-1.1778,-1.1945,-1.2368,-1.2705,-1.2886,-1.2886,-1.2886,-1.2886,-1.2886,-1.2886,-1.2886,-1.2886,-1.2886,-1.2886,-1.2886,-1.2886,-1.2886,-1.2886,-1.2886,-1.2886,-1.2886,-1.2886,-1.2886,-1.2886,-1.2886,-1.2886,-1.2886,-1.2886,-1.2886,-1.2886,-1.2886,-1.2886,-1.2886,-1.2886,-1.2886,-1.2886,-1.2783,-1.273,-1.2886,-1.2886,-1.2886,-1.2886,-1.2886,-1.2725,-1.222,-1.2126,-1.1927,-1.161,-1.1305,-1.1255,-1.1355,-1.1305,-1.1103,-1.0998,-1.085,-1.0698,-1.0237,-1.0186,-1.0032,-2.3095,-2.2905,-2.185,-2.0007,-1.7822,-1.8227,-1.8079,-1.7498,-1.7498,-1.7498,-1.7498,-1.7498,-1.7498,-1.7459,-1.7142,-1.6833,-1.6581,-1.6332,-1.6009,-1.5682,-1.5631,-1.5544,-1.5507,-1.5507,-1.5485,-1.5455,-1.5426,-1.5381,-1.5298,-1.5283,-1.5283,-1.5215,-1.5117,-1.5162,-1.5025,-1.4493,-1.4268,-1.4092,-1.356,-1.3232,-1.321,-1.321,-1.317,-1.3135,-1.3163,-1.3094,-1.2937,-1.3025,-1.299,-1.2803,-1.2768,-1.2774,-1.2709,-1.2633,-1.2634,-1.2628,-1.2309,-1.2377,-1.2771,-1.2861,-1.2886,-1.2886,-1.2886,-1.2886,-1.2886,-1.2886,-1.2886,-1.2886,-1.2886,-1.2886,-1.2886,-1.2886,-1.2886,-1.2886,-1.2886,-1.2886,-1.2886,-1.2886,-1.2886,-1.2886,-1.2827,-1.2779,-1.2832,-1.2886,-1.2783,-1.2779,-1.2832,-1.2783,-1.273,-1.2783,-1.2783,-1.2681,-1.2475,-1.2328,-1.2735,-1.2632,-1.2735,-1.2735,-1.2627,-1.2578,-1.2328,-1.2022,-1.1665,-1.136,-1.1049,-1.0947,-1.1103,-1.1053,-1.0799,-1.0545,-1.0131,-0.9821,-0.9873,-0.9721,-0.9669,-2.2821,-2.2288,-2.1246,-1.996,-1.8606,-1.8168,-1.7793,-1.7506,-1.7498,-1.7498,-1.7498,-1.7498,-1.7498,-1.7483,-1.7158,-1.6934,-1.6833,-1.6581,-1.6285,-1.5988,-1.5805,-1.5668,-1.558,-1.558,-1.5544,-1.5514,-1.5477,-1.5426,-1.5336,-1.5156,-1.4904,-1.4644,-1.4388,-1.4169,-1.3947,-1.3728,-1.36,-1.356,-1.3307,-1.321,-1.321,-1.321,-1.3163,-1.3163,-1.3198,-1.3163,-1.3025,-1.299,-1.2914,-1.2803,-1.2774,-1.2597,-1.23,-1.1853,-1.1822,-1.231,-1.2024,-1.2118,-1.2778,-1.2886,-1.2886,-1.2886,-1.2886,-1.2886,-1.2886,-1.2886,-1.2886,-1.2886,-1.2886,-1.2886,-1.2886,-1.2886,-1.2886,-1.2886,-1.2886,-1.2886,-1.2886,-1.2886,-1.2886,-1.2832,-1.2622,-1.2269,-1.2017,-1.1819,-1.1814,-1.1814,-1.1814,-1.1864,-1.181,-1.181,-1.1868,-1.1814,-1.166,-1.1619,-1.1764,-1.1819,-1.1868,-1.2067,-1.2062,-1.161,-1.1259,-1.1162,-1.0854,-1.049,-1.0332,-1.0383,-1.0383,-1.0387,-1.0186,-1.0079,-0.9669,-0.9669,-0.9618,-0.9618,-0.9618,-2.227,-2.1456,-2.0703,-1.9728,-1.8654,-1.8158,-1.7768,-1.7515,-1.7498,-1.7498,-1.7498,-1.7498,-1.7498,-1.7474,-1.7273,-1.7117,-1.6968,-1.6625,-1.6367,-1.6168,-1.5919,-1.5762,-1.5683,-1.5668,-1.5639,-1.561,-1.5544,-1.5507,-1.5426,-1.5202,-1.4921,-1.4655,-1.4234,-1.3947,-1.3728,-1.3486,-1.3357,-1.3363,-1.326,-1.321,-1.321,-1.321,-1.321,-1.321,-1.321,-1.3198,-1.3135,-1.3025,-1.2879,-1.2703,-1.2585,-1.2371,-1.1884,-1.1394,-1.1426,-1.2045,-1.1968,-1.209,-1.2792,-1.2886,-1.2886,-1.2886,-1.2886,-1.2886,-1.2886,-1.2886,-1.2886,-1.2881,-1.2725,-1.2622,-1.2573,-1.2471,-1.2475,-1.2783,-1.2886,-1.2886,-1.2886,-1.2886,-1.2886,-1.2886,-1.2632,-1.2175,-1.1619,-1.1556,-1.1456,-1.1255,-1.1204,-1.1204,-1.1204,-1.1204,-1.1204,-1.1204,-1.1103,-1.1108,-1.1103,-1.1099,-1.1204,-1.1456,-1.1556,-1.0947,-1.0545,-1.0399,-1.0194,-0.9773,-0.9618,-0.9618,-0.9618,-0.9618,-0.9618,-0.9618,-0.9618,-0.9618,-0.9618,-0.9618,-0.9566,-2.1453,-2.0611,-2.028,-1.9241,-1.8002,-1.8201,-1.8079,-1.7548,-1.7498,-1.7498,-1.7498,-1.7498,-1.7498,-1.7474,-1.7442,-1.7305,-1.7001,-1.6554,-1.6285,-1.6176,-1.5955,-1.5827,-1.5799,-1.5777,-1.5777,-1.5762,-1.5668,-1.5573,-1.5477,-1.5411,-1.5322,-1.5269,-1.4856,-1.4543,-1.47,-1.3914,-1.3642,-1.3581,-1.3323,-1.321,-1.321,-1.321,-1.321,-1.321,-1.321,-1.3163,-1.3163,-1.3094,-1.2809,-1.2443,-1.2246,-1.1987,-1.1576,-1.1407,-1.165,-1.2032,-1.2173,-1.2407,-1.2808,-1.2886,-1.2886,-1.2886,-1.2886,-1.2886,-1.2886,-1.2837,-1.2832,-1.273,-1.2372,-1.2076,-1.2022,-1.1669,-1.171,-1.2627,-1.2725,-1.2681,-1.2837,-1.2886,-1.2886,-1.2783,-1.2622,-1.2583,-1.2234,-1.1823,-1.1514,-1.1103,-1.0998,-1.0998,-1.0947,-1.0897,-1.1103,-1.1002,-1.0698,-1.049,-1.0486,-1.0431,-1.0639,-1.0842,-1.0943,-1.0744,-1.0391,-1.019,-1.0035,-0.9721,-0.9618,-0.9618,-0.9618,-0.9618,-0.9618,-0.9618,-0.9618,-0.9618,-0.9618,-0.9618,-0.9514,-2.1532,-2.0643,-1.984,-1.8939,-1.8004,-1.7918,-1.7719,-1.7514,-1.7497,-1.7482,-1.7498,-1.7498,-1.7498,-1.7498,-1.7498,-1.7451,-1.7314,-1.6925,-1.6565,-1.625,-1.6128,-1.5968,-1.5835,-1.5814,-1.5814,-1.5806,-1.5762,-1.5675,-1.5573,-1.5492,-1.5322,-1.5043,-1.4655,-1.4312,-1.4078,-1.3588,-1.3357,-1.3357,-1.326,-1.321,-1.321,-1.321,-1.321,-1.321,-1.321,-1.3082,-1.2779,-1.2691,-1.2562,-1.2377,-1.1957,-1.151,-1.1184,-1.1114,-1.1303,-1.1745,-1.2068,-1.2422,-1.2808,-1.2886,-1.2886,-1.2886,-1.2886,-1.2886,-1.2837,-1.2578,-1.2377,-1.2318,-1.1819,-1.146,-1.1456,-1.136,-1.1355,-1.171,-1.1764,-1.1963,-1.2278,-1.2332,-1.2175,-1.1819,-1.1714,-1.1514,-1.1108,-1.096,-1.0804,-1.0336,-1.0174,-1.0178,-1.0127,-1.0233,-1.0079,-1.0079,-0.9873,-0.9976,-1.0028,-1.0024,-1.0127,-1.0281,-1.0332,-1.0435,-1.0131,-0.998,-0.9825,-0.9721,-0.9669,-0.9618,-0.9618,-0.9618,-0.9618,-0.9562,-0.9506,-0.9562,-0.9618,-0.9458,-0.9249,-2.1383,-2.0714,-1.9469,-1.8612,-1.8057,-1.7816,-1.765,-1.7551,-1.7536,-1.7521,-1.7505,-1.7482,-1.7498,-1.7498,-1.7498,-1.7498,-1.7483,-1.7281,-1.6942,-1.6493,-1.625,-1.6093,-1.5919,-1.5812,-1.5814,-1.5814,-1.5814,-1.5741,-1.5668,-1.5426,-1.5195,-1.4883,-1.4363,-1.3987,-1.3682,-1.3357,-1.321,-1.321,-1.321,-1.321,-1.321,-1.321,-1.321,-1.321,-1.321,-1.3006,-1.2632,-1.2354,-1.2144,-1.1918,-1.1513,-1.116,-1.0938,-1.1185,-1.1528,-1.1811,-1.2212,-1.2612,-1.2852,-1.2886,-1.2886,-1.2886,-1.2886,-1.2886,-1.2832,-1.2524,-1.2372,-1.2071,-1.156,-1.1103,-1.0952,-1.0694,-1.0635,-1.0639,-1.1002,-1.136,-1.1719,-1.1769,-1.1665,-1.136,-1.1255,-1.0905,-1.0553,-1.0403,-1.019,-0.9773,-0.9618,-0.9618,-0.9618,-0.9669,-0.9618,-0.9618,-0.9669,-0.9721,-0.9669,-0.9669,-0.9618,-0.9721,-0.9769,-0.9821,-0.9773,-0.9721,-0.9669,-0.9669,-0.9618,-0.9618,-0.9618,-0.9614,-0.9562,-0.9506,-0.9239,-0.9082,-0.8928,-0.8827,-0.8669,-2.1114,-2.0774,-1.9253,-1.8531,-1.8297,-1.818,-1.7991,-1.7767,-1.7729,-1.7649,-1.7521,-1.7504,-1.7497,-1.7498,-1.749,-1.7514,-1.7474,-1.7458,-1.7248,-1.6858,-1.6485,-1.6231,-1.612,-1.5926,-1.5806,-1.5814,-1.5814,-1.5814,-1.5762,-1.5292,-1.502,-1.4975,-1.422,-1.3742,-1.3709,-1.3404,-1.321,-1.321,-1.321,-1.321,-1.3223,-1.3286,-1.3292,-1.3311,-1.3309,-1.3135,-1.274,-1.227,-1.1728,-1.1248,-1.1125,-1.1071,-1.1099,-1.1768,-1.2153,-1.2141,-1.2622,-1.2808,-1.2886,-1.2886,-1.2832,-1.2774,-1.2779,-1.2827,-1.2627,-1.2421,-1.217,-1.1814,-1.1305,-1.0854,-1.034,-1.0032,-0.9769,-0.9773,-1.0545,-1.1053,-1.1103,-1.1103,-1.1103,-1.1103,-1.1103,-1.0956,-1.045,-1.0403,-1.0142,-0.9773,-0.9618,-0.9618,-0.9618,-0.9618,-0.9618,-0.9618,-0.9618,-0.9618,-0.9618,-0.9618,-0.9618,-0.9618,-0.9618,-0.9566,-0.9618,-0.9618,-0.9458,-0.9458,-0.9458,-0.951,-0.9406,-0.9194,-0.9086,-0.8873,-0.861,-0.8399,-0.8293,-0.8296,-0.8087,-2.2046,-2.1749,-2.0138,-1.9758,-2.0012,-1.9308,-1.8841,-1.8751,-1.8559,-1.817,-1.7706,-1.7557,-1.7592,-1.7521,-1.7544,-1.7552,-1.7514,-1.7505,-1.7313,-1.6993,-1.6667,-1.6394,-1.6183,-1.5934,-1.5814,-1.5814,-1.5814,-1.5814,-1.5762,-1.5232,-1.5097,-1.5322,-1.4214,-1.3855,-1.4033,-1.3499,-1.3245,-1.321,-1.321,-1.321,-1.3261,-1.3599,-1.3871,-1.386,-1.3864,-1.3691,-1.3252,-1.2411,-1.166,-1.1201,-1.132,-1.143,-1.1479,-1.1943,-1.2229,-1.2334,-1.2632,-1.2886,-1.2881,-1.2886,-1.2725,-1.2328,-1.2269,-1.2121,-1.166,-1.1309,-1.1057,-1.0753,-1.0336,-1.002,-0.9825,-0.9721,-0.9618,-0.9669,-1.0237,-1.049,-1.0237,-1.0395,-1.0604,-1.0608,-1.06,-1.0506,-1.0403,-1.0348,-1.0142,-0.9773,-0.9618,-0.9618,-0.9618,-0.9618,-0.9618,-0.9618,-0.9618,-0.9618,-0.9618,-0.9618,-0.9618,-0.9618,-0.9566,-0.9562,-0.9562,-0.9562,-0.9302,-0.9145,-0.8981,-0.8981,-0.8613,-0.8299,-0.819,-0.824,-0.8081,-0.7975,-0.7978,-0.7978,-0.7661,-2.2585,-2.2372,-2.1064,-2.0718,-2.0939,-2.0283,-1.9939,-1.9824,-1.9581,-1.9007,-1.8384,-1.8143,-1.7882,-1.7567,-1.7566,-1.7582,-1.7544,-1.7536,-1.7377,-1.7076,-1.6667,-1.632,-1.606,-1.5856,-1.5814,-1.5814,-1.5814,-1.577,-1.5602,-1.5097,-1.4921,-1.4783,-1.3986,-1.3621,-1.3728,-1.3459,-1.321,-1.321,-1.321,-1.321,-1.3242,-1.3538,-1.3699,-1.3765,-1.3825,-1.3605,-1.3023,-1.2493,-1.1947,-1.1639,-1.1679,-1.1846,-1.188,-1.2261,-1.2495,-1.252,-1.2749,-1.2827,-1.2578,-1.2529,-1.2274,-1.1868,-1.1714,-1.1569,-1.1314,-1.1006,-1.0952,-1.0541,-1.0226,-0.9917,-0.9666,-0.9618,-0.9618,-0.9618,-0.9873,-0.9932,-0.9618,-0.988,-1.0035,-1.0083,-1.0087,-1.0091,-1.0087,-1.0087,-0.9928,-0.9718,-0.9618,-0.9618,-0.9618,-0.9618,-0.9618,-0.9618,-0.9618,-0.9618,-0.9618,-0.9618,-0.9618,-0.9618,-0.9354,-0.9354,-0.9246,-0.9246,-0.8932,-0.8616,-0.8508,-0.8293,-0.7981,-0.7717,-0.7771,-0.7768,-0.7661,-0.7447,-0.7396,-0.745,-0.713,-2.2938,-2.2783,-2.1876,-2.1462,-2.1413,-2.1164,-2.0969,-2.0912,-2.0651,-2.001,-1.9215,-1.8931,-1.8333,-1.762,-1.7635,-1.7604,-1.7597,-1.7612,-1.7401,-1.7043,-1.6581,-1.6163,-1.5885,-1.5835,-1.5814,-1.5814,-1.5814,-1.5704,-1.5448,-1.4859,-1.4533,-1.4335,-1.3675,-1.3288,-1.3397,-1.3267,-1.321,-1.321,-1.321,-1.3292,-1.3419,-1.3637,-1.3786,-1.3787,-1.3587,-1.3256,-1.2784,-1.2523,-1.2408,-1.2061,-1.2222,-1.227,-1.2353,-1.269,-1.2832,-1.2783,-1.2745,-1.2578,-1.2175,-1.2071,-1.1764,-1.1255,-1.1108,-1.1049,-1.0943,-1.0994,-1.0939,-1.0427,-1.058,-1.0119,-0.9769,-0.9618,-0.9618,-0.9618,-0.9614,-0.9614,-0.9618,-0.9618,-0.9618,-0.9618,-0.9618,-0.9618,-0.9618,-0.9618,-0.9618,-0.9666,-0.9618,-0.9618,-0.9618,-0.9618,-0.9618,-0.9618,-0.9618,-0.9618,-0.9618,-0.9618,-0.9618,-0.9566,-0.9145,-0.8935,-0.8718,-0.8613,-0.8352,-0.8087,-0.7928,-0.7717,-0.7506,-0.7402,-0.7348,-0.7241,-0.7025,-0.6707,-0.6495,-0.6655,-0.6549,-2.3847,-2.3669,-2.2133,-2.2173,-2.2889,-2.1742,-2.1444,-2.1913,-2.1652,-2.0641,-1.9537,-1.9223,-1.8597,-1.7687,-1.7735,-1.7712,-1.7612,-1.7604,-1.7376,-1.6799,-1.6474,-1.6116,-1.5863,-1.5814,-1.5814,-1.5814,-1.5814,-1.5646,-1.5329,-1.4883,-1.4526,-1.4367,-1.3769,-1.3419,-1.3527,-1.3335,-1.321,-1.321,-1.321,-1.3465,-1.3879,-1.4244,-1.4456,-1.4451,-1.3899,-1.3515,-1.3254,-1.2858,-1.272,-1.2807,-1.2775,-1.2733,-1.272,-1.2759,-1.2774,-1.273,-1.2421,-1.2224,-1.2022,-1.1615,-1.1154,-1.0647,-1.0545,-1.0391,-0.9976,-1.0075,-1.0075,-0.9869,-0.9817,-0.9817,-0.9666,-0.9618,-0.9618,-0.9618,-0.9618,-0.9618,-0.9618,-0.9618,-0.9618,-0.9618,-0.9618,-0.9618,-0.9618,-0.9618,-0.9618,-0.9618,-0.9618,-0.9618,-0.9618,-0.9618,-0.9618,-0.9618,-0.9618,-0.9618,-0.9618,-0.9566,-0.9406,-0.9246,-0.883,-0.8302,-0.8084,-0.7925,-0.7664,-0.7456,-0.7297,-0.7139,-0.6977,-0.6763,-0.6655,-0.6495,-0.6443,-0.6337,-0.6282,-0.623,-0.6175,-2.4161,-2.4011,-2.3015,-2.2854,-2.3096,-2.2269,-2.2084,-2.2297,-2.1763,-2.1039,-2.0179,-1.9582,-1.874,-1.7919,-1.7839,-1.7766,-1.7643,-1.7432,-1.715,-1.6722,-1.6375,-1.6039,-1.5863,-1.5814,-1.5814,-1.5814,-1.5814,-1.5646,-1.5359,-1.4907,-1.4557,-1.4431,-1.3769,-1.3514,-1.3594,-1.3397,-1.3295,-1.326,-1.3245,-1.3502,-1.4072,-1.4398,-1.4623,-1.4497,-1.3845,-1.3215,-1.2941,-1.2848,-1.2665,-1.2751,-1.286,-1.2958,-1.2774,-1.2377,-1.222,-1.2269,-1.1963,-1.151,-1.1259,-1.1006,-1.0592,-1.0083,-1.0032,-0.9877,-0.9669,-0.9618,-0.9618,-0.9618,-0.9618,-0.9618,-0.9618,-0.9618,-0.9618,-0.9618,-0.9618,-0.9618,-0.9618,-0.9618,-0.9618,-0.9618,-0.9618,-0.9618,-0.9618,-0.9618,-0.9618,-0.9618,-0.9618,-0.9618,-0.9618,-0.9618,-0.9618,-0.9618,-0.9618,-0.9618,-0.9618,-0.9458,-0.9194,-0.8876,-0.8352,-0.7717,-0.713,-0.7082,-0.6977,-0.6871,-0.6763,-0.6606,-0.6445,-0.623,-0.6175,-0.6282,-0.6282,-0.623,-0.6175,-0.6175,-0.6175,-2.421,-2.4084,-2.3769,-2.3324,-2.2881,-2.2589,-2.2607,-2.2723,-2.1639,-2.1164,-2.0924,-1.9826,-1.8849,-1.8194,-1.7883,-1.7797,-1.762,-1.7345,-1.701,-1.6667,-1.632,-1.6039,-1.5863,-1.5814,-1.5741,-1.5733,-1.577,-1.5704,-1.5396,-1.4975,-1.4571,-1.4374,-1.3842,-1.3554,-1.3493,-1.3425,-1.3357,-1.3335,-1.3239,-1.3503,-1.4014,-1.4198,-1.4321,-1.4238,-1.3499,-1.2903,-1.2668,-1.2585,-1.2522,-1.2164,-1.2576,-1.2854,-1.2754,-1.2067,-1.12,-1.1556,-1.115,-1.0952,-1.0651,-1.0399,-1.0087,-0.9618,-0.9614,-0.9614,-0.9618,-0.9618,-0.9618,-0.9618,-0.9618,-0.9618,-0.9618,-0.9618,-0.9618,-0.9618,-0.9618,-0.9618,-0.9618,-0.9618,-0.9618,-0.9618,-0.9618,-0.9618,-0.9618,-0.9618,-0.9618,-0.9618,-0.9618,-0.9618,-0.9618,-0.9614,-0.9614,-0.9458,-0.9406,-0.9302,-0.9302,-0.8984,-0.8771,-0.8616,-0.8034,-0.7345,-0.6709,-0.6817,-0.6871,-0.6443,-0.6282,-0.6232,-0.6232,-0.623,-0.6175,-0.6175,-0.6175,-0.6175,-0.6175,-0.6175,-0.6175,-2.4192,-2.4099,-2.3244,-2.3152,-2.337,-2.2265,-2.2437,-2.3261,-2.1926,-2.1296,-2.0965,-1.9991,-1.8916,-1.8254,-1.7897,-1.7681,-1.7511,-1.7313,-1.6993,-1.6596,-1.6301,-1.6123,-1.5856,-1.5814,-1.5668,-1.5514,-1.561,-1.5617,-1.5314,-1.498,-1.4595,-1.4169,-1.3808,-1.356,-1.3516,-1.3385,-1.3323,-1.3251,-1.3204,-1.3556,-1.396,-1.4179,-1.4271,-1.4288,-1.3435,-1.2891,-1.2701,-1.2402,-1.2147,-1.1989,-1.1588,-1.2072,-1.2609,-1.23,-1.1347,-1.0537,-1.0442,-1.045,-1.0297,-0.998,-0.9769,-0.9614,-0.9618,-0.9618,-0.9618,-0.9618,-0.9618,-0.9618,-0.9618,-0.9618,-0.9618,-0.9566,-0.9614,-0.9614,-0.9566,-0.9566,-0.9618,-0.9618,-0.9618,-0.9618,-0.9618,-0.9618,-0.9618,-0.9618,-0.9618,-0.9618,-0.9618,-0.9618,-0.9618,-0.9614,-0.9558,-0.9402,-0.9197,-0.904,-0.8886,-0.8511,-0.819,-0.8299,-0.7877,-0.7348,-0.6871,-0.6977,-0.6817,-0.6391,-0.6175,-0.623,-0.623,-0.6175,-0.6175,-0.6175,-0.6175,-0.6175,-0.6175,-0.6175,-0.6175,-2.4302,-2.4247,-2.3655,-2.3373,-2.3127,-2.2041,-2.2147,-2.2817,-2.1169,-2.0606,-2.0575,-1.9688,-1.8708,-1.8168,-1.7888,-1.7712,-1.7614,-1.7288,-1.6985,-1.6607,-1.6328,-1.606,-1.5827,-1.5814,-1.558,-1.5418,-1.5463,-1.5374,-1.5034,-1.47,-1.4591,-1.4506,-1.4032,-1.3777,-1.3857,-1.3647,-1.3345,-1.3144,-1.3172,-1.3431,-1.3894,-1.4101,-1.4339,-1.4084,-1.3426,-1.2857,-1.2514,-1.2358,-1.1987,-1.1743,-1.1572,-1.1949,-1.2132,-1.1891,-1.1049,-1.0087,-0.9991,-1.0098,-1.0039,-0.9773,-0.9614,-0.9618,-0.9618,-0.9618,-0.9618,-0.9618,-0.9618,-0.9618,-0.9618,-0.9618,-0.9618,-0.9354,-0.9354,-0.951,-0.9354,-0.9298,-0.9506,-0.9562,-0.951,-0.951,-0.9506,-0.9506,-0.9618,-0.9618,-0.9618,-0.9618,-0.9618,-0.9566,-0.9566,-0.951,-0.9451,-0.8981,-0.8722,-0.8511,-0.8408,-0.809,-0.7771,-0.7824,-0.7613,-0.7085,-0.6763,-0.6712,-0.6606,-0.6284,-0.623,-0.6175,-0.6175,-0.6175,-0.6175,-0.6175,-0.6175,-0.6175,-0.6175,-0.6175,-0.6175,-2.4417,-2.4372,-2.4191,-2.3729,-2.3032,-2.2143,-2.2211,-2.2356,-2.0463,-2.0138,-2.0811,-1.9381,-1.8414,-1.8149,-1.7957,-1.7833,-1.7857,-1.7363,-1.696,-1.6633,-1.632,-1.6004,-1.5827,-1.577,-1.561,-1.5352,-1.5329,-1.5126,-1.4832,-1.4486,-1.4645,-1.4708,-1.4271,-1.4176,-1.4427,-1.3941,-1.3413,-1.3246,-1.3055,-1.3283,-1.3639,-1.401,-1.4186,-1.4077,-1.3284,-1.2629,-1.2105,-1.1969,-1.1686,-1.1431,-1.1424,-1.1657,-1.1584,-1.1209,-1.0655,-1.015,-0.9947,-0.9847,-0.9792,-0.9732,-0.9673,-0.9618,-0.9618,-0.9618,-0.9618,-0.9618,-0.9618,-0.9618,-0.9618,-0.9618,-0.9566,-0.9141,-0.904,-0.9141,-0.8984,-0.8718,-0.8981,-0.9086,-0.9033,-0.9082,-0.9239,-0.9399,-0.9454,-0.9618,-0.9618,-0.9618,-0.9618,-0.9406,-0.9354,-0.9298,-0.9086,-0.8508,-0.814,-0.7984,-0.7824,-0.7774,-0.7506,-0.7399,-0.7136,-0.6714,-0.6445,-0.6282,-0.623,-0.623,-0.623,-0.6175,-0.6175,-0.6175,-0.6175,-0.6175,-0.6175,-0.6175,-0.6175,-0.6175,-0.6175,-2.4419,-2.4381,-2.4191,-2.4039,-2.3819,-2.2924,-2.2962,-2.3291,-2.116,-2.0671,-2.1282,-1.9458,-1.85,-1.827,-1.8,-1.8068,-1.8044,-1.7633,-1.7043,-1.6641,-1.6409,-1.6136,-1.5848,-1.5814,-1.5588,-1.5336,-1.5275,-1.5095,-1.4823,-1.4486,-1.4654,-1.497,-1.4873,-1.4693,-1.491,-1.4218,-1.3882,-1.3799,-1.3186,-1.303,-1.3472,-1.3671,-1.3511,-1.314,-1.2869,-1.2421,-1.1714,-1.1587,-1.1289,-1.085,-1.0771,-1.0763,-1.0645,-1.0612,-1.0569,-1.0364,-1.0158,-0.9899,-0.9851,-0.9795,-0.9732,-0.9621,-0.9618,-0.9618,-0.9618,-0.9618,-0.9618,-0.9618,-0.9566,-0.9618,-0.9514,-0.9089,-0.8935,-0.8722,-0.8508,-0.8193,-0.8246,-0.856,-0.8504,-0.8455,-0.856,-0.8977,-0.9242,-0.9454,-0.9618,-0.9618,-0.9562,-0.9246,-0.8984,-0.8823,-0.8613,-0.7981,-0.756,-0.7345,-0.7241,-0.719,-0.7136,-0.6977,-0.6712,-0.6393,-0.6284,-0.6175,-0.6175,-0.6175,-0.6175,-0.6175,-0.6175,-0.6175,-0.6175,-0.6175,-0.6175,-0.6175,-0.6175,-0.6175,-0.6175,-2.4591,-2.4564,-2.4374,-2.433,-2.4183,-2.3234,-2.3265,-2.3446,-2.1878,-2.1104,-2.1041,-1.9828,-1.8749,-1.8327,-1.8237,-1.8281,-1.8079,-1.7645,-1.7264,-1.6825,-1.6599,-1.6313,-1.6116,-1.5913,-1.5624,-1.5278,-1.523,-1.5159,-1.4875,-1.489,-1.5086,-1.5638,-1.5378,-1.5119,-1.5281,-1.4539,-1.3893,-1.3448,-1.3044,-1.3097,-1.3421,-1.3549,-1.3319,-1.2817,-1.2759,-1.2217,-1.1594,-1.1327,-1.1077,-1.0681,-1.0536,-1.0547,-1.0529,-1.0518,-1.0518,-1.0466,-1.0091,-0.9884,-0.9899,-0.9844,-0.9681,-0.9618,-0.9614,-0.9618,-0.9618,-0.9618,-0.9618,-0.9618,-0.9298,-0.9298,-0.9302,-0.8774,-0.8669,-0.8458,-0.8087,-0.7928,-0.7771,-0.7877,-0.8034,-0.7931,-0.7877,-0.8243,-0.8504,-0.8557,-0.8666,-0.8774,-0.8718,-0.856,-0.8246,-0.7931,-0.7717,-0.7345,-0.7028,-0.6709,-0.6657,-0.6606,-0.6603,-0.6549,-0.6549,-0.6284,-0.623,-0.6175,-0.6175,-0.6175,-0.6175,-0.6175,-0.6175,-0.6175,-0.6175,-0.6175,-0.6175,-0.6175,-0.6175,-0.6175,-0.6175,-2.4775,-2.4736,-2.4571,-2.4512,-2.4431,-2.3566,-2.3555,-2.3855,-2.2469,-2.1689,-2.1187,-2.0218,-1.9213,-1.881,-1.889,-1.8675,-1.8397,-1.7756,-1.7393,-1.7093,-1.6791,-1.6466,-1.6268,-1.604,-1.5869,-1.5159,-1.5909,-1.5833,-1.5525,-1.5441,-1.5905,-1.6395,-1.5937,-1.5775,-1.5524,-1.4882,-1.4047,-1.3027,-1.3078,-1.3263,-1.3527,-1.3589,-1.317,-1.2774,-1.2477,-1.2143,-1.1263,-1.1108,-1.0808,-1.0596,-1.0482,-1.0486,-1.0522,-1.0356,-1.0249,-1.0146,-0.9829,-0.9621,-0.9632,-0.9584,-0.9524,-0.9465,-0.9409,-0.9312,-0.9361,-0.9409,-0.9413,-0.9312,-0.8991,-0.8991,-0.8935,-0.8299,-0.8037,-0.7877,-0.7717,-0.761,-0.7506,-0.7399,-0.7295,-0.719,-0.7136,-0.7238,-0.745,-0.7447,-0.7608,-0.7877,-0.7874,-0.7818,-0.7557,-0.7244,-0.7031,-0.6817,-0.6655,-0.6443,-0.6337,-0.6284,-0.623,-0.6175,-0.6175,-0.6175,-0.6175,-0.6175,-0.6175,-0.6175,-0.6175,-0.6175,-0.6175,-0.6175,-0.6175,-0.6175,-0.6175,-0.6175,-0.6175,-0.6175,-0.6175,-2.4828,-2.4856,-2.4591,-2.4493,-2.4476,-2.4164,-2.4002,-2.4039,-2.307,-2.2442,-2.1905,-2.0625,-2.0385,-2.0551,-1.9599,-1.9257,-1.9638,-1.8397,-1.7646,-1.7183,-1.6858,-1.6614,-1.654,-1.665,-1.6585,-1.6256,-1.6627,-1.6775,-1.6651,-1.6342,-1.6472,-1.6435,-1.6362,-1.6527,-1.6065,-1.5054,-1.4104,-1.3297,-1.332,-1.347,-1.3595,-1.352,-1.3117,-1.2295,-1.2004,-1.1615,-1.062,-1.0624,-1.0624,-1.0522,-1.0522,-1.0522,-1.0466,-1.0138,-0.9928,-0.9777,-0.9465,-0.9256,-0.9159,-0.9166,-0.9008,-0.891,-0.891,-0.8956,-0.9008,-0.8906,-0.8857,-0.8903,-0.8633,-0.8524,-0.8309,-0.783,-0.7616,-0.7456,-0.7348,-0.7028,-0.6869,-0.6655,-0.6495,-0.6391,-0.6443,-0.6655,-0.6707,-0.6812,-0.7025,-0.7292,-0.7399,-0.7292,-0.7079,-0.6761,-0.6549,-0.6337,-0.6337,-0.623,-0.6228,-0.6175,-0.6175,-0.6175,-0.6175,-0.6175,-0.6175,-0.6175,-0.6175,-0.6175,-0.6175,-0.6175,-0.6175,-0.6175,-0.6175,-0.6175,-0.6175,-0.6175,-0.6175,-0.6175,-0.6175,-2.4493,-2.4837,-2.4218,-2.4213,-2.4556,-2.3812,-2.3759,-2.4089,-2.3628,-2.2944,-2.227,-2.1361,-2.0894,-2.0636,-2.0151,-1.9426,-1.9199,-1.8114,-1.7748,-1.7509,-1.7171,-1.709,-1.7192,-1.7166,-1.6914,-1.6804,-1.7176,-1.7152,-1.6602,-1.689,-1.6982,-1.6926,-1.6839,-1.6368,-1.5806,-1.4956,-1.4078,-1.3779,-1.3695,-1.381,-1.3716,-1.3673,-1.3175,-1.2098,-1.2008,-1.1464,-1.0671,-1.0518,-1.0522,-1.0522,-1.0522,-1.0522,-1.0415,-1.0032,-0.9714,-0.9514,-0.9096,-0.8837,-0.8791,-0.885,-0.8906,-0.8804,-0.8808,-0.8752,-0.8699,-0.8752,-0.8804,-0.8695,-0.8371,-0.8206,-0.848,-0.8046,-0.7613,-0.7348,-0.7031,-0.6657,-0.6389,-0.6282,-0.623,-0.6284,-0.623,-0.6337,-0.6282,-0.6282,-0.6495,-0.6707,-0.6761,-0.6817,-0.6601,-0.644,-0.6282,-0.6175,-0.6175,-0.6175,-0.6175,-0.6175,-0.6175,-0.6175,-0.6175,-0.6175,-0.6175,-0.6175,-0.6175,-0.6175,-0.6175,-0.6175,-0.6175,-0.6175,-0.6175,-0.6175,-0.6175,-0.6175,-0.6175,-0.6175,-0.6175,-2.4557,-2.486,-2.3994,-2.4025,-2.4545,-2.3849,-2.3803,-2.4183,-2.4018,-2.3485,-2.2736,-2.2302,-2.1808,-2.1146,-2.0245,-1.979,-1.92,-1.8465,-1.8244,-1.8061,-1.7896,-1.7908,-1.8128,-1.8084,-1.771,-1.745,-1.7654,-1.7671,-1.6884,-1.7118,-1.7031,-1.7015,-1.7067,-1.657,-1.577,-1.4658,-1.4046,-1.402,-1.3973,-1.3921,-1.3815,-1.3515,-1.3079,-1.2049,-1.1859,-1.1364,-1.0718,-1.0522,-1.0522,-1.0522,-1.0522,-1.0522,-1.0308,-1.0039,-0.961,-0.9302,-0.8886,-0.8418,-0.8477,-0.8533,-0.8643,-0.8484,-0.8487,-0.8487,-0.854,-0.854,-0.8434,-0.8431,-0.8103,-0.8046,-0.8487,-0.7836,-0.7399,-0.7082,-0.719,-0.6923,-0.6495,-0.628,-0.623,-0.6232,-0.623,-0.6175,-0.6175,-0.6175,-0.6282,-0.644,-0.644,-0.6497,-0.6389,-0.6282,-0.6228,-0.6175,-0.6175,-0.6175,-0.6175,-0.6175,-0.6175,-0.6175,-0.6175,-0.6175,-0.6175,-0.6175,-0.6175,-0.6175,-0.6175,-0.6175,-0.6175,-0.6175,-0.6175,-0.6175,-0.6175,-0.6175,-0.6175,-0.6175,-0.6175,-2.5122,-2.5064,-2.4053,-2.4021,-2.4645,-2.4517,-2.4353,-2.4303,-2.4115,-2.3892,-2.3548,-2.3147,-2.2917,-2.2393,-2.0942,-2.0154,-1.9858,-1.9167,-1.8784,-1.8696,-1.8589,-1.8759,-1.8877,-1.8778,-1.8407,-1.8179,-1.8188,-1.8032,-1.734,-1.7297,-1.7073,-1.6814,-1.685,-1.671,-1.6182,-1.5197,-1.4444,-1.4062,-1.3915,-1.3863,-1.3615,-1.3213,-1.2628,-1.1954,-1.1615,-1.112,-1.0667,-1.0522,-1.0522,-1.0522,-1.0415,-1.036,-1.0308,-0.9629,-0.9204,-0.9096,-0.8424,-0.8008,-0.7955,-0.7955,-0.8005,-0.8058,-0.8115,-0.8115,-0.8008,-0.7958,-0.8065,-0.8115,-0.7952,-0.7788,-0.7628,-0.741,-0.7192,-0.7028,-0.7136,-0.7031,-0.6601,-0.644,-0.6389,-0.623,-0.623,-0.6175,-0.6175,-0.6175,-0.6175,-0.623,-0.623,-0.6175,-0.6175,-0.6175,-0.6175,-0.6175,-0.6175,-0.6175,-0.6175,-0.6175,-0.6175,-0.6175,-0.6175,-0.6175,-0.6121,-0.6066,-0.6066,-0.6121,-0.6119,-0.6007,-0.6119,-0.6175,-0.6175,-0.6175,-0.6175,-0.6175,-0.6175,-0.6175,-0.6175,-2.4691,-2.4984,-2.4103,-2.4091,-2.4557,-2.3985,-2.3959,-2.4317,-2.409,-2.3866,-2.3714,-2.3307,-2.31,-2.2585,-2.1661,-2.0763,-2.0584,-1.9788,-1.9329,-1.9572,-1.9206,-1.9364,-1.9441,-1.918,-1.8845,-1.8665,-1.8598,-1.8166,-1.7427,-1.7371,-1.7205,-1.7025,-1.646,-1.6188,-1.5738,-1.4983,-1.428,-1.4233,-1.4087,-1.3847,-1.3409,-1.3016,-1.2477,-1.161,-1.1372,-1.1027,-1.0569,-1.0522,-1.0518,-1.0411,-1.0253,-1.0087,-0.9936,-0.9256,-0.884,-0.8735,-0.8162,-0.7904,-0.7904,-0.7901,-0.7904,-0.7848,-0.7904,-0.7901,-0.7904,-0.7904,-0.7904,-0.7848,-0.7738,-0.7681,-0.7738,-0.7738,-0.7521,-0.7192,-0.7139,-0.6871,-0.6603,-0.6601,-0.6601,-0.6337,-0.6175,-0.6175,-0.6175,-0.6175,-0.6175,-0.6175,-0.6175,-0.6175,-0.6175,-0.6175,-0.6175,-0.6175,-0.6175,-0.6175,-0.6175,-0.6175,-0.6175,-0.6175,-0.6119,-0.6064,-0.6009,-0.5845,-0.5622,-0.5508,-0.5675,-0.5841,-0.5898,-0.6009,-0.6175,-0.6175,-0.6175,-0.6175,-0.6175,-0.6175,-0.6175,-2.4744,-2.4996,-2.4454,-2.4424,-2.464,-2.4058,-2.4074,-2.4327,-2.4005,-2.3796,-2.3732,-2.3476,-2.3241,-2.2791,-2.1953,-2.1257,-2.1126,-2.0419,-2.0047,-2.0305,-1.9824,-1.9861,-1.9842,-1.9476,-1.9037,-1.8864,-1.8493,-1.8014,-1.7516,-1.7365,-1.715,-1.6716,-1.6058,-1.5662,-1.526,-1.4777,-1.4228,-1.4134,-1.3842,-1.35,-1.3016,-1.2579,-1.2103,-1.1565,-1.1276,-1.0977,-1.0726,-1.062,-1.0514,-1.0249,-0.998,-0.9714,-0.9402,-0.904,-0.8626,-0.8471,-0.7999,-0.7574,-0.7303,-0.7246,-0.719,-0.7187,-0.7628,-0.7901,-0.7794,-0.7631,-0.7577,-0.7467,-0.7408,-0.7297,-0.7297,-0.7354,-0.7464,-0.7082,-0.7141,-0.6925,-0.6709,-0.6707,-0.6655,-0.6389,-0.6175,-0.6175,-0.6175,-0.6175,-0.6175,-0.6175,-0.6175,-0.6175,-0.6175,-0.6175,-0.6175,-0.6175,-0.6175,-0.6175,-0.6175,-0.6175,-0.6175,-0.6175,-0.6064,-0.5898,-0.5732,-0.5513,-0.5232,-0.5009,-0.5175,-0.5397,-0.5677,-0.5843,-0.6009,-0.6121,-0.6175,-0.6175,-0.6175,-0.6173,-0.6173,-2.5301,-2.5164,-2.5027,-2.4917,-2.4855,-2.4635,-2.451,-2.4294,-2.3978,-2.3825,-2.3792,-2.3759,-2.3481,-2.2961,-2.2062,-2.1559,-2.1329,-2.0908,-2.0763,-2.0716,-2.0495,-2.0456,-2.0128,-1.9707,-1.9163,-1.8719,-1.8305,-1.7908,-1.7509,-1.7269,-1.6976,-1.6466,-1.5674,-1.5271,-1.496,-1.4553,-1.414,-1.3899,-1.3505,-1.3112,-1.2623,-1.1999,-1.1769,-1.1427,-1.1221,-1.0972,-1.0769,-1.071,-1.0344,-1.0028,-0.9714,-0.9462,-0.9152,-0.8784,-0.8626,-0.8309,-0.7622,-0.7028,-0.6647,-0.6645,-0.6426,-0.6642,-0.7187,-0.7628,-0.7574,-0.7139,-0.7028,-0.681,-0.6642,-0.6423,-0.6258,-0.664,-0.6969,-0.7025,-0.73,-0.7085,-0.6761,-0.6652,-0.6603,-0.6445,-0.6284,-0.6175,-0.6175,-0.6175,-0.6119,-0.6175,-0.6175,-0.6064,-0.6064,-0.6173,-0.6175,-0.6175,-0.6175,-0.6175,-0.6175,-0.6175,-0.6064,-0.6009,-0.5843,-0.5677,-0.5456,-0.5122,-0.4791,-0.4624,-0.4787,-0.5009,-0.5342,-0.5622,-0.59,-0.6009,-0.5841,-0.6066,-0.6066,-0.6059,-0.6059,-2.498,-2.4418,-2.4812,-2.4945,-2.4818,-2.4639,-2.4462,-2.4303,-2.4186,-2.4058,-2.3804,-2.3799,-2.3528,-2.3074,-2.2591,-2.2244,-2.193,-2.1645,-2.1327,-2.116,-2.0879,-2.0581,-2.0135,-1.9639,-1.9117,-1.8647,-1.818,-1.776,-1.7371,-1.7115,-1.6808,-1.638,-1.554,-1.504,-1.4634,-1.4228,-1.3952,-1.3668,-1.3266,-1.2774,-1.2388,-1.1914,-1.1678,-1.1427,-1.1322,-1.1019,-1.0706,-1.0541,-1.0123,-0.9614,-0.9148,-0.8837,-0.8784,-0.8368,-0.8106,-0.8055,-0.7521,-0.7033,-0.681,-0.6428,-0.61,-0.6043,-0.6477,-0.6591,-0.6591,-0.6534,-0.6374,-0.6209,-0.6043,-0.588,-0.5878,-0.6095,-0.6315,-0.6477,-0.6696,-0.6701,-0.6431,-0.6379,-0.6327,-0.6168,-0.5952,-0.5952,-0.6007,-0.6007,-0.5952,-0.6119,-0.6119,-0.5952,-0.5952,-0.6007,-0.5952,-0.5952,-0.5952,-0.5898,-0.6064,-0.6064,-0.5952,-0.5841,-0.5565,-0.5234,-0.4844,-0.4512,-0.4293,-0.4293,-0.4403,-0.4679,-0.5007,-0.5287,-0.5565,-0.5344,-0.5232,-0.5622,-0.59,-0.5841,-0.5782,-2.4877,-2.4149,-2.4729,-2.4906,-2.4751,-2.4575,-2.4418,-2.4303,-2.4152,-2.3978,-2.3813,-2.3806,-2.3589,-2.3262,-2.2959,-2.2678,-2.2409,-2.1928,-2.1557,-2.1243,-2.0974,-2.0326,-1.9854,-1.9501,-1.8997,-1.8525,-1.8147,-1.7841,-1.7371,-1.6827,-1.6472,-1.6157,-1.5406,-1.4909,-1.4501,-1.4087,-1.3758,-1.342,-1.2977,-1.2486,-1.2152,-1.1923,-1.1623,-1.1528,-1.1418,-1.1057,-1.0541,-1.032,-0.9909,-0.9253,-0.8682,-0.8527,-0.8421,-0.8055,-0.7738,-0.7577,-0.7031,-0.6539,-0.6209,-0.5716,-0.5609,-0.5555,-0.5553,-0.5555,-0.5664,-0.5662,-0.5773,-0.5771,-0.5609,-0.5445,-0.5553,-0.566,-0.5714,-0.5767,-0.5934,-0.6154,-0.6102,-0.6048,-0.5889,-0.5727,-0.5618,-0.5618,-0.5618,-0.5673,-0.5673,-0.5563,-0.5508,-0.5454,-0.5508,-0.5675,-0.5563,-0.5506,-0.5508,-0.5563,-0.5732,-0.5786,-0.5563,-0.5287,-0.5011,-0.4679,-0.4233,-0.4072,-0.3967,-0.3967,-0.4019,-0.4294,-0.4622,-0.4844,-0.5067,-0.4846,-0.4791,-0.5122,-0.5346,-0.5348,-0.5289,-2.48,-2.3934,-2.4626,-2.4737,-2.4604,-2.4531,-2.4436,-2.4275,-2.4015,-2.3803,-2.3798,-2.3804,-2.3685,-2.3417,-2.3149,-2.2893,-2.2535,-2.2044,-2.1623,-2.1308,-2.0942,-2.0368,-1.9818,-1.942,-1.8997,-1.8436,-1.8049,-1.7841,-1.7386,-1.6801,-1.6163,-1.58,-1.5226,-1.4731,-1.428,-1.4004,-1.3626,-1.3142,-1.2749,-1.2255,-1.1864,-1.1569,-1.1418,-1.1569,-1.151,-1.1246,-1.0673,-1.0257,-0.9898,-0.9033,-0.8471,-0.8265,-0.8055,-0.7898,-0.7631,-0.7303,-0.6864,-0.6317,-0.5828,-0.5336,-0.4899,-0.4736,-0.4517,-0.468,-0.4954,-0.5117,-0.5226,-0.5228,-0.5064,-0.4954,-0.5007,-0.5117,-0.5169,-0.5279,-0.5443,-0.5557,-0.5614,-0.5559,-0.5447,-0.5285,-0.5287,-0.523,-0.523,-0.5287,-0.5342,-0.5066,-0.5011,-0.5011,-0.4956,-0.5232,-0.5232,-0.5064,-0.5175,-0.523,-0.5177,-0.5232,-0.5009,-0.4787,-0.4512,-0.4293,-0.4016,-0.3801,-0.3641,-0.3694,-0.3856,-0.3964,-0.4237,-0.4405,-0.4517,-0.4515,-0.4515,-0.4679,-0.4737,-0.4743,-0.4851,-2.4061,-2.3298,-2.385,-2.3964,-2.3877,-2.4414,-2.453,-2.4303,-2.4128,-2.3929,-2.3828,-2.3804,-2.3707,-2.3517,-2.3221,-2.296,-2.2598,-2.2064,-2.1645,-2.1276,-2.0942,-2.041,-1.9866,-1.9376,-1.8968,-1.8616,-1.8233,-1.7801,-1.7386,-1.6716,-1.6082,-1.5856,-1.5187,-1.4512,-1.4051,-1.3821,-1.353,-1.291,-1.2666,-1.2318,-1.1972,-1.1873,-1.1823,-1.1565,-1.1255,-1.0677,-1.0108,-0.9492,-0.9033,-0.8424,-0.8162,-0.8005,-0.7904,-0.7904,-0.7848,-0.7628,-0.7133,-0.6532,-0.5934,-0.5336,-0.4897,-0.457,-0.4462,-0.4462,-0.4572,-0.4624,-0.4679,-0.4682,-0.4627,-0.4517,-0.4517,-0.4625,-0.4736,-0.4844,-0.4954,-0.5011,-0.5069,-0.5011,-0.4897,-0.4899,-0.4846,-0.4846,-0.4846,-0.4846,-0.4901,-0.4901,-0.4956,-0.4846,-0.4512,-0.4568,-0.4736,-0.4679,-0.4897,-0.4899,-0.4846,-0.468,-0.4513,-0.4458,-0.4237,-0.4018,-0.3801,-0.3692,-0.3585,-0.3584,-0.3691,-0.3801,-0.3856,-0.3803,-0.3914,-0.4078,-0.4133,-0.4189,-0.4133,-0.4082,-0.4302,-2.3208,-2.2522,-2.2997,-2.3316,-2.3596,-2.4345,-2.4596,-2.4392,-2.4247,-2.408,-2.3937,-2.3846,-2.3741,-2.3576,-2.3268,-2.2909,-2.2581,-2.2064,-2.1532,-2.1135,-2.0844,-2.03,-1.9778,-1.9198,-1.8733,-1.8394,-1.7988,-1.7577,-1.7352,-1.6795,-1.6238,-1.585,-1.5006,-1.4378,-1.391,-1.3768,-1.3435,-1.2779,-1.273,-1.2475,-1.2126,-1.2026,-1.1828,-1.1418,-1.1053,-1.0427,-0.9758,-0.9141,-0.8735,-0.8321,-0.8058,-0.8058,-0.8008,-0.8065,-0.8011,-0.7788,-0.7405,-0.6912,-0.6261,-0.5662,-0.506,-0.4679,-0.4462,-0.4462,-0.4462,-0.457,-0.457,-0.4572,-0.4572,-0.4462,-0.4462,-0.4572,-0.4519,-0.4574,-0.4406,-0.4351,-0.4299,-0.4244,-0.4187,-0.4189,-0.4189,-0.4189,-0.4133,-0.4133,-0.4189,-0.419,-0.4299,-0.4408,-0.413,-0.4018,-0.4184,-0.4294,-0.446,-0.4406,-0.4189,-0.4133,-0.4076,-0.4019,-0.3964,-0.3856,-0.3694,-0.364,-0.3585,-0.3584,-0.3584,-0.364,-0.3641,-0.3585,-0.3585,-0.3805,-0.3751,-0.3697,-0.3585,-0.3585,-0.386,-2.2327,-2.165,-2.2106,-2.2704,-2.335,-2.4166,-2.4516,-2.4469,-2.4357,-2.421,-2.4056,-2.3867,-2.3825,-2.3624,-2.333,-2.2924,-2.2484,-2.2027,-2.1448,-2.099,-2.0835,-2.0119,-1.9404,-1.88,-1.8335,-1.7953,-1.7605,-1.7477,-1.7338,-1.674,-1.6182,-1.575,-1.5136,-1.4558,-1.3999,-1.3668,-1.3334,-1.2866,-1.2627,-1.2377,-1.2175,-1.1972,-1.1623,-1.1318,-1.1011,-1.0395,-0.9618,-0.9103,-0.8689,-0.848,-0.8112,-0.8002,-0.7952,-0.7952,-0.7732,-0.7568,-0.7241,-0.6696,-0.6154,-0.5609,-0.5062,-0.4679,-0.4517,-0.4462,-0.4462,-0.4462,-0.4462,-0.4462,-0.4462,-0.4462,-0.4462,-0.4462,-0.441,-0.4301,-0.4078,-0.3856,-0.3748,-0.3694,-0.3695,-0.3695,-0.3695,-0.3695,-0.364,-0.3638,-0.364,-0.3585,-0.3585,-0.3585,-0.3641,-0.3748,-0.3858,-0.3913,-0.3968,-0.3805,-0.3695,-0.3749,-0.3803,-0.3803,-0.3748,-0.3695,-0.3585,-0.3585,-0.3585,-0.3585,-0.3585,-0.3585,-0.3585,-0.3585,-0.3585,-0.3585,-0.3585,-0.3585,-0.3585,-0.3585,-0.353,-2.1435,-2.0537,-2.1234,-2.1955,-2.2673,-2.3413,-2.4008,-2.4439,-2.4357,-2.4219,-2.4066,-2.3887,-2.3719,-2.354,-2.3236,-2.2807,-2.2258,-2.1882,-2.1417,-2.0893,-2.0659,-1.9888,-1.9014,-1.825,-1.7817,-1.747,-1.7162,-1.7123,-1.7046,-1.6514,-1.5952,-1.5394,-1.4496,-1.3999,-1.3852,-1.3472,-1.3094,-1.272,-1.2475,-1.2224,-1.1623,-1.1368,-1.1099,-1.0639,-1.0024,-0.9458,-0.889,-0.8633,-0.853,-0.8374,-0.8271,-0.8052,-0.7839,-0.7732,-0.7512,-0.7133,-0.6807,-0.6431,-0.5884,-0.55,-0.5005,-0.457,-0.4462,-0.4462,-0.4462,-0.4462,-0.4462,-0.4462,-0.4462,-0.4462,-0.4462,-0.4462,-0.4408,-0.4299,-0.4133,-0.3912,-0.3748,-0.3694,-0.3638,-0.364,-0.3641,-0.3641,-0.3641,-0.3585,-0.3585,-0.3585,-0.3585,-0.3585,-0.3585,-0.3585,-0.3585,-0.3585,-0.3585,-0.3585,-0.3641,-0.3641,-0.3695,-0.3641,-0.3585,-0.3585,-0.3585,-0.3585,-0.3585,-0.3585,-0.3585,-0.3585,-0.3585,-0.3585,-0.3585,-0.3585,-0.3585,-0.3585,-0.3585,-0.3585,-0.3528]},{"header":{"parameterUnit":"m.s-1","parameterCategory":1,"la1":31.0,"la2":29.5877,"lo1":-88.7671,"lo2":-86.6584,"dy":0.0162,"dx":0.0185,"nx":115,"ny":88,"refTime":"2024-09-15T06:00:00:Z","depth":0,"parameterNumber":3,"parameterNumberName":"V-component_of_WINDS"},"data":[0.0,0.0,0.0,0.0,0.0,0.0,0.0,0.0,0.0,0.0,0.0,0.0,0.0,0.0,0.0,0.0,0.0,0.0,0.0,0.0,0.0,0.0,0.0,0.0,0.0,0.0,0.0,0.0,0.0,0.0,0.0,0.0,0.0,0.0,0.0,0.0,0.0,0.0,0.0,0.0,0.0,0.0,0.0,0.0,0.0,0.0,0.0,0.0,0.0,0.0,0.0,0.0,0.0,0.0,0.0,0.0,0.0,0.0,0.0,0.0,0.0,0.0,0.0,0.0,0.0,0.0,0.0,0.0,0.0,0.0,0.0,0.0,0.0,0.0,0.0,0.0,0.0,0.0,0.0,0.0,0.0,0.0,0.0,0.0,0.0,0.0,0.0,0.0,0.0,0.0,0.0,0.0,0.0,0.0,0.0,0.0,0.0,0.0,0.0,0.0,0.0,0.0,0.0,0.0,0.0,0.0,0.0,0.0,0.0,0.0,0.0,0.0,0.0,0.0,0.0,0.0,0.0,0.0,0.0,0.0,0.0,0.0,0.0,0.0,0.0,0.0,0.0,0.0,0.0,0.0,0.0,0.0,0.0,0.0,0.0,0.0,0.0,0.0,0.0,0.0,0.0,0.0,0.0,0.0,0.0,0.0,0.0,0.0,0.0,0.0,0.0,0.0,0.0,0.0,0.0,0.0,0.0,0.0,0.0,0.0,0.0,0.0,0.0,0.0,0.0,0.0,0.0,0.0,0.0,0.0,0.0,0.0,0.0,0.0,0.0,0.0,0.0,0.0,0.0,0.0,0.0,0.0,0.0,0.0,0.0,0.0,0.0,0.0,0.0,0.0,0.0,0.0,0.0,0.0,0.0,0.0,0.0,0.0,0.0,0.0,0.0,0.0,0.0,0.0,0.0,0.0,0.0,0.0,0.0,0.0,0.0,0.0,0.0,0.0,0.0,0.0,0.0,0.0,0.0,0.0,0.0,0.0,0.0,0.0,0.0,0.0,0.0,0.0,0.0,0.0,0.0,0.0,0.0,0.0,0.0,0.0,0.0,0.0,0.0,0.0,0.0,0.0,0.0,0.0,0.0,0.0,0.0,0.0,0.0,0.0,0.0,0.0,0.0,0.0,0.0,0.0,0.0,0.0,0.0,0.0,0.0,0.0,0.0,0.0,0.0,0.0,0.0,0.0,0.0,0.0,0.0,0.0,0.0,0.0,0.0,0.0,0.0,0.0,0.0,0.0,0.0,0.0,0.0,0.0,0.0,0.0,0.0,0.0,0.0,0.0,0.0,0.0,0.0,0.0,0.0,0.0,0.0,0.0,0.0,0.0,0.0,0.0,0.0,0.0,0.0,0.0,0.0,0.0,0.0,0.0,0.0,0.0,0.0,0.0,0.0,0.0,0.0,0.0,0.0,0.0,0.0,0.0,0.0,0.0,0.0,0.0,0.0,0.0,0.0,0.0,0.0,0.0,0.0,0.0,0.0,0.0,0.0,0.0,0.0,0.0,0.0,0.0,0.0,0.0,0.0,0.0,0.0,0.0,0.0,0.0,0.0,0.0,0.0,0.0,0.0,0.0,0.0,0.0,0.0,0.0,0.0,0.0,0.0,0.0,0.0,0.0,0.0,0.0,0.0,0.0,0.0,0.0,0.0,0.0,0.0,0.0,0.0,0.0,0.0,0.0,0.0,0.0,0.0,0.0,0.0,0.0,0.0,0.0,0.0,0.0,0.0,0.0,0.0,0.0,0.0,0.0,0.0,0.0,0.0,0.0,0.0,0.0,0.0,0.0,0.0,0.0,0.0,0.0,0.0,0.0,0.0,0.0,0.0,0.0,0.0,0.0,0.0,0.0,0.0,0.0,0.0,0.0,0.0,0.0,0.0,0.0,0.0,0.0,0.0,0.0,0.0,0.0,0.0,0.0,0.0,0.0,0.0,0.0,0.0,0.0,0.0,0.0,0.0,0.0,0.0,0.0,0.0,0.0,0.0,0.0,0.0,0.0,0.0,0.0,0.0,0.0,0.0,0.0,0.0,0.0,0.0,0.0,0.0,0.0,0.0,0.0,0.0,0.0,0.0,0.0,0.0,0.0,0.0,0.0,0.0,0.0,0.0,0.0,0.0,0.0,0.0,0.0,0.0,0.0,0.0,0.0,0.0,0.0,0.0,0.0,0.0,0.0,0.0,0.0,0.0,0.0,0.0,0.0,0.0,0.0,0.0,0.0,0.0,0.0,0.0,0.0,0.0,0.0,0.0,0.0,0.0,0.0,0.0,0.0,0.0,0.0,0.0,0.0,0.0,0.0,0.0,0.0,0.0,0.0,0.0,0.0,0.0,0.0,0.0,0.0,0.0,0.0,0.0,0.0,0.0,0.0,0.0,0.0,0.0,0.0,0.0,0.0,0.0,0.0,0.0,0.0,0.0,0.0,0.0,0.0,0.0,0.0,0.0,0.0,0.0,0.0,0.0,0.0,0.0,0.0,0.0,0.0,0.0,0.0,0.0,0.0,0.0,0.0,0.0,0.0,0.0,0.0,0.0,0.0,0.0,0.0,0.0,0.0,0.0,0.0,0.0,0.0,0.0,0.0,0.0,0.0,0.0,0.0,0.0,0.0,0.0,0.0,0.0,0.0,0.0,0.0,0.0,0.0,0.0,0.0,0.0,0.0,0.0,0.0,0.0,0.0,0.0,0.0,0.0,0.0,0.0,0.0,0.0,0.0,0.0,0.0,0.0,0.0,0.0,0.0,0.0,0.0,0.0,0.0,0.0,0.0,0.0,0.0,0.0,0.0,0.0,0.0,0.0,0.0,0.0,0.0,0.0,0.0,0.0,0.0,0.0,0.0,0.0,0.0,0.0,0.0,0.0,0.0,0.0,0.0,0.0,0.0,0.0,0.0,0.0,0.0,0.0,0.0,0.0,0.0,0.0,0.0,0.0,0.0,0.0,0.0,0.0,0.0,0.0,0.0,0.0,0.0,0.0,0.0,0.0,0.0,0.0,0.0,0.0,0.0,0.0,0.0,0.0,0.0,0.0,0.0,0.0,0.0,0.0,0.0,0.0,0.0,0.0,0.0,0.0,0.0,0.0,0.0,0.0,0.0,0.0,0.0,0.0,0.0,0.0,0.0,0.0,0.0,0.0,0.0,0.0,0.0,0.0,0.0,0.0,0.0,0.0,0.0,0.0,0.0,0.0,0.0,0.0,0.0,0.0,0.0,0.0,0.0,0.0,0.0,0.0,0.0,0.0,0.0,0.0,0.0,0.0,0.0,0.0,0.0,0.0,0.0,0.0,0.0,0.0,0.0,0.0,0.0,0.0,0.0,0.0,0.0,0.0,0.0,0.0,0.0,0.0,0.0,0.0,0.0,0.0,0.0,0.0,0.0,0.0,0.0,0.0,0.0,0.0,0.0,0.0,0.0,0.0,0.0,0.0,0.0,0.0,0.0,0.0,0.0,0.0,0.0,0.0,0.0,0.0,0.0,0.0,0.0,0.0,0.0,0.0,0.0,0.0,0.0,0.0,0.0,0.0,0.0,0.0,0.0,0.0,0.0,0.0,0.0,0.0,0.0,0.0,0.0,0.0,0.0,0.0,0.0,0.0,0.0,0.0,0.0,0.0,0.0,0.0,0.0,0.0,0.0,0.0,0.0,0.0,0.0,0.0,0.0,0.0,0.0,0.0,0.0,0.0,0.0,0.0,0.0,0.0,0.0,0.0,0.0,0.0,0.0,0.0,0.0,0.0,0.0,0.0,0.0,0.0,0.0,0.0,0.0,0.0,0.0,0.0,0.0,0.0,0.0,0.0,0.0,0.0,0.0,0.0,0.0,0.0,0.0,0.0,0.0,0.0,0.0,0.0,0.0,0.0,0.0,0.0,0.0,0.0,0.0,0.0,0.0,0.0,0.0,0.0,0.0,0.0,0.0,0.0,0.0,0.0,0.0,0.0,0.0,0.0,0.0,0.0,0.0,0.0,0.0,0.0,0.0,0.0,0.0,0.0,0.0,0.0,0.0,0.0,0.0,0.0,0.0,0.0,0.0,0.0,0.0,0.0,0.0,0.0,0.0,0.0,0.0,0.0,0.0,0.0,0.0,0.0,0.0,0.0,0.0,0.0,0.0,0.0,0.0,0.0,0.0,0.0,0.0,0.0,0.0,0.0,0.0,0.0,0.0,0.0,0.0,0.0,0.0,0.0,0.0,0.0,0.0,0.0,0.0,0.0,0.0,0.0,0.0,0.0,0.0,0.0,0.0,0.0,0.0,0.0,0.0,0.0,0.0,-0.7804,0.0,0.0,0.0,0.0,0.0,0.0,0.0,0.0,0.0,0.0,0.0,0.0,0.0,0.0,0.0,0.0,0.0,0.0,0.0,0.0,0.0,0.0,0.0,0.0,0.0,0.0,0.0,0.0,0.0,0.0,0.0,0.0,0.0,0.0,0.0,0.0,0.0,0.0,0.0,0.0,0.0,0.0,0.0,0.0,0.0,0.0,0.0,0.0,0.0,0.0,0.0,0.0,0.0,0.0,0.0,0.0,0.0,0.0,0.0,0.0,0.0,0.0,0.0,0.0,0.0,0.0,0.0,0.0,0.0,0.0,0.0,0.0,0.0,0.0,0.0,0.0,0.0,0.0,0.0,0.0,0.0,0.0,0.0,0.0,0.0,0.0,0.0,0.0,0.0,0.0,0.0,0.0,0.0,0.0,0.0,0.0,0.0,0.0,0.0,0.0,0.0,0.0,0.0,0.0,0.0,0.0,0.0,0.0,0.0,0.0,-0.8253,-0.7936,-0.7774,-0.7613,-0.7424,0.0,0.0,0.0,0.0,0.0,0.0,0.0,0.0,0.0,0.0,0.0,0.0,0.0,0.0,0.0,0.0,0.0,0.0,0.0,0.0,0.0,0.0,0.0,0.0,0.0,0.0,0.0,0.0,0.0,0.0,0.0,0.0,0.0,0.0,0.0,0.0,0.0,0.0,0.0,0.0,0.0,0.0,0.0,0.0,0.0,0.0,0.0,0.0,0.0,0.0,0.0,0.0,0.0,0.0,0.0,0.0,0.0,0.0,0.0,0.0,0.0,0.0,0.0,0.0,0.0,0.0,0.0,0.0,0.0,0.0,0.0,0.0,0.0,0.0,0.0,0.0,0.0,0.0,0.0,0.0,0.0,0.0,0.0,0.0,0.0,0.0,0.0,0.0,0.0,0.0,0.0,0.0,0.0,0.0,0.0,0.0,0.0,0.0,0.0,0.0,0.0,0.0,0.0,0.0,0.0,0.0,0.0,0.0,0.0,0.0,0.0,0.0,-0.7785,-0.7596,-0.732,0.0,0.0,0.0,0.0,0.0,0.0,0.0,0.0,0.0,0.0,0.0,0.0,0.0,0.0,0.0,0.0,0.0,0.0,0.0,0.0,0.0,0.0,0.0,0.0,0.0,0.0,0.0,0.0,0.0,0.0,0.0,0.0,0.0,0.0,0.0,0.0,0.0,0.0,0.0,0.0,0.0,0.0,0.0,0.0,0.0,0.0,0.0,0.0,0.0,0.0,0.0,0.0,0.0,0.0,0.0,0.0,0.0,0.0,0.0,0.0,0.0,0.0,0.0,0.0,0.0,0.0,0.0,0.0,0.0,0.0,0.0,0.0,0.0,0.0,0.0,0.0,0.0,0.0,0.0,0.0,0.0,0.0,0.0,0.0,0.0,0.0,0.0,0.0,0.0,0.0,0.0,0.0,0.0,0.0,0.0,0.0,0.0,0.0,0.0,0.0,0.0,0.0,0.0,0.0,0.0,0.0,0.0,0.0,0.0,0.0,-0.8034,-0.8228,-0.8239,0.0,-0.7937,0.0,0.0,0.0,0.0,0.0,0.0,0.0,0.0,0.0,0.0,0.0,0.0,0.0,0.0,0.0,0.0,0.0,0.0,0.0,0.0,0.0,0.0,0.0,0.0,0.0,0.0,0.0,0.0,0.0,0.0,0.0,0.0,0.0,0.0,0.0,0.0,0.0,0.0,0.0,0.0,0.0,0.0,0.0,0.0,0.0,0.0,0.0,0.0,0.0,0.0,0.0,0.0,0.0,0.0,0.0,0.0,0.0,0.0,0.0,0.0,0.0,0.0,0.0,0.0,0.0,0.0,0.0,0.0,0.0,0.0,0.0,0.0,0.0,0.0,0.0,0.0,0.0,0.0,0.0,0.0,0.0,0.0,0.0,0.0,0.0,0.0,0.0,0.0,0.0,0.0,0.0,0.0,0.0,0.0,0.0,0.0,0.0,0.0,0.0,0.0,0.0,0.0,0.0,0.0,0.0,0.0,0.0,0.0,0.0,0.0,-0.8349,-0.8307,-0.8113,-0.7957,0.0,0.0,0.0,0.0,0.0,0.0,0.0,0.0,0.0,0.0,0.0,0.0,0.0,0.0,0.0,0.0,0.0,0.0,0.0,0.0,0.0,0.0,0.0,0.0,0.0,0.0,0.0,0.0,0.0,0.0,0.0,0.0,0.0,0.0,0.0,0.0,0.0,0.0,0.0,0.0,0.0,0.0,0.0,0.0,0.0,0.0,0.0,0.0,0.0,0.0,0.0,0.0,0.0,0.0,0.0,0.0,0.0,0.0,0.0,0.0,0.0,0.0,0.0,0.0,0.0,0.0,0.0,0.0,0.0,0.0,0.0,0.0,0.0,0.0,0.0,0.0,0.0,0.0,0.0,0.0,0.0,0.0,0.0,0.0,0.0,0.0,0.0,0.0,0.0,0.0,0.0,0.0,0.0,0.0,0.0,0.0,0.0,0.0,0.0,0.0,0.0,0.0,0.0,0.0,0.0,0.0,0.0,0.0,0.0,0.0,-0.8653,-0.8648,-0.8567,-0.8232,-0.7982,-0.7854,0.0,0.0,0.0,0.0,0.0,0.0,0.0,0.0,0.0,0.0,0.0,0.0,0.0,0.0,0.0,0.0,0.0,0.0,0.0,0.0,0.0,0.0,0.0,0.0,0.0,0.0,0.0,0.0,0.0,0.0,0.0,0.0,0.0,0.0,0.0,0.0,0.0,0.0,0.0,0.0,0.0,0.0,0.0,0.0,0.0,0.0,0.0,0.0,0.0,0.0,0.0,0.0,0.0,0.0,0.0,0.0,0.0,0.0,0.0,0.0,0.0,0.0,0.0,0.0,0.0,0.0,0.0,0.0,0.0,0.0,0.0,0.0,0.0,0.0,0.0,0.0,0.0,0.0,0.0,0.0,0.0,0.0,0.0,0.0,0.0,0.0,0.0,0.0,0.0,0.0,0.0,0.0,0.0,0.0,0.0,0.0,0.0,0.0,0.0,0.0,0.0,0.0,0.0,0.0,0.0,0.0,0.0,0.0,0.0,-0.9018,-0.8806,-0.9234,-0.8853,-0.8452,0.0,0.0,0.0,0.0,0.0,0.0,0.0,0.0,0.0,0.0,0.0,0.0,0.0,0.0,0.0,0.0,0.0,0.0,0.0,0.0,0.0,0.0,0.0,0.0,0.0,0.0,0.0,0.0,0.0,0.0,0.0,0.0,0.0,0.0,0.0,0.0,0.0,0.0,0.0,0.0,0.0,0.0,0.0,0.0,0.0,0.0,0.0,0.0,0.0,0.0,0.0,0.0,0.0,0.0,0.0,0.0,0.0,0.0,0.0,0.0,0.0,0.0,0.0,0.0,0.0,0.0,0.0,0.0,0.0,0.0,0.0,0.0,0.0,0.0,0.0,0.0,0.0,0.0,0.0,0.0,0.0,0.0,0.0,0.0,0.0,0.0,0.0,0.0,0.0,0.0,0.0,0.0,0.0,0.0,0.0,0.0,0.0,0.0,0.0,0.0,0.0,0.0,0.0,0.0,0.0,0.0,0.0,0.0,0.0,-0.8758,-0.8521,-0.8848,-0.9736,-0.8718,-0.8272,0.0,0.0,0.0,0.0,0.0,0.0,0.0,0.0,0.0,0.0,0.0,0.0,0.0,0.0,0.0,0.0,0.0,0.0,0.0,0.0,0.0,0.0,0.0,0.0,0.0,0.0,0.0,0.0,0.0,0.0,0.0,0.0,0.0,0.0,0.0,0.0,0.0,0.0,0.0,0.0,0.0,0.0,0.0,0.0,0.0,0.0,0.0,0.0,0.0,0.0,0.0,0.0,0.0,0.0,0.0,0.0,0.0,0.0,0.0,0.0,0.0,0.0,0.0,0.0,0.0,0.0,0.0,0.0,0.0,0.0,0.0,0.0,0.0,0.0,0.0,0.0,0.0,0.0,0.0,0.0,0.0,0.0,0.0,0.0,0.0,0.0,0.0,0.0,0.0,0.0,0.0,0.0,0.0,0.0,0.0,0.0,0.0,0.0,0.0,0.0,0.0,0.0,0.0,0.0,0.0,0.0,0.0,0.0,0.0,-0.8583,0.0,-0.9248,0.0,-0.8718,-0.8159,0.0,0.0,0.0,0.0,0.0,0.0,0.0,0.0,0.0,0.0,0.0,0.0,0.0,0.0,0.0,0.0,0.0,0.0,0.0,0.0,0.0,0.0,0.0,0.0,0.0,0.0,0.0,0.0,0.0,0.0,0.0,0.0,0.0,0.0,0.0,0.0,0.0,0.0,0.0,0.0,0.0,0.0,0.0,0.0,0.0,0.0,0.0,0.0,0.0,0.0,0.0,0.0,0.0,0.0,0.0,0.0,0.0,0.0,0.0,0.0,0.0,0.0,0.0,0.0,0.0,0.0,0.0,0.0,0.0,0.0,0.0,0.0,0.0,0.0,0.0,0.0,0.0,0.0,0.0,0.0,0.0,0.0,0.0,0.0,0.0,0.0,0.0,0.0,0.0,0.0,0.0,0.0,0.0,0.0,0.0,0.0,0.0,0.0,0.0,0.0,0.0,0.0,0.0,0.0,0.0,0.0,0.0,0.0,-0.8457,-0.9537,-1.0004,-0.9924,-0.9361,-0.8914,-0.8109,0.0,0.0,0.0,0.0,0.0,0.0,0.0,0.0,0.0,0.0,0.0,0.0,0.0,0.0,0.0,0.0,0.0,0.0,0.0,0.0,0.0,0.0,0.0,0.0,0.0,0.0,0.0,0.0,0.0,0.0,0.0,0.0,0.0,0.0,0.0,0.0,0.0,0.0,0.0,0.0,0.0,0.0,0.0,0.0,0.0,0.0,0.0,0.0,0.0,0.0,0.0,0.0,0.0,0.0,0.0,0.0,0.0,0.0,0.0,0.0,0.0,0.0,0.0,0.0,0.0,0.0,0.0,0.0,0.0,0.0,0.0,0.0,0.0,0.0,0.0,0.0,0.0,0.0,0.0,0.0,0.0,0.0,0.0,0.0,0.0,0.0,0.0,0.0,0.0,0.0,0.0,0.0,0.0,0.0,0.0,0.0,0.0,0.0,0.0,0.0,0.0,0.0,0.0,0.0,0.0,0.0,0.0,0.0,0.0,-0.8915,-0.9378,-0.998,-1.0714,-0.9168,-0.8583,0.0,0.0,0.0,0.0,0.0,0.0,0.0,0.0,0.0,0.0,0.0,0.0,0.0,0.0,0.0,0.0,0.0,0.0,0.0,0.0,0.0,0.0,0.0,0.0,0.0,0.0,0.0,0.0,0.0,0.0,0.0,0.0,0.0,0.0,0.0,0.0,0.0,0.0,0.0,0.0,0.0,0.0,0.0,0.0,0.0,0.0,0.0,0.0,0.0,0.0,0.0,0.0,0.0,0.0,0.0,0.0,0.0,0.0,0.0,0.0,0.0,0.0,0.0,0.0,0.0,0.0,0.0,0.0,0.0,0.0,0.0,0.0,0.0,0.0,0.0,0.0,0.0,0.0,0.0,0.0,0.0,0.0,0.0,0.0,0.0,0.0,0.0,0.0,0.0,0.0,0.0,0.0,0.0,0.0,0.0,0.0,0.0,0.0,0.0,0.0,0.0,0.0,0.0,0.0,0.0,0.0,0.0,0.0,0.0,-0.9715,-1.0189,-1.0793,-1.1504,-0.9831,-0.9074,-0.9387,0.0,0.0,0.0,0.0,0.0,0.0,0.0,0.0,0.0,0.0,0.0,0.0,0.0,0.0,0.0,0.0,0.0,0.0,0.0,0.0,0.0,0.0,0.0,0.0,0.0,0.0,0.0,0.0,0.0,0.0,0.0,0.0,0.0,0.0,0.0,0.0,0.0,0.0,0.0,0.0,0.0,0.0,0.0,0.0,0.0,0.0,0.0,0.0,0.0,0.0,0.0,0.0,0.0,0.0,0.0,0.0,0.0,0.0,0.0,0.0,0.0,0.0,0.0,0.0,0.0,0.0,0.0,0.0,0.0,0.0,0.0,0.0,0.0,0.0,0.0,0.0,0.0,0.0,0.0,0.0,0.0,0.0,0.0,0.0,0.0,0.0,0.0,0.0,0.0,0.0,0.0,0.0,0.0,0.0,0.0,0.0,0.0,0.0,0.0,0.0,0.0,0.0,0.0,0.0,0.0,0.0,0.0,0.0,-1.154,-1.2178,-1.219,-1.1627,-1.0771,-0.9624,0.0,0.0,0.0,0.0,0.0,0.0,0.0,0.0,0.0,0.0,0.0,0.0,0.0,0.0,0.0,0.0,0.0,0.0,0.0,0.0,0.0,0.0,0.0,0.0,0.0,0.0,0.0,0.0,0.0,0.0,0.0,0.0,0.0,0.0,0.0,0.0,0.0,0.0,0.0,0.0,0.0,0.0,0.0,0.0,0.0,0.0,0.0,0.0,0.0,0.0,0.0,0.0,0.0,0.0,0.0,0.0,0.0,0.0,0.0,0.0,0.0,0.0,0.0,0.0,0.0,0.0,0.0,0.0,0.0,0.0,0.0,0.0,0.0,0.0,0.0,0.0,0.0,0.0,0.0,0.0,0.0,0.0,0.0,0.0,0.0,0.0,0.0,0.0,0.0,0.0,0.0,0.0,0.0,0.0,0.0,0.0,0.0,0.0,0.0,0.0,0.0,0.0,0.0,0.0,0.0,0.0,0.0,0.0,0.0,-1.2149,-1.3218,-1.352,-1.2892,-1.1321,-1.0192,0.0,0.0,0.0,0.0,0.0,0.0,0.0,0.0,0.0,0.0,0.0,0.0,0.0,0.0,0.0,0.0,0.0,0.0,0.0,0.0,0.0,0.0,0.0,0.0,0.0,0.0,0.0,0.0,0.0,0.0,0.0,0.0,0.0,0.0,0.0,0.0,0.0,0.0,0.0,0.0,0.0,0.0,0.0,0.0,0.0,0.0,0.0,0.0,0.0,0.0,0.0,0.0,0.0,0.0,0.0,0.0,0.0,0.0,0.0,0.0,0.0,0.0,0.0,0.0,0.0,0.0,0.0,0.0,0.0,0.0,0.0,0.0,0.0,0.0,0.0,0.0,0.0,0.0,0.0,0.0,0.0,0.0,0.0,0.0,0.0,0.0,0.0,0.0,0.0,0.0,0.0,0.0,0.0,0.0,0.0,0.0,0.0,0.0,0.0,0.0,0.0,0.0,0.0,0.0,0.0,0.0,0.0,0.0,-1.2052,-1.3581,-1.4348,-1.4565,-1.4188,-1.2584,-1.1246,0.0,0.0,0.0,0.0,0.0,0.0,0.0,0.0,0.0,0.0,0.0,0.0,0.0,0.0,0.0,0.0,0.0,0.0,0.0,0.0,0.0,0.0,0.0,0.0,0.0,0.0,0.0,0.0,0.0,0.0,0.0,0.0,0.0,0.0,0.0,0.0,0.0,0.0,0.0,0.0,0.0,0.0,0.0,0.0,0.0,0.0,0.0,0.0,0.0,0.0,0.0,0.0,0.0,0.0,0.0,0.0,0.0,0.0,0.0,0.0,0.0,0.0,0.0,0.0,0.0,0.0,0.0,0.0,0.0,0.0,0.0,0.0,0.0,0.0,0.0,0.0,0.0,0.0,0.0,0.0,0.0,0.0,0.0,0.0,0.0,0.0,0.0,0.0,0.0,0.0,0.0,0.0,0.0,0.0,0.0,0.0,0.0,0.0,0.0,0.0,0.0,0.0,0.0,0.0,0.0,0.0,0.0,0.0,-1.338,-1.5066,-1.5313,-1.5333,-1.5246,-1.3985,-1.2322,0.0,0.0,0.0,0.0,0.0,0.0,0.0,0.0,0.0,0.0,0.0,0.0,0.0,0.0,0.0,0.0,0.0,0.0,0.0,0.0,0.0,0.0,0.0,0.0,0.0,0.0,0.0,0.0,0.0,0.0,0.0,0.0,0.0,0.0,0.0,0.0,0.0,0.0,0.0,0.0,0.0,0.0,0.0,0.0,0.0,0.0,0.0,0.0,0.0,0.0,0.0,0.0,0.0,0.0,0.0,0.0,0.0,0.0,0.0,0.0,0.0,0.0,0.0,0.0,0.0,0.0,0.0,0.0,0.0,0.0,0.0,0.0,0.0,0.0,0.0,0.0,0.0,0.0,0.0,0.0,0.0,0.0,0.0,0.0,0.0,0.0,0.0,0.0,0.0,0.0,0.0,0.0,0.0,0.0,0.0,0.0,0.0,0.0,0.0,0.0,0.0,0.0,0.0,0.0,0.0,0.0,0.0,0.0,-1.3521,-1.3823,-1.524,-1.5753,-1.5222,-1.3537,-1.1858,0.0,0.0,0.0,0.0,0.0,0.0,0.0,0.0,0.0,0.0,0.0,0.0,0.0,0.0,0.0,0.0,0.0,0.0,0.0,0.0,0.0,0.0,0.0,0.0,0.0,0.0,0.0,0.0,0.0,0.0,0.0,0.0,0.0,0.0,0.0,0.0,0.0,0.0,0.0,0.0,0.0,0.0,0.0,0.0,0.0,0.0,0.0,0.0,-0.8111,0.0,0.0,0.0,0.0,0.0,0.0,0.0,0.0,0.0,0.0,0.0,0.0,0.0,0.0,0.0,0.0,0.0,0.0,0.0,0.0,0.0,0.0,0.0,0.0,0.0,0.0,0.0,0.0,0.0,0.0,0.0,0.0,0.0,0.0,0.0,0.0,0.0,0.0,0.0,0.0,0.0,0.0,0.0,0.0,0.0,0.0,0.0,0.0,0.0,0.0,0.0,0.0,0.0,0.0,0.0,0.0,0.0,0.0,0.0,-1.3916,-1.4718,-1.537,-1.5715,-1.5566,-1.4026,-1.2428,0.0,0.0,0.0,0.0,0.0,0.0,0.0,0.0,0.0,0.0,0.0,0.0,0.0,0.0,0.0,0.0,0.0,0.0,0.0,0.0,0.0,0.0,0.0,0.0,0.0,0.0,0.0,0.0,0.0,0.0,0.0,0.0,0.0,0.0,0.0,0.0,0.0,0.0,0.0,0.0,0.0,0.0,0.0,0.0,0.0,0.0,0.0,0.0,0.0,0.0,0.0,0.0,0.0,0.0,0.0,0.0,0.0,0.0,0.0,0.0,0.0,0.0,0.0,0.0,0.0,0.0,0.0,0.0,0.0,0.0,0.0,0.0,0.0,0.0,0.0,0.0,0.0,0.0,0.0,0.0,0.0,0.0,0.0,0.0,0.0,0.0,0.0,0.0,0.0,0.0,0.0,0.0,0.0,0.0,0.0,0.0,0.0,0.0,0.0,0.0,0.0,0.0,0.0,0.0,0.0,0.0,0.0,-1.2848,-1.4295,-1.5966,-1.5592,-1.5538,-1.5909,-1.4727,-1.3207,-1.1347,0.0,0.0,0.0,0.0,0.0,0.0,0.0,0.0,0.0,0.0,0.0,0.0,0.0,0.0,0.0,0.0,0.0,0.0,0.0,0.0,0.0,0.0,0.0,0.0,0.0,0.0,0.0,0.0,0.0,0.0,0.0,0.0,0.0,0.0,0.0,0.0,0.0,0.0,-0.8491,-0.8996,0.0,0.0,0.0,0.0,0.0,0.0,0.0,0.0,-0.9281,0.0,0.0,0.0,0.0,0.0,0.0,0.0,0.0,0.0,0.0,0.0,0.0,0.0,0.0,0.0,0.0,0.0,0.0,0.0,0.0,0.0,0.0,0.0,0.0,0.0,0.0,0.0,0.0,0.0,0.0,0.0,0.0,0.0,0.0,0.0,0.0,0.0,0.0,0.0,0.0,0.0,0.0,0.0,0.0,0.0,0.0,0.0,0.0,0.0,0.0,0.0,0.0,0.0,0.0,0.0,0.0,-1.2566,-1.3285,-1.4247,-1.5422,-1.5792,-1.5729,-1.5177,-1.4432,-1.3133,-1.131,0.0,0.0,0.0,0.0,0.0,0.0,0.0,0.0,0.0,0.0,0.0,0.0,0.0,0.0,0.0,0.0,0.0,0.0,0.0,0.0,0.0,0.0,0.0,0.0,0.0,0.0,0.0,0.0,0.0,0.0,0.0,0.0,0.0,0.0,0.0,0.0,0.0,0.0,0.0,-0.9858,-0.9899,0.0,0.0,0.0,0.0,0.0,0.0,0.0,0.0,-0.9762,0.0,0.0,0.0,0.0,0.0,0.0,0.0,0.0,0.0,0.0,0.0,0.0,0.0,0.0,0.0,0.0,0.0,0.0,0.0,0.0,0.0,0.0,0.0,0.0,0.0,0.0,0.0,0.0,0.0,0.0,0.0,0.0,0.0,0.0,0.0,0.0,0.0,0.0,0.0,0.0,0.0,0.0,0.0,0.0,0.0,0.0,0.0,0.0,0.0,0.0,0.0,0.0,0.0,0.0,0.0,-1.1593,-1.298,-1.4025,-1.4703,-1.5307,-1.5425,-1.4966,-1.4012,-1.2807,0.0,0.0,0.0,0.0,0.0,0.0,0.0,0.0,0.0,0.0,0.0,0.0,0.0,0.0,0.0,0.0,0.0,0.0,0.0,0.0,0.0,0.0,0.0,0.0,0.0,0.0,0.0,0.0,0.0,0.0,0.0,0.0,0.0,0.0,0.0,0.0,0.0,0.0,0.0,0.0,-1.0688,-1.0927,-1.0501,0.0,0.0,0.0,0.0,0.0,0.0,-1.1087,-1.0734,0.0,0.0,0.0,0.0,0.0,0.0,0.0,0.0,0.0,0.0,0.0,0.0,0.0,0.0,0.0,0.0,0.0,0.0,0.0,0.0,0.0,0.0,0.0,0.0,0.0,0.0,0.0,0.0,0.0,0.0,0.0,0.0,0.0,0.0,0.0,0.0,0.0,0.0,0.0,0.0,0.0,0.0,0.0,0.0,0.0,0.0,0.0,0.0,0.0,0.0,0.0,0.0,0.0,0.0,0.0,-1.0579,-1.2316,-1.3488,-1.4038,-1.4559,-1.4707,-1.4536,-1.3473,-1.2316,0.0,0.0,0.0,0.0,0.0,0.0,0.0,0.0,0.0,0.0,0.0,0.0,0.0,0.0,0.0,0.0,0.0,0.0,0.0,0.0,0.0,0.0,0.0,0.0,0.0,0.0,0.0,0.0,0.0,0.0,0.0,0.0,0.0,0.0,0.0,0.0,0.0,0.0,0.0,0.0,0.0,-1.2342,-1.1663,-1.189,0.0,0.0,0.0,0.0,-1.2449,-1.2423,0.0,0.0,0.0,0.0,0.0,0.0,0.0,0.0,0.0,0.0,0.0,0.0,0.0,0.0,0.0,0.0,0.0,0.0,0.0,0.0,0.0,0.0,0.0,0.0,0.0,0.0,0.0,0.0,0.0,0.0,0.0,0.0,0.0,0.0,0.0,0.0,0.0,0.0,0.0,0.0,0.0,0.0,0.0,0.0,0.0,0.0,0.0,0.0,0.0,0.0,0.0,0.0,0.0,0.0,0.0,0.0,-1.0644,-1.1329,-1.2296,-1.3497,-1.3471,-1.3413,-1.3378,-1.2621,-1.1687,0.0,0.0,0.0,0.0,0.0,0.0,0.0,0.0,0.0,0.0,0.0,0.0,0.0,0.0,0.0,0.0,0.0,0.0,0.0,0.0,0.0,0.0,0.0,0.0,0.0,0.0,0.0,0.0,0.0,0.0,0.0,0.0,0.0,0.0,0.0,0.0,0.0,0.0,0.0,0.0,0.0,-1.453,-1.1883,-1.3475,-1.4241,0.0,0.0,-1.4691,-1.4625,-1.516,0.0,0.0,0.0,0.0,0.0,0.0,0.0,0.0,0.0,0.0,0.0,0.0,0.0,0.0,0.0,0.0,0.0,0.0,0.0,0.0,0.0,0.0,0.0,0.0,0.0,0.0,0.0,0.0,0.0,0.0,0.0,0.0,0.0,0.0,0.0,0.0,0.0,0.0,0.0,0.0,0.0,0.0,0.0,0.0,0.0,0.0,0.0,0.0,0.0,0.0,0.0,0.0,0.0,0.0,0.0,-0.966,-1.004,-1.1373,-1.2303,-1.2759,-1.3075,-1.319,-1.3082,-1.1832,-1.0884,0.0,0.0,0.0,0.0,0.0,0.0,0.0,0.0,0.0,0.0,0.0,0.0,0.0,0.0,0.0,0.0,0.0,0.0,0.0,0.0,0.0,0.0,0.0,0.0,0.0,0.0,0.0,0.0,0.0,0.0,0.0,0.0,0.0,0.0,0.0,0.0,0.0,0.0,0.0,0.0,0.0,0.0,-1.4712,-1.5066,0.0,0.0,0.0,-1.5712,-1.6248,0.0,0.0,0.0,0.0,0.0,0.0,0.0,0.0,0.0,0.0,0.0,0.0,0.0,0.0,0.0,0.0,0.0,0.0,0.0,0.0,0.0,0.0,0.0,0.0,0.0,0.0,0.0,0.0,0.0,0.0,0.0,0.0,0.0,0.0,0.0,0.0,0.0,0.0,0.0,0.0,0.0,0.0,0.0,0.0,0.0,0.0,0.0,0.0,0.0,0.0,0.0,0.0,0.0,0.0,0.0,0.0,0.0,-0.9632,-1.1403,-1.2249,-1.204,-1.2542,-1.2722,-1.2545,-1.1163,0.0,0.0,0.0,0.0,0.0,0.0,0.0,0.0,0.0,0.0,0.0,0.0,0.0,0.0,0.0,0.0,0.0,0.0,0.0,0.0,0.0,0.0,0.0,0.0,0.0,0.0,0.0,-0.8516,0.0,0.0,0.0,0.0,0.0,0.0,0.0,0.0,0.0,0.0,0.0,0.0,0.0,0.0,-1.6015,-1.6986,-1.6735,-1.6636,0.0,0.0,-1.6933,-1.7314,-1.7111,-1.6378,0.0,0.0,0.0,0.0,0.0,0.0,0.0,0.0,0.0,0.0,0.0,0.0,0.0,0.0,0.0,0.0,0.0,0.0,0.0,0.0,0.0,0.0,0.0,0.0,0.0,0.0,0.0,0.0,0.0,0.0,0.0,0.0,0.0,0.0,0.0,0.0,0.0,0.0,0.0,0.0,0.0,0.0,0.0,0.0,0.0,0.0,0.0,0.0,0.0,0.0,0.0,0.0,0.0,0.0,0.0,-0.9915,-1.1047,-1.1644,-1.1562,-1.1523,-1.1498,-1.1422,-1.0771,-1.0139,0.0,0.0,0.0,0.0,0.0,0.0,0.0,0.0,0.0,0.0,0.0,0.0,0.0,0.0,0.0,0.0,0.0,0.0,0.0,0.0,0.0,0.0,0.0,0.0,0.0,0.0,0.0,0.0,0.0,0.0,0.0,0.0,0.0,0.0,0.0,0.0,0.0,0.0,0.0,0.0,0.0,-1.7674,-1.7189,-1.8523,-1.9231,0.0,0.0,-1.8866,-1.7689,-1.8437,-1.793,-1.4363,0.0,0.0,0.0,0.0,0.0,0.0,0.0,0.0,0.0,0.0,0.0,0.0,0.0,0.0,0.0,0.0,0.0,0.0,0.0,0.0,0.0,0.0,0.0,0.0,0.0,0.0,0.0,0.0,0.0,0.0,0.0,0.0,0.0,0.0,0.0,0.0,0.0,0.0,0.0,0.0,0.0,0.0,0.0,0.0,0.0,0.0,0.0,0.0,0.0,0.0,0.0,0.0,0.0,-0.9614,-0.9617,-1.0728,-1.1315,-1.1315,-1.1277,-1.1254,-1.1231,-1.0641,-1.0036,0.0,0.0,0.0,0.0,0.0,0.0,0.0,0.0,0.0,0.0,0.0,0.0,0.0,0.0,0.0,0.0,0.0,0.0,0.0,0.0,0.0,0.0,0.0,0.0,0.0,0.0,0.0,0.0,-0.8399,-0.8424,-0.8868,0.0,0.0,0.0,0.0,0.0,0.0,0.0,0.0,0.0,0.0,-1.7852,-1.8912,-1.9525,0.0,0.0,-1.9917,-1.9584,-1.9182,-1.8661,-1.7499,-1.5033,-1.4355,0.0,0.0,0.0,0.0,0.0,0.0,0.0,0.0,0.0,0.0,0.0,0.0,0.0,0.0,0.0,0.0,0.0,0.0,0.0,0.0,0.0,0.0,0.0,0.0,0.0,0.0,0.0,0.0,0.0,0.0,0.0,0.0,0.0,0.0,0.0,0.0,0.0,0.0,0.0,0.0,0.0,0.0,0.0,0.0,0.0,0.0,0.0,0.0,0.0,0.0,0.0,0.0,-0.9664,-0.9724,-1.0713,-1.1301,-1.1478,-1.1308,-1.1239,-1.1187,-1.0612,-1.0087,0.0,0.0,0.0,0.0,0.0,0.0,0.0,0.0,0.0,0.0,0.0,0.0,0.0,0.0,0.0,0.0,0.0,0.0,0.0,0.0,0.0,0.0,0.0,0.0,0.0,0.0,0.0,0.0,-0.8887,-0.8874,-0.8524,0.0,0.0,0.0,0.0,0.0,0.0,0.0,0.0,0.0,0.0,-1.841,-2.0329,-2.0411,-2.0556,-2.1274,-2.0755,-2.0119,-1.9819,-1.901,-1.7666,-1.5619,0.0,0.0,0.0,0.0,0.0,0.0,0.0,0.0,0.0,0.0,0.0,0.0,0.0,0.0,0.0,0.0,0.0,0.0,0.0,0.0,0.0,0.0,0.0,0.0,0.0,0.0,0.0,-0.7299,0.0,0.0,-0.7595,0.0,0.0,0.0,0.0,0.0,0.0,0.0,0.0,0.0,0.0,0.0,0.0,0.0,0.0,0.0,0.0,0.0,0.0,0.0,0.0,0.0,0.0,-1.0203,-1.0456,-1.1111,-1.1664,-1.2028,-1.1568,-1.1254,-1.1194,-1.0612,-1.0264,-1.0165,0.0,0.0,0.0,0.0,0.0,0.0,0.0,0.0,0.0,0.0,0.0,0.0,0.0,0.0,0.0,0.0,0.0,0.0,0.0,0.0,0.0,0.0,0.0,0.0,0.0,0.0,-0.8705,-0.9282,-0.9337,0.0,0.0,0.0,0.0,0.0,0.0,0.0,0.0,0.0,0.0,-1.7787,-1.9649,-2.1074,-2.1331,-2.1346,-2.1378,-2.115,-2.0534,-1.9281,-1.9533,-1.8949,0.0,0.0,0.0,0.0,0.0,0.0,0.0,0.0,0.0,0.0,0.0,0.0,0.0,0.0,0.0,0.0,0.0,0.0,0.0,0.0,0.0,0.0,0.0,0.0,0.0,0.0,0.0,-0.7604,-0.7702,0.0,0.0,0.0,0.0,0.0,0.0,0.0,0.0,0.0,0.0,0.0,-0.9504,-1.0071,0.0,0.0,0.0,0.0,0.0,0.0,0.0,0.0,0.0,0.0,0.0,0.0,-0.9769,-0.9801,-1.072,-1.1291,-1.1435,-1.1245,-1.1155,-1.1132,-1.0941,-1.0638,-1.0207,0.0,0.0,0.0,0.0,0.0,0.0,0.0,0.0,0.0,0.0,0.0,0.0,0.0,0.0,0.0,0.0,0.0,0.0,0.0,0.0,0.0,0.0,0.0,0.0,0.0,-0.8791,0.0,0.0,0.0,0.0,0.0,0.0,0.0,0.0,0.0,0.0,0.0,-1.4489,-1.705,-1.8454,-1.969,-2.1115,-2.1317,-2.134,0.0,0.0,0.0,0.0,0.0,0.0,0.0,0.0,0.0,0.0,0.0,0.0,0.0,0.0,-1.8539,-1.5676,-1.4546,-1.4193,-1.4796,0.0,0.0,0.0,0.0,0.0,0.0,0.0,0.0,0.0,0.0,0.0,0.0,0.0,0.0,-0.791,0.0,-0.8256,0.0,0.0,0.0,0.0,0.0,0.0,0.0,0.0,-1.0108,-1.0385,-1.003,-1.052,-1.0446,0.0,-1.014,-0.9622,0.0,0.0,0.0,0.0,0.0,0.0,0.0,0.0,-0.9792,-1.0051,-1.073,-1.1183,-1.138,-1.1205,-1.1099,-1.1099,-1.1099,-1.0827,-1.0221,-0.9813,-0.9345,0.0,0.0,0.0,0.0,0.0,0.0,0.0,0.0,0.0,0.0,0.0,0.0,0.0,0.0,0.0,0.0,0.0,0.0,0.0,0.0,0.0,0.0,0.0,-0.915,0.0,0.0,0.0,0.0,0.0,0.0,0.0,0.0,0.0,-1.3581,-1.4602,-1.6135,-1.82,-1.9317,-2.0256,-2.1179,0.0,0.0,0.0,0.0,0.0,0.0,0.0,-1.9134,-1.8564,-1.8554,-1.8643,-1.8647,-1.9819,-2.0711,-2.0591,0.0,0.0,-1.8038,-1.6842,-1.6487,-1.7052,-1.6768,-1.6619,-1.735,-1.7689,-1.797,0.0,0.0,0.0,0.0,0.0,0.0,0.0,0.0,-0.7586,-0.809,0.0,-0.8456,0.0,0.0,0.0,0.0,0.0,-0.9105,0.0,0.0,-1.0937,-1.1197,-1.1137,-1.1231,-1.0918,-1.0292,-1.0902,-1.059,-0.9465,-0.9746,0.0,0.0,0.0,0.0,0.0,0.0,-1.0289,-1.1134,-1.1144,-1.1422,-1.1949,-1.1453,-1.1148,-1.1176,-1.1127,-1.0855,-1.032,-1.0243,-1.0044,-0.9649,-0.9077,0.0,0.0,0.0,0.0,0.0,0.0,0.0,0.0,0.0,0.0,0.0,0.0,0.0,0.0,0.0,0.0,0.0,0.0,0.0,0.0,-0.9566,0.0,0.0,0.0,0.0,0.0,0.0,0.0,0.0,0.0,0.0,-1.5261,-1.6848,-1.841,-1.9183,0.0,0.0,0.0,0.0,-2.1355,-2.1301,-2.1363,-2.1175,-2.0434,-2.1016,-2.1032,-1.9669,0.0,0.0,-2.0731,-2.1259,-2.1511,-2.087,-2.1334,-2.1759,-2.1617,-1.9877,-1.9055,-2.0265,-1.8535,-1.7457,-1.9089,-1.919,-1.906,-0.8216,0.0,0.0,0.0,0.0,-0.7229,-0.7609,-0.8127,-0.8571,-0.8845,-0.8963,-0.9354,0.0,0.0,0.0,0.0,0.0,0.0,-1.0948,-1.1479,-1.1717,-1.1802,-1.1724,-1.135,-1.104,-1.0876,-1.1474,-1.1587,-1.1277,-1.1815,-1.0871,-0.8551,0.0,0.0,0.0,0.0,-1.1038,-1.1204,-1.1559,-1.1904,-1.2206,-1.1911,-1.1956,-1.2446,-1.1587,-1.1275,-1.1687,-1.115,-1.0691,-1.0402,-1.0006,0.0,0.0,0.0,0.0,0.0,0.0,0.0,0.0,0.0,0.0,0.0,0.0,0.0,0.0,0.0,0.0,0.0,0.0,0.0,-0.9625,-0.9941,-1.0672,0.0,0.0,0.0,0.0,0.0,0.0,0.0,0.0,0.0,-1.8737,-1.8815,-1.9325,0.0,0.0,-2.1285,-2.1285,-2.1317,-2.1309,-2.1285,-2.1317,0.0,-2.1058,-2.0866,-2.0741,-2.0746,-2.1134,-2.1329,-2.1126,-2.1309,-2.1422,-2.1179,-2.1417,-2.1625,-2.1485,-2.1179,-2.0994,-2.133,-2.0866,-2.0563,-2.1131,-2.1248,-2.1271,-0.9852,-0.8803,-0.8509,-0.824,-0.804,-0.8257,-0.8429,-0.8546,-0.9218,-0.9476,-0.9501,-1.0007,-0.9961,-0.946,-0.9604,0.0,0.0,0.0,-1.1844,-1.2385,-1.215,-1.2031,-1.1963,-1.1387,-1.1233,-1.1457,-1.183,-1.2088,-1.228,-1.2758,-1.19,-0.9842,0.0,0.0,-0.9998,-1.1152,-1.1823,-1.1922,-1.2228,-1.247,-1.258,-1.2444,-1.25,-1.2699,-1.1901,-1.161,-1.1923,-1.1384,-1.1092,-1.1041,-1.0645,-1.0109,0.0,0.0,0.0,0.0,0.0,0.0,0.0,0.0,0.0,0.0,0.0,-0.9251,-0.8877,0.0,0.0,0.0,-0.899,-0.9803,-1.1276,-1.1687,0.0,0.0,0.0,0.0,0.0,0.0,0.0,-1.7557,-1.9377,-2.0622,-2.0578,-2.0402,-2.0565,-2.1204,-2.1285,-2.1285,-2.1285,0.0,-2.1285,-2.1285,-2.1285,-2.1285,-2.1309,-2.1022,-2.0945,-2.1346,-2.1402,-2.1419,-2.1419,-2.1464,-2.1489,-2.1538,-2.1638,-2.1746,-2.176,-2.1889,-2.1953,-2.1848,-2.189,-2.2015,-2.2101,-2.2209,-2.2338,-1.1091,-1.0648,-0.9927,-0.9236,-0.8686,-0.9254,-0.9162,-0.87,-0.96,-0.9992,-1.0096,-1.0472,-1.0457,-1.0129,-1.0254,0.0,-1.2127,-1.2095,-1.2485,-1.306,-1.2436,-1.2074,-1.2004,-1.1433,-1.144,-1.1962,-1.2004,-1.2281,-1.2753,-1.2997,-1.2719,-1.2058,-1.2314,-1.2406,-1.2277,-1.2356,-1.2637,-1.3051,-1.3072,-1.3072,-1.3072,-1.305,-1.2855,-1.2474,-1.2181,-1.1886,-1.153,-1.1283,-1.1309,-1.1623,-1.109,-1.0681,-1.0514,0.0,0.0,0.0,0.0,0.0,0.0,0.0,0.0,0.0,0.0,0.0,0.0,0.0,0.0,0.0,-0.9881,0.0,-1.3413,-1.4322,0.0,0.0,0.0,-1.6761,-1.6404,-1.8694,-1.975,-1.8329,0.0,0.0,-2.1175,-2.1616,-2.1853,-2.1433,-2.134,-2.1317,-2.1285,-2.1285,-2.1285,-2.1285,-2.1285,-2.1285,-2.1285,-2.1331,-2.1385,-2.1511,-2.1581,-2.155,-2.1589,-2.1612,-2.1691,-2.1842,-2.1898,-2.1988,-2.222,-2.2216,-2.2208,-2.1982,-2.1949,-2.2023,-2.2274,-2.233,-2.2413,-1.183,-1.1739,-1.16,-1.0752,-0.9563,-1.0071,-0.9996,-0.9597,-1.0315,-1.069,-1.0696,-1.086,-1.1018,-1.1232,-1.1264,-1.1938,-1.3065,-1.3072,-1.3393,-1.3936,-1.3345,-1.2812,-1.2369,-1.1767,-1.1543,-1.1707,-1.217,-1.2676,-1.3238,-1.3748,-1.3946,-1.3873,-1.3949,-1.334,-1.2148,-1.3042,-1.358,-1.367,-1.3699,-1.3677,-1.3692,-1.3529,-1.3528,-1.3682,-1.2896,-1.246,-1.2453,-1.1843,-1.1667,-1.2033,-1.1626,-1.1234,-1.0952,-1.0108,0.0,0.0,0.0,0.0,0.0,0.0,0.0,0.0,0.0,-1.0839,-1.0288,0.0,-1.1161,0.0,-1.3741,-1.4667,-1.5259,-1.5971,0.0,0.0,-1.8937,-1.9316,-2.0869,-2.1179,-2.1276,-2.1307,-2.1953,-2.2237,-2.1812,-2.189,-2.1953,-2.1853,-2.1691,-2.1526,-2.1348,-2.1285,-2.1285,-2.1285,-2.1285,-2.1285,-2.1317,-2.1309,-2.134,-2.1348,-2.1388,-2.145,-2.1634,-2.1678,-2.1741,-2.1938,-2.1985,-2.2007,-2.2088,-2.2074,-2.2161,-2.226,-2.2341,-2.236,-2.2441,-2.2533,-2.2614,-1.2071,-1.2113,-1.2144,-1.152,-1.0478,-1.0868,-1.0663,-1.0236,-1.0992,-1.1145,-1.0927,-1.1236,-1.1633,-1.2076,-1.2308,-1.2907,-1.3785,-1.3812,-1.3988,-1.4246,-1.3391,-1.2964,-1.2855,-1.2014,-1.1892,-1.2407,-1.2753,-1.3171,-1.3646,-1.4092,-1.4273,-1.4278,-1.4356,-1.3957,-1.3099,-1.3892,-1.4288,-1.4295,-1.4422,-1.4475,-1.4482,-1.4469,-1.4308,-1.397,-1.3374,-1.2854,-1.2411,-1.1896,-1.1605,-1.1614,-1.169,-1.139,-1.0717,-1.0578,-1.0422,0.0,0.0,0.0,0.0,0.0,0.0,0.0,0.0,0.0,0.0,0.0,-1.3394,-1.5118,-1.5903,-1.6715,-1.7778,-1.825,-1.925,-2.1163,-2.1,-2.1274,-2.2548,-2.235,-2.2211,-2.2482,-2.2542,-2.247,-2.2326,-2.2326,-2.2271,-2.2212,-2.2069,-2.1865,-2.1573,-2.1464,-2.1433,-2.1309,-2.1285,-2.134,-2.1433,-2.1472,-2.1472,-2.1472,-2.1481,-2.1534,-2.1664,-2.1686,-2.1792,-2.2095,-2.217,-2.2205,-2.2294,-2.2307,-2.2385,-2.2463,-2.256,-2.2587,-2.2587,-2.2632,-2.2712,-1.2071,-1.2071,-1.2071,-1.1819,-1.1423,-1.1537,-1.1259,-1.074,-1.1496,-1.1524,-1.1058,-1.1536,-1.2106,-1.2697,-1.311,-1.3637,-1.4215,-1.4242,-1.4229,-1.4161,-1.306,-1.2824,-1.326,-1.2188,-1.2249,-1.3293,-1.3344,-1.3579,-1.3954,-1.4164,-1.4144,-1.4026,-1.4144,-1.4254,-1.4332,-1.4613,-1.4794,-1.4794,-1.5056,-1.5208,-1.5245,-1.544,-1.5008,-1.3872,-1.3704,-1.3125,-1.1988,-1.1858,-1.162,-1.124,-1.1828,-1.1665,-1.0604,-1.1043,-1.1389,0.0,-1.1419,0.0,0.0,0.0,0.0,0.0,0.0,0.0,0.0,-1.5032,-1.6058,-1.6988,-1.7406,-1.8408,-2.0281,-2.0548,-2.1122,-2.2442,-2.2614,-2.2641,-2.2677,-2.2712,-2.2712,-2.2712,-2.2712,-2.2712,-2.2685,-2.2712,-2.2641,-2.246,-2.2424,-2.2248,-2.1873,-2.1746,-2.1639,-2.1442,-2.1394,-2.1518,-2.167,-2.1746,-2.173,-2.1738,-2.1738,-2.1738,-2.1797,-2.1814,-2.194,-2.2319,-2.2447,-2.2477,-2.2667,-2.2685,-2.2677,-2.2685,-2.2694,-2.2685,-2.2685,-2.2677,-2.2712,-1.1962,-1.2071,-1.2071,-1.2025,-1.1969,-1.1969,-1.1682,-1.1216,-1.1792,-1.1844,-1.158,-1.167,-1.2017,-1.2532,-1.2622,-1.3136,-1.3881,-1.3874,-1.3881,-1.3861,-1.3144,-1.2861,-1.294,-1.2259,-1.2292,-1.2953,-1.2986,-1.3289,-1.3841,-1.3874,-1.3927,-1.3993,-1.4039,-1.4144,-1.4293,0.0,0.0,0.0,-1.5065,-1.5275,-1.5433,-1.5668,-1.5189,-1.3875,-1.3987,0.0,-1.224,-1.2632,-1.287,-1.2792,-1.3406,0.0,0.0,0.0,0.0,0.0,0.0,0.0,0.0,0.0,0.0,0.0,-1.5249,-1.5887,-1.5612,-1.8162,-1.931,-1.8143,-2.0108,-2.1464,-2.1376,-2.191,-2.2367,-2.2642,-2.2685,-2.2694,-2.272,-2.2712,-2.2712,-2.2712,-2.2712,-2.2712,-2.2712,-2.2712,-2.2694,-2.2624,-2.2632,-2.2525,-2.2293,-2.2081,-2.1911,-2.1882,-2.1832,-2.1882,-2.194,-2.1949,-2.1957,-2.194,-2.1932,-2.2015,-2.2192,-2.2237,-2.2332,-2.2596,-2.2632,-2.2641,-2.2694,-2.2712,-2.2712,-2.2712,-2.2712,-2.2712,-2.2712,-2.2712,-2.2712,-1.2392,0.0,-1.2107,-1.1962,0.0,-1.1962,-1.1784,-1.1569,-1.1926,-1.2011,-1.1914,-1.204,-1.2318,-1.2705,-1.2878,-1.3263,-1.3781,-1.3781,-1.3781,-1.3788,-1.3173,-1.3049,-1.3311,-1.2723,-1.2755,-1.3317,-1.3369,-1.3494,-1.3775,-1.3781,-1.3835,-1.3927,-1.3894,-1.396,-1.4046,-1.4287,-1.456,-1.4842,-1.5239,-1.5352,-1.5225,-1.5747,-1.5505,-1.4363,-1.4557,0.0,0.0,0.0,0.0,0.0,0.0,0.0,0.0,0.0,0.0,-1.3721,-1.3458,-1.3433,-1.3752,-1.4225,-1.4916,-1.5922,-1.7795,-1.8744,-1.8383,-2.0026,-2.0875,-2.0476,-2.1782,-2.2513,-2.2194,-2.2488,-2.2712,-2.2712,-2.2712,-2.2712,-2.2712,-2.2712,-2.2712,-2.2712,-2.2712,-2.2712,-2.2712,-2.2712,-2.2685,-2.2667,-2.2659,-2.2614,-2.2451,-2.2304,-2.2166,-2.2019,-2.1998,-2.2064,-2.2175,-2.2203,-2.2195,-2.2203,-2.2203,-2.224,-2.2377,-2.2413,-2.2451,-2.2659,-2.2712,-2.2712,-2.2712,-2.2712,-2.2712,-2.2712,-2.2712,-2.2712,-2.2712,-2.2712,-2.2712,-1.2794,-1.2827,-1.2159,-1.1866,-1.1871,-1.1771,-1.1743,-1.178,0.0,0.0,0.0,-1.2333,-1.2609,-1.2902,-1.3179,-1.3499,-1.3788,-1.3781,-1.3781,-1.3755,-1.3154,-1.32,-1.3735,-1.3167,-1.3193,-1.3762,-1.3781,-1.3781,-1.3781,-1.3781,-1.3781,-1.3781,-1.3781,-1.3815,-1.3881,-1.3987,-1.4298,-1.4794,-1.5315,-1.5396,-1.5036,-1.5754,-1.5739,-1.4867,-1.5068,-1.4891,-1.4236,-1.4321,-1.4121,-1.3605,-1.4198,-1.4252,-1.3621,-1.419,-1.4727,-1.5137,-1.4841,-1.5059,-1.6007,-1.5954,-1.6483,-1.7943,-1.9907,-2.1119,-2.1139,-2.1283,-2.1696,-2.2519,-2.2632,-2.2667,-2.2659,-2.2677,-2.2694,-2.2685,-2.2694,-2.2712,-2.2712,-2.2694,-2.2694,-2.2677,-2.2659,-2.2659,-2.2659,-2.2659,-2.2649,-2.2596,-2.2587,-2.2569,-2.2515,-2.2441,-2.2332,-2.2166,-2.2113,-2.2186,-2.236,-2.2405,-2.2413,-2.2441,-2.2424,-2.2441,-2.2441,-2.2432,-2.2506,-2.2667,-2.2712,-2.2712,-2.2712,-2.2712,-2.2712,-2.2712,-2.2712,-2.2694,-2.2677,-2.2685,-2.2685,-1.2415,-1.2888,-1.2343,-1.2146,-1.2118,-1.1729,-1.1547,-1.159,-1.1926,-1.2071,-1.2113,-1.2125,-1.2437,-1.2902,-1.2943,-1.3282,-1.3781,-1.3781,-1.3781,-1.3755,-1.3154,-1.3232,-1.3749,-1.3167,-1.32,-1.3749,-1.3781,-1.3781,-1.3781,-1.3781,-1.3781,-1.3781,-1.3781,-1.3947,-1.4196,-1.4261,-1.4447,-1.4794,-1.505,-1.5247,-1.5418,-1.5862,-1.5782,-1.5106,-1.5136,-1.4898,-1.4236,-1.476,-1.5003,-1.4952,-1.5549,-1.5629,-1.4998,-1.5526,-1.5703,-1.5291,-1.5856,-1.6121,-1.5768,-1.6383,-1.7531,-1.9207,-2.0844,-2.1873,-2.2152,-2.2272,-2.2361,-2.2497,-2.2542,-2.255,-2.2533,-2.2596,-2.2623,-2.2614,-2.2667,-2.2712,-2.2685,-2.2641,-2.2605,-2.2605,-2.256,-2.2533,-2.2533,-2.2533,-2.2542,-2.2515,-2.2523,-2.2523,-2.2496,-2.2487,-2.2479,-2.2451,-2.2415,-2.247,-2.2525,-2.2506,-2.2506,-2.2569,-2.2552,-2.2542,-2.2542,-2.2596,-2.2641,-2.2694,-2.2685,-2.2685,-2.2685,-2.2712,-2.2685,-2.2685,-2.2677,-2.2659,-2.2641,-2.2597,-2.2605,-1.2699,-1.2866,-1.2313,-1.2047,-1.2009,-1.1518,-1.1415,-1.151,-1.17,-1.1768,-1.1805,-1.1892,-1.2151,-1.2538,-1.2785,-1.3145,-1.3573,-1.3748,-1.3781,-1.3762,-1.3494,-1.352,-1.3749,-1.3494,-1.3507,-1.3768,-1.3781,-1.3781,-1.3781,-1.3781,-1.3781,-1.3781,-1.3781,-1.3874,-1.402,-1.4033,-1.4203,-1.4511,-1.502,-1.5262,-1.5239,-1.5769,-1.5852,-1.543,-1.561,-1.5595,-1.5288,-1.5564,-1.5726,-1.5733,-1.6025,-1.6048,-1.5764,-1.6025,-1.613,-1.5965,-1.6001,-1.632,-1.6922,-1.8276,-1.9452,-2.0426,-2.1477,-2.218,-2.233,-2.2396,-2.2443,-2.2487,-2.2479,-2.247,-2.2479,-2.2542,-2.2525,-2.2542,-2.2587,-2.2596,-2.2596,-2.2569,-2.2525,-2.2533,-2.2506,-2.2487,-2.2487,-2.2487,-2.2487,-2.2468,-2.2405,-2.2377,-2.2394,-2.2377,-2.2396,-2.2496,-2.2487,-2.2523,-2.2533,-2.2542,-2.2506,-2.2533,-2.2552,-2.2533,-2.2542,-2.256,-2.2579,-2.2587,-2.2587,-2.2587,-2.2587,-2.2596,-2.2587,-2.257,-2.2579,-2.2587,-2.256,-2.2605,-2.2712,-1.2838,-1.2807,-1.2136,-1.1815,-1.1638,-1.1295,-1.1207,-1.1372,-1.1378,-1.1378,-1.1404,-1.1616,-1.1903,-1.2168,-1.2526,-1.2896,-1.3282,-1.3486,-1.3674,-1.3748,-1.3754,-1.3781,-1.3781,-1.3781,-1.3781,-1.3781,-1.3781,-1.3781,-1.3781,-1.3781,-1.3781,-1.3781,-1.3781,-1.3781,-1.3781,-1.3874,-1.4072,-1.4429,-1.5058,-1.5269,-1.5097,-1.5675,-1.5919,-1.5803,-1.5968,-1.6095,-1.6194,-1.6194,-1.6194,-1.6194,-1.6194,-1.6194,-1.6194,-1.6194,-1.6297,-1.6443,-1.6303,-1.686,-1.8428,-1.9978,-2.0971,-2.1194,-2.1887,-2.2319,-2.231,-2.2332,-2.2388,-2.2432,-2.2396,-2.2388,-2.2441,-2.2451,-2.2479,-2.2479,-2.2487,-2.2515,-2.2487,-2.2487,-2.2487,-2.2487,-2.246,-2.246,-2.246,-2.246,-2.2432,-2.2394,-2.233,-2.2319,-2.2319,-2.2319,-2.2338,-2.2413,-2.246,-2.2451,-2.246,-2.2451,-2.2451,-2.2487,-2.2487,-2.2487,-2.2496,-2.2487,-2.2479,-2.2515,-2.2515,-2.2506,-2.2487,-2.2487,-2.2542,-2.2587,-2.2641,-2.2632,-2.272,-2.2782,-2.2927,-1.2209,-1.2431,-1.196,-1.1444,-1.1033,-1.094,-1.0962,-1.0952,-1.0957,-1.0957,-1.1001,-1.1362,-1.1663,-1.1926,-1.1982,-1.236,-1.2894,-1.2957,-1.3216,-1.3575,-1.3621,-1.3708,-1.3781,-1.3781,-1.3781,-1.3781,-1.3781,-1.3781,-1.3781,-1.3821,-1.3815,-1.3781,-1.3781,-1.3815,-1.3848,-1.4112,-1.4415,-1.4732,-1.5118,-1.5285,-1.5292,-1.5697,-1.5934,-1.5968,-1.6004,-1.6067,-1.6194,-1.6131,-1.6131,-1.6194,-1.6194,-1.6194,-1.6194,-1.6194,-1.6222,-1.6285,-1.7247,-1.8462,-1.9706,-2.0677,-2.1176,-2.1246,-2.1896,-2.2319,-2.2319,-2.2319,-2.2302,-2.233,-2.231,-2.2319,-2.2321,-2.2386,-2.2413,-2.2413,-2.2451,-2.2487,-2.2487,-2.2432,-2.2405,-2.2413,-2.2358,-2.231,-2.2347,-2.2338,-2.2338,-2.2347,-2.231,-2.2319,-2.2319,-2.2319,-2.231,-2.231,-2.231,-2.2358,-2.2394,-2.2358,-2.2358,-2.2422,-2.2413,-2.2441,-2.2432,-2.2487,-2.2506,-2.2605,-2.256,-2.256,-2.2533,-2.2515,-2.2623,-2.2782,-2.2859,-2.2919,-2.307,-2.3102,-2.3182,-1.1977,-1.2124,-1.1892,-1.1465,-1.0945,-1.0713,-1.0713,-1.0881,-1.0881,-1.0881,-1.0924,-1.108,-1.126,-1.1501,-1.1774,-1.2043,-1.2324,-1.2707,-1.2998,-1.321,-1.3427,-1.3594,-1.3661,-1.3661,-1.3701,-1.3781,-1.3781,-1.3781,-1.3841,-1.4007,-1.4112,-1.4144,-1.43,-1.4383,-1.4397,-1.4525,-1.4763,-1.5088,-1.5232,-1.5381,-1.5573,-1.5741,-1.5892,-1.5934,-1.5942,-1.6019,-1.6103,-1.6123,-1.6123,-1.6194,-1.6194,-1.6194,-1.6194,-1.6194,-1.6336,-1.6731,-1.8289,-1.9645,-2.0635,-2.1431,-2.1854,-2.1854,-2.2124,-2.2319,-2.2319,-2.2319,-2.2319,-2.2319,-2.2319,-2.2319,-2.231,-2.2347,-2.2338,-2.2338,-2.2358,-2.2394,-2.2394,-2.2358,-2.233,-2.233,-2.231,-2.2319,-2.2319,-2.2319,-2.2319,-2.2319,-2.2319,-2.2319,-2.2319,-2.2319,-2.2319,-2.2319,-2.2319,-2.231,-2.2338,-2.2338,-2.2319,-2.2338,-2.233,-2.2358,-2.2533,-2.2596,-2.2659,-2.279,-2.2816,-2.2816,-2.2859,-2.2833,-2.2893,-2.301,-2.3035,-2.3102,-2.3327,-2.3357,-2.3449,-1.1723,-1.176,-1.1784,-1.143,-1.0833,-1.0775,-1.0781,-1.0881,-1.0881,-1.0881,-1.0881,-1.0881,-1.0968,-1.1179,-1.1595,-1.1842,-1.2018,-1.2549,-1.29,-1.3045,-1.3344,-1.3527,-1.3581,-1.3581,-1.3628,-1.3708,-1.3748,-1.3735,-1.3821,-1.4053,-1.4177,-1.4203,-1.4429,-1.4511,-1.4543,-1.4676,-1.4918,-1.5149,-1.5336,-1.5544,-1.5777,-1.5814,-1.5827,-1.59,-1.59,-1.5942,-1.6067,-1.6047,-1.6075,-1.6194,-1.6159,-1.6194,-1.6194,-1.6194,-1.6608,-1.7591,-1.9033,-2.038,-2.1422,-2.2006,-2.2319,-2.2319,-2.2319,-2.2319,-2.2319,-2.2319,-2.2319,-2.2319,-2.2319,-2.2319,-2.2319,-2.2319,-2.2319,-2.2319,-2.2319,-2.2319,-2.2319,-2.2319,-2.2319,-2.2319,-2.2319,-2.2319,-2.2319,-2.2319,-2.2319,-2.2319,-2.2319,-2.2319,-2.2319,-2.2319,-2.2319,-2.2319,-2.2366,-2.2386,-2.2319,-2.2319,-2.2319,-2.2319,-2.2319,-2.2377,-2.2624,-2.2685,-2.279,-2.291,-2.3051,-2.3075,-2.3026,-2.3051,-2.3149,-2.3188,-2.3268,-2.3339,-2.3544,-2.3567,-2.3633,-1.1326,-1.1358,-1.1679,-1.1262,-1.0498,-1.1169,-1.1242,-1.0881,-1.0881,-1.0881,-1.0881,-1.0881,-1.0881,-1.0962,-1.1346,-1.1732,-1.2102,-1.2419,-1.2849,-1.3276,-1.335,-1.3452,-1.348,-1.348,-1.352,-1.3554,-1.3588,-1.3668,-1.3775,-1.3821,-1.3821,-1.3881,-1.3974,-1.3954,-1.4072,-1.462,-1.4839,-1.498,-1.5463,-1.577,-1.5814,-1.5814,-1.5835,-1.5863,-1.5827,-1.5885,-1.5975,-1.5942,-1.597,-1.6095,-1.6123,-1.6131,-1.6194,-1.6242,-1.7074,-1.881,-1.9415,-2.0396,-2.19,-2.2276,-2.2319,-2.2319,-2.2319,-2.2319,-2.2319,-2.2319,-2.2319,-2.2319,-2.2319,-2.2319,-2.2319,-2.2319,-2.2319,-2.2319,-2.2319,-2.2319,-2.2319,-2.2319,-2.2319,-2.2319,-2.233,-2.2358,-2.2338,-2.2319,-2.2366,-2.2358,-2.2338,-2.2366,-2.2386,-2.2366,-2.2366,-2.2413,-2.2506,-2.2587,-2.2394,-2.2441,-2.2394,-2.2394,-2.2432,-2.246,-2.2587,-2.2729,-2.2893,-2.3035,-2.3164,-2.3212,-2.3149,-2.3173,-2.3292,-2.3408,-2.358,-2.371,-2.3689,-2.3762,-2.3783,-1.113,-1.0931,-1.1001,-1.0781,-1.0526,-1.0755,-1.085,-1.0886,-1.0881,-1.0881,-1.0881,-1.0881,-1.0881,-1.0924,-1.1303,-1.1584,-1.1732,-1.2102,-1.2496,-1.289,-1.3145,-1.3323,-1.3425,-1.3425,-1.3452,-1.3486,-1.3514,-1.3588,-1.3688,-1.3888,-1.4144,-1.4454,-1.4641,-1.4866,-1.5088,-1.5314,-1.544,-1.5463,-1.5719,-1.5814,-1.5814,-1.5814,-1.5827,-1.5827,-1.5799,-1.5827,-1.5942,-1.597,-1.6019,-1.6095,-1.6131,-1.6269,-1.6471,-1.6771,-1.7693,-1.9229,-1.9719,-2.0573,-2.202,-2.2319,-2.2319,-2.2319,-2.2319,-2.2319,-2.2319,-2.2319,-2.2319,-2.2319,-2.2319,-2.2319,-2.2319,-2.2319,-2.2319,-2.2319,-2.2319,-2.2319,-2.2319,-2.2319,-2.2319,-2.2338,-2.2424,-2.2597,-2.2721,-2.2825,-2.2816,-2.2816,-2.2816,-2.279,-2.2807,-2.2807,-2.2799,-2.2816,-2.2884,-2.2927,-2.2842,-2.2825,-2.2799,-2.2694,-2.2686,-2.291,-2.3084,-2.3142,-2.3277,-2.3422,-2.3482,-2.3459,-2.3459,-2.3468,-2.3567,-2.3602,-2.3783,-2.3783,-2.3804,-2.3804,-2.3804,-1.0922,-1.0697,-1.0777,-1.0656,-1.05,-1.0696,-1.0835,-1.0891,-1.0881,-1.0881,-1.0881,-1.0881,-1.0881,-1.0919,-1.1164,-1.1383,-1.1553,-1.2024,-1.2389,-1.2632,-1.3006,-1.3226,-1.3335,-1.3323,-1.3357,-1.3391,-1.3452,-1.348,-1.3588,-1.3808,-1.4098,-1.4401,-1.4804,-1.5088,-1.5314,-1.5514,-1.5639,-1.5646,-1.5733,-1.5814,-1.5814,-1.5814,-1.5814,-1.5814,-1.5814,-1.5799,-1.5863,-1.5942,-1.6047,-1.6187,-1.6254,-1.6417,-1.6738,-1.7379,-1.8286,-1.9465,-2.0117,-2.094,-2.2046,-2.2319,-2.2319,-2.2319,-2.2319,-2.2319,-2.2319,-2.2319,-2.2319,-2.231,-2.2377,-2.2424,-2.2451,-2.2497,-2.2506,-2.2366,-2.2319,-2.2319,-2.2319,-2.2319,-2.2319,-2.2319,-2.2441,-2.2659,-2.2927,-2.2926,-2.2976,-2.3075,-2.31,-2.31,-2.31,-2.31,-2.31,-2.31,-2.3149,-2.3157,-2.3149,-2.314,-2.31,-2.2976,-2.2926,-2.3212,-2.3408,-2.3495,-2.3585,-2.3741,-2.3804,-2.3804,-2.3804,-2.3804,-2.3804,-2.3804,-2.3804,-2.3804,-2.3804,-2.3804,-2.3825,-1.0638,-1.0615,-1.1011,-1.0831,-1.0499,-1.1099,-1.1242,-1.0912,-1.0881,-1.0881,-1.0881,-1.0881,-1.0881,-1.0919,-1.0952,-1.1131,-1.1521,-1.2138,-1.2496,-1.2638,-1.2978,-1.3163,-1.3198,-1.3239,-1.3239,-1.3226,-1.3323,-1.3419,-1.3514,-1.3575,-1.3675,-1.3749,-1.4222,-1.4543,-1.4383,-1.5118,-1.5352,-1.5418,-1.5668,-1.5814,-1.5814,-1.5814,-1.5814,-1.5814,-1.5814,-1.5827,-1.5827,-1.5885,-1.6103,-1.6363,-1.6474,-1.6651,-1.7082,-1.7906,-1.8826,-1.9634,-2.0563,-2.149,-2.2183,-2.2319,-2.2319,-2.2319,-2.2319,-2.2319,-2.2319,-2.2347,-2.2338,-2.2386,-2.2552,-2.2712,-2.2729,-2.2902,-2.2859,-2.2432,-2.2377,-2.2413,-2.2347,-2.2319,-2.2319,-2.2366,-2.2424,-2.2468,-2.2649,-2.2833,-2.2969,-2.3149,-2.3188,-2.3188,-2.3212,-2.3236,-2.3149,-2.3197,-2.3339,-2.3422,-2.3413,-2.3427,-2.3344,-2.3251,-2.3203,-2.3307,-2.3477,-2.3576,-2.3642,-2.3762,-2.3804,-2.3804,-2.3804,-2.3804,-2.3804,-2.3804,-2.3804,-2.3804,-2.3804,-2.3804,-2.3846,-1.0386,-1.0292,-1.0549,-1.039,-1.0083,-1.066,-1.0858,-1.0838,-1.0827,-1.0871,-1.0881,-1.0881,-1.0881,-1.0881,-1.0881,-1.0957,-1.1136,-1.1632,-1.209,-1.2526,-1.2714,-1.2931,-1.317,-1.321,-1.321,-1.3204,-1.3226,-1.3329,-1.3419,-1.3527,-1.3675,-1.3967,-1.4401,-1.4756,-1.4966,-1.5426,-1.5639,-1.5639,-1.5733,-1.5814,-1.5814,-1.5814,-1.5814,-1.5814,-1.5814,-1.587,-1.6065,-1.6171,-1.6297,-1.6425,-1.6686,-1.6985,-1.7387,-1.8226,-1.9093,-1.9841,-2.0693,-2.1515,-2.2183,-2.2319,-2.2319,-2.2319,-2.2319,-2.2319,-2.2347,-2.246,-2.256,-2.257,-2.2825,-2.2985,-2.2976,-2.3035,-2.3026,-2.2859,-2.2842,-2.2738,-2.2614,-2.2596,-2.2659,-2.2825,-2.2867,-2.2969,-2.3157,-2.3238,-2.3301,-2.3491,-2.354,-2.3549,-2.3571,-2.3535,-2.3602,-2.3602,-2.3689,-2.3646,-2.3624,-2.3615,-2.3571,-2.3504,-2.3482,-2.3436,-2.358,-2.3655,-2.3719,-2.3762,-2.3783,-2.3804,-2.3804,-2.3804,-2.3804,-2.3816,-2.3828,-2.3816,-2.3804,-2.3858,-2.3939,-0.9971,-0.9991,-0.9866,-0.9844,-0.9906,-1.0235,-1.05,-1.0703,-1.0746,-1.0789,-1.0833,-1.0871,-1.0881,-1.0881,-1.0881,-1.0881,-1.0924,-1.1169,-1.159,-1.2204,-1.2526,-1.2743,-1.3006,-1.3151,-1.321,-1.321,-1.321,-1.3267,-1.3323,-1.3588,-1.3802,-1.4123,-1.4679,-1.5065,-1.5329,-1.5639,-1.5814,-1.5814,-1.5814,-1.5814,-1.5814,-1.5814,-1.5814,-1.5814,-1.5814,-1.5919,-1.6168,-1.6394,-1.6562,-1.6785,-1.7312,-1.7773,-1.8025,-1.9083,-1.9968,-2.0458,-2.1152,-2.1845,-2.226,-2.2319,-2.2319,-2.2319,-2.2319,-2.2319,-2.2338,-2.2479,-2.2552,-2.2703,-2.2935,-2.3149,-2.3221,-2.333,-2.3335,-2.3344,-2.3197,-2.3035,-2.2876,-2.285,-2.2893,-2.3035,-2.3075,-2.3253,-2.3426,-2.3504,-2.3576,-2.3741,-2.3804,-2.3804,-2.3804,-2.3783,-2.3804,-2.3804,-2.3783,-2.3762,-2.3783,-2.3783,-2.3804,-2.3762,-2.3732,-2.371,-2.3741,-2.3762,-2.3783,-2.3783,-2.3804,-2.3804,-2.3804,-2.3795,-2.3816,-2.3828,-2.3912,-2.3972,-2.404,-2.4088,-2.4145,-0.9622,-0.9798,-0.9132,-0.934,-0.9935,-1.0026,-1.0283,-1.057,-1.0653,-1.071,-1.0789,-1.0779,-1.0827,-1.0881,-1.0876,-1.0838,-1.0919,-1.0909,-1.1201,-1.1695,-1.2198,-1.2567,-1.2708,-1.3012,-1.3204,-1.321,-1.321,-1.321,-1.3226,-1.3709,-1.4006,-1.4026,-1.479,-1.5262,-1.5292,-1.5624,-1.5814,-1.5814,-1.5814,-1.5814,-1.5829,-1.5903,-1.5911,-1.5933,-1.6074,-1.6293,-1.6603,-1.6966,-1.7144,-1.7404,-1.8334,-1.8889,-1.9223,-2.0382,-2.105,-2.1136,-2.1862,-2.2183,-2.2319,-2.2319,-2.2338,-2.2349,-2.2358,-2.233,-2.2432,-2.2525,-2.265,-2.2816,-2.3051,-2.3277,-2.3499,-2.3633,-2.3732,-2.3741,-2.3408,-2.3173,-2.3149,-2.3149,-2.3149,-2.3149,-2.3149,-2.323,-2.3472,-2.3504,-2.3607,-2.3741,-2.3804,-2.3804,-2.3804,-2.3804,-2.3804,-2.3804,-2.3804,-2.3804,-2.3804,-2.3804,-2.3804,-2.3804,-2.3804,-2.3825,-2.3804,-2.3804,-2.3858,-2.3858,-2.3858,-2.3837,-2.3878,-2.395,-2.3981,-2.405,-2.4146,-2.422,-2.4256,-2.4265,-2.4346,-0.9643,-0.9854,-0.9337,-0.9319,-0.9761,-1.0051,-1.0283,-1.0447,-1.0823,-1.081,-1.0691,-1.0654,-1.0728,-1.0789,-1.0751,-1.0756,-1.0838,-1.0833,-1.1083,-1.1516,-1.1999,-1.2354,-1.2644,-1.3019,-1.321,-1.321,-1.321,-1.321,-1.3226,-1.3775,-1.3894,-1.3675,-1.4783,-1.5186,-1.5048,-1.5529,-1.5785,-1.5814,-1.5814,-1.5814,-1.5873,-1.6278,-1.6458,-1.6518,-1.7197,-1.7682,-1.8074,-1.8662,-1.875,-1.8459,-1.9218,-1.9697,-1.9782,-2.0686,-2.1288,-2.1363,-2.1879,-2.2319,-2.231,-2.2319,-2.2377,-2.2587,-2.2597,-2.2677,-2.2884,-2.306,-2.3182,-2.3324,-2.3491,-2.3606,-2.3719,-2.3762,-2.3804,-2.3783,-2.3544,-2.3422,-2.3544,-2.3486,-2.3403,-2.3412,-2.3394,-2.3458,-2.3504,-2.3517,-2.3607,-2.3741,-2.3804,-2.3804,-2.3804,-2.3804,-2.3804,-2.3804,-2.3804,-2.3804,-2.3804,-2.3804,-2.3804,-2.3804,-2.3825,-2.3816,-2.3816,-2.3816,-2.3919,-2.3979,-2.402,-2.402,-2.4155,-2.4275,-2.4301,-2.4274,-2.4328,-2.4363,-2.4372,-2.4372,-2.4484,-0.9297,-0.9554,-0.9159,-0.917,-0.9487,-0.9783,-0.9996,-1.0265,-1.0742,-1.0808,-1.056,-1.0741,-1.0797,-1.0713,-1.0659,-1.0669,-1.0751,-1.0746,-1.0964,-1.141,-1.1999,-1.2467,-1.2832,-1.3129,-1.321,-1.321,-1.321,-1.3232,-1.3385,-1.3894,-1.4098,-1.4214,-1.4998,-1.5396,-1.5314,-1.5551,-1.5814,-1.5814,-1.5814,-1.5814,-1.5851,-1.6569,-1.6917,-1.7151,-1.7937,-1.8554,-1.8599,-1.961,-1.9982,-1.9563,-2.0027,-2.0517,-2.0577,-2.1236,-2.1642,-2.1684,-2.2082,-2.233,-2.246,-2.2487,-2.2605,-2.2799,-2.2867,-2.2952,-2.3068,-2.3206,-2.3221,-2.3399,-2.3518,-2.3649,-2.3774,-2.3804,-2.3804,-2.3804,-2.3689,-2.3685,-2.3804,-2.3707,-2.3642,-2.3611,-2.362,-2.3629,-2.362,-2.362,-2.3676,-2.3753,-2.3804,-2.3804,-2.3804,-2.3804,-2.3804,-2.3804,-2.3804,-2.3804,-2.3804,-2.3804,-2.3804,-2.3804,-2.3899,-2.3899,-2.393,-2.393,-2.4049,-2.4164,-2.4192,-2.4256,-2.4381,-2.4476,-2.4459,-2.445,-2.4484,-2.455,-2.4575,-2.4559,-2.4664,-0.8805,-0.9147,-0.8838,-0.8945,-0.9311,-0.9368,-0.9611,-1.0031,-1.0579,-1.0584,-1.0433,-1.0765,-1.0745,-1.0587,-1.0544,-1.0577,-1.0626,-1.0582,-1.0926,-1.1442,-1.2102,-1.2685,-1.3094,-1.317,-1.321,-1.321,-1.321,-1.3295,-1.3547,-1.4163,-1.447,-1.4652,-1.5322,-1.5697,-1.5617,-1.5741,-1.5814,-1.5814,-1.5814,-1.5911,-1.6135,-1.6841,-1.7409,-1.7806,-1.8531,-1.902,-1.9223,-2.0042,-2.0651,-2.0073,-2.0852,-2.1253,-2.1397,-2.198,-2.2226,-2.2254,-2.2298,-2.246,-2.2659,-2.2703,-2.2842,-2.3075,-2.3157,-2.3164,-2.3203,-2.3179,-2.3194,-2.3418,-2.335,-2.3553,-2.3732,-2.3804,-2.3804,-2.3804,-2.3795,-2.3795,-2.3804,-2.3804,-2.3804,-2.3804,-2.3804,-2.3804,-2.3804,-2.3804,-2.3804,-2.3774,-2.3804,-2.3804,-2.3804,-2.3804,-2.3804,-2.3804,-2.3804,-2.3804,-2.3804,-2.3804,-2.3804,-2.3825,-2.3979,-2.4058,-2.4117,-2.4155,-2.4257,-2.4346,-2.4399,-2.4476,-2.4552,-2.4594,-2.461,-2.4642,-2.4704,-2.4813,-2.4889,-2.4837,-2.4875,-0.8916,-0.9027,-0.8774,-0.9015,-0.9481,-0.951,-0.9604,-0.9871,-1.0385,-1.0404,-1.0225,-1.0275,-1.0362,-1.0418,-1.0395,-1.0433,-1.0582,-1.0577,-1.0911,-1.1763,-1.2246,-1.2762,-1.3135,-1.321,-1.321,-1.321,-1.321,-1.3363,-1.3682,-1.4123,-1.4463,-1.462,-1.5225,-1.5573,-1.5492,-1.5683,-1.5814,-1.5814,-1.5814,-1.6046,-1.654,-1.7202,-1.8012,-1.8749,-1.9486,-2.0226,-2.0805,-2.0983,-2.117,-2.1527,-2.1796,-2.1944,-2.2031,-2.2211,-2.2349,-2.2386,-2.2525,-2.2632,-2.2729,-2.2918,-2.3124,-2.3362,-2.3408,-2.3477,-2.3646,-2.3593,-2.3593,-2.368,-2.3701,-2.3701,-2.3774,-2.3804,-2.3804,-2.3804,-2.3804,-2.3804,-2.3804,-2.3804,-2.3804,-2.3804,-2.3804,-2.3804,-2.3804,-2.3804,-2.3804,-2.3804,-2.3804,-2.3804,-2.3804,-2.3804,-2.3804,-2.3804,-2.3804,-2.3804,-2.3804,-2.3825,-2.3878,-2.393,-2.4097,-2.4284,-2.4337,-2.4389,-2.4493,-2.4578,-2.4635,-2.4692,-2.4738,-2.4807,-2.4837,-2.4889,-2.4913,-2.495,-2.4964,-2.4987,-2.5,-0.8854,-0.8977,-0.9066,-0.9233,-0.939,-0.9395,-0.9431,-0.9579,-0.9918,-0.9923,-0.9842,-1.0031,-1.0122,-1.0035,-1.0196,-1.0361,-1.0549,-1.084,-1.1244,-1.1872,-1.2395,-1.2873,-1.3135,-1.321,-1.321,-1.321,-1.321,-1.3363,-1.3648,-1.4084,-1.4431,-1.4557,-1.5225,-1.5477,-1.5433,-1.5617,-1.5704,-1.5733,-1.5785,-1.6091,-1.6697,-1.7544,-1.8801,-1.9862,-2.0334,-2.0644,-2.061,-2.0863,-2.0872,-2.1117,-2.1723,-2.222,-2.2349,-2.256,-2.2624,-2.2597,-2.2738,-2.296,-2.3084,-2.3206,-2.3376,-2.3611,-2.3633,-2.3698,-2.3783,-2.3804,-2.3804,-2.3804,-2.3804,-2.3804,-2.3804,-2.3804,-2.3804,-2.3804,-2.3804,-2.3804,-2.3804,-2.3804,-2.3804,-2.3804,-2.3804,-2.3804,-2.3804,-2.3804,-2.3804,-2.3804,-2.3804,-2.3804,-2.3804,-2.3804,-2.3804,-2.3804,-2.3804,-2.3804,-2.3804,-2.3858,-2.395,-2.4059,-2.4257,-2.4476,-2.4664,-2.4698,-2.4738,-2.4778,-2.4807,-2.487,-2.4922,-2.4987,-2.5,-2.4964,-2.4964,-2.4987,-2.5,-2.5,-2.5,-0.8633,-0.9005,-0.9363,-0.9424,-0.9244,-0.9184,-0.9191,-0.9296,-0.9353,-0.9368,-0.9426,-0.9939,-0.9917,-0.9776,-1.0118,-1.0327,-1.0587,-1.0997,-1.1473,-1.1999,-1.2467,-1.2873,-1.3135,-1.321,-1.3267,-1.326,-1.3232,-1.3295,-1.3621,-1.4026,-1.4445,-1.4627,-1.5172,-1.5455,-1.5522,-1.558,-1.5639,-1.5683,-1.5777,-1.6307,-1.7,-1.793,-1.9178,-2.0716,-2.0787,-2.0449,-2.0274,-2.0337,-2.0433,-2.0045,-2.1244,-2.1931,-2.2315,-2.2694,-2.3091,-2.2926,-2.3116,-2.3221,-2.3371,-2.3495,-2.362,-2.3804,-2.3795,-2.3795,-2.3804,-2.3804,-2.3804,-2.3804,-2.3804,-2.3804,-2.3804,-2.3804,-2.3804,-2.3804,-2.3804,-2.3804,-2.3804,-2.3804,-2.3804,-2.3804,-2.3804,-2.3804,-2.3804,-2.3804,-2.3804,-2.3804,-2.3804,-2.3804,-2.3804,-2.3795,-2.3795,-2.3858,-2.3878,-2.3919,-2.3919,-2.403,-2.4098,-2.4164,-2.4364,-2.4601,-2.4822,-2.4793,-2.4778,-2.4913,-2.4964,-2.4996,-2.4996,-2.4987,-2.5,-2.5,-2.5,-2.5,-2.5,-2.5,-2.5,-0.8626,-0.8712,-0.9098,-0.9354,-0.9442,-0.8996,-0.9065,-0.9398,-0.9026,-0.9039,-0.9334,-0.9535,-0.9638,-0.9706,-1.0074,-1.0467,-1.0731,-1.1029,-1.1516,-1.2113,-1.2508,-1.2768,-1.3129,-1.321,-1.3323,-1.3486,-1.3391,-1.3397,-1.3728,-1.4092,-1.4532,-1.4866,-1.5202,-1.5463,-1.5617,-1.5602,-1.5668,-1.5792,-1.5946,-1.6592,-1.7708,-1.8478,-1.9374,-2.1083,-2.0886,-2.063,-2.0426,-2.014,-2.0215,-2.0976,-2.1566,-2.1892,-2.2173,-2.2536,-2.3009,-2.3391,-2.3454,-2.3472,-2.354,-2.3655,-2.3732,-2.3795,-2.3804,-2.3804,-2.3804,-2.3804,-2.3804,-2.3804,-2.3804,-2.3804,-2.3804,-2.3825,-2.3795,-2.3795,-2.3825,-2.3825,-2.3804,-2.3804,-2.3804,-2.3804,-2.3804,-2.3804,-2.3804,-2.3804,-2.3804,-2.3804,-2.3804,-2.3804,-2.3804,-2.3795,-2.3807,-2.3869,-2.3959,-2.4019,-2.4087,-2.4201,-2.4301,-2.4275,-2.4425,-2.461,-2.4778,-2.4738,-2.4793,-2.4936,-2.5,-2.4987,-2.4987,-2.5,-2.5,-2.5,-2.5,-2.5,-2.5,-2.5,-2.5,-0.8249,-0.829,-0.8844,-0.9089,-0.8994,-0.8793,-0.8948,-0.9219,-0.8553,-0.8588,-0.9107,-0.9285,-0.9379,-0.966,-1.0069,-1.0433,-1.0636,-1.1067,-1.151,-1.2066,-1.2473,-1.2832,-1.3163,-1.321,-1.3425,-1.3581,-1.356,-1.3661,-1.402,-1.4383,-1.4783,-1.522,-1.5381,-1.5572,-1.58,-1.5699,-1.5764,-1.5945,-1.6413,-1.7192,-1.8522,-1.9232,-2.0479,-2.088,-2.0973,-2.0777,-2.0826,-2.0669,-2.0763,-2.1404,-2.1995,-2.2237,-2.246,-2.2721,-2.3164,-2.362,-2.3682,-2.3647,-2.3651,-2.3741,-2.3795,-2.3804,-2.3804,-2.3804,-2.3804,-2.3804,-2.3804,-2.3804,-2.3804,-2.3804,-2.3804,-2.3899,-2.3899,-2.3837,-2.3899,-2.391,-2.3828,-2.3816,-2.3837,-2.3837,-2.3828,-2.3828,-2.3804,-2.3804,-2.3804,-2.3804,-2.3804,-2.3825,-2.3825,-2.3837,-2.384,-2.402,-2.4126,-2.4201,-2.4248,-2.4355,-2.4459,-2.4442,-2.4519,-2.4707,-2.4807,-2.4832,-2.487,-2.4973,-2.4987,-2.5,-2.5,-2.5,-2.5,-2.5,-2.5,-2.5,-2.5,-2.5,-2.5,-0.7934,-0.7978,-0.8685,-0.8813,-0.8669,-0.8722,-0.8974,-0.9032,-0.8268,-0.8341,-0.9103,-0.9089,-0.9181,-0.9549,-1.0005,-1.04,-1.0571,-1.1222,-1.1547,-1.2029,-1.2467,-1.2902,-1.3163,-1.3232,-1.3391,-1.3642,-1.3682,-1.3921,-1.4261,-1.4613,-1.5099,-1.5499,-1.5506,-1.5883,-1.6378,-1.618,-1.6128,-1.6579,-1.7014,-1.7869,-1.9121,-2.0481,-2.1433,-2.1471,-2.1156,-2.1122,-2.1179,-2.1155,-2.1302,-2.1727,-2.2182,-2.2633,-2.2857,-2.3109,-2.338,-2.3625,-2.3721,-2.3774,-2.3786,-2.3789,-2.3792,-2.3804,-2.3804,-2.3804,-2.3804,-2.3804,-2.3804,-2.3804,-2.3804,-2.3804,-2.3825,-2.397,-2.4019,-2.397,-2.403,-2.4117,-2.402,-2.3981,-2.4001,-2.3972,-2.3912,-2.386,-2.3849,-2.3804,-2.3804,-2.3804,-2.3804,-2.3878,-2.3899,-2.391,-2.3981,-2.4192,-2.4329,-2.4391,-2.4442,-2.4469,-2.4552,-2.4584,-2.4682,-2.4841,-2.4922,-2.4964,-2.4987,-2.4987,-2.4987,-2.5,-2.5,-2.5,-2.5,-2.5,-2.5,-2.5,-2.5,-2.5,-2.5,-0.8052,-0.7981,-0.8685,-0.8988,-0.8906,-0.903,-0.9277,-0.9351,-0.8549,-0.8352,-0.887,-0.897,-0.9073,-0.9359,-1.0029,-1.0696,-1.1057,-1.1126,-1.1442,-1.2035,-1.2365,-1.272,-1.3123,-1.321,-1.3431,-1.3748,-1.3815,-1.3954,-1.444,-1.4805,-1.5241,-1.5775,-1.616,-1.6534,-1.7304,-1.6944,-1.722,-1.7821,-1.782,-1.8522,-1.9973,-2.1152,-2.1728,-2.1977,-2.1956,-2.1842,-2.1687,-2.1678,-2.1801,-2.2001,-2.2084,-2.2565,-2.3223,-2.3421,-2.3462,-2.3553,-2.3643,-2.3752,-2.3783,-2.3795,-2.3789,-2.3813,-2.3804,-2.3804,-2.3804,-2.3804,-2.3804,-2.3804,-2.3825,-2.3804,-2.3846,-2.399,-2.4058,-2.4126,-2.4192,-2.4311,-2.4293,-2.4174,-2.4183,-2.4211,-2.4174,-2.4011,-2.3921,-2.3849,-2.3804,-2.3804,-2.3816,-2.393,-2.403,-2.4079,-2.4155,-2.4381,-2.4536,-2.4601,-2.4642,-2.4667,-2.4682,-2.4738,-2.4832,-2.4946,-2.4973,-2.5,-2.5,-2.5,-2.5,-2.5,-2.5,-2.5,-2.5,-2.5,-2.5,-2.5,-2.5,-2.5,-2.5,-0.7343,-0.7568,-0.8096,-0.8259,-0.8327,-0.8629,-0.8989,-0.9118,-0.8728,-0.8688,-0.904,-0.9193,-0.945,-0.9796,-1.0423,-1.0661,-1.081,-1.0866,-1.1105,-1.1726,-1.206,-1.2461,-1.2762,-1.306,-1.3404,-1.4,-1.4453,-1.4962,-1.5203,-1.5419,-1.5828,-1.6917,-1.693,-1.7316,-1.813,-1.7794,-1.8106,-1.868,-1.9248,-1.9976,-2.0965,-2.1577,-2.1949,-2.22,-2.2211,-2.2269,-2.2391,-2.2473,-2.2586,-2.2776,-2.2854,-2.301,-2.3373,-2.3485,-2.3485,-2.3508,-2.3629,-2.3716,-2.3752,-2.3765,-2.381,-2.3804,-2.3795,-2.3804,-2.3804,-2.3804,-2.3804,-2.3804,-2.391,-2.391,-2.3919,-2.4107,-2.4145,-2.422,-2.4346,-2.4399,-2.4459,-2.4425,-2.4364,-2.4408,-2.4425,-2.4284,-2.4183,-2.4164,-2.4136,-2.4107,-2.4117,-2.4174,-2.4293,-2.4408,-2.4476,-2.4601,-2.4713,-2.4822,-2.4846,-2.487,-2.4861,-2.4875,-2.4875,-2.4973,-2.4987,-2.5,-2.5,-2.5,-2.5,-2.5,-2.5,-2.5,-2.5,-2.5,-2.5,-2.5,-2.5,-2.5,-2.5,-0.6696,-0.7093,-0.7512,-0.767,-0.7762,-0.8345,-0.8748,-0.8978,-0.8907,-0.8984,-0.9267,-0.9535,-1.0002,-1.0481,-1.0797,-1.0837,-1.0675,-1.0722,-1.0921,-1.1314,-1.1757,-1.224,-1.271,-1.3105,-1.3673,-1.4386,-1.49,-1.5627,-1.6218,-1.6486,-1.6908,-1.8129,-1.7622,-1.8067,-1.8665,-1.8709,-1.8811,-1.9589,-2.043,-2.1123,-2.1648,-2.1748,-2.2027,-2.2237,-2.2393,-2.2599,-2.3093,-2.3157,-2.331,-2.3385,-2.3405,-2.3413,-2.3494,-2.3535,-2.3571,-2.3616,-2.3728,-2.3813,-2.3841,-2.3871,-2.3873,-2.3876,-2.3887,-2.3946,-2.3917,-2.3887,-2.3896,-2.3946,-2.4048,-2.4048,-2.4058,-2.4275,-2.4373,-2.4425,-2.4476,-2.451,-2.4552,-2.4584,-2.4626,-2.4667,-2.4682,-2.4632,-2.4559,-2.455,-2.45,-2.4425,-2.4416,-2.4424,-2.4526,-2.4651,-2.4723,-2.4793,-2.4837,-2.4913,-2.495,-2.4973,-2.4987,-2.5,-2.5,-2.5,-2.5,-2.5,-2.5,-2.5,-2.5,-2.5,-2.5,-2.5,-2.5,-2.5,-2.5,-2.5,-2.5,-2.5,-2.5,-0.6537,-0.6544,-0.7343,-0.7664,-0.7717,-0.8616,-0.8974,-0.8988,-0.9087,-0.9181,-0.9354,-0.9838,-1.0499,-1.1043,-1.1032,-1.1118,-1.1395,-1.0675,-1.092,-1.1319,-1.1695,-1.2238,-1.2806,-1.3423,-1.3978,-1.4637,-1.5303,-1.627,-1.7167,-1.7448,-1.7741,-1.8093,-1.8172,-1.868,-1.9231,-1.953,-1.9772,-2.0475,-2.1214,-2.1557,-2.1756,-2.1848,-2.2047,-2.2527,-2.2695,-2.2918,-2.3439,-2.3448,-2.3448,-2.3494,-2.3494,-2.3494,-2.3508,-2.3598,-2.3676,-2.375,-2.3876,-2.3958,-2.4016,-2.4034,-2.4094,-2.4151,-2.4151,-2.4113,-2.4094,-2.4142,-2.417,-2.4133,-2.421,-2.4238,-2.4302,-2.4461,-2.4528,-2.4578,-2.461,-2.4713,-2.4768,-2.4837,-2.4889,-2.4936,-2.4913,-2.4837,-2.4813,-2.4774,-2.4704,-2.4617,-2.4584,-2.4617,-2.4689,-2.4798,-2.4875,-2.495,-2.495,-2.4987,-2.4977,-2.5,-2.5,-2.5,-2.5,-2.5,-2.5,-2.5,-2.5,-2.5,-2.5,-2.5,-2.5,-2.5,-2.5,-2.5,-2.5,-2.5,-2.5,-2.5,-2.5,-0.5824,-0.6423,-0.6659,-0.7,-0.7391,-0.8083,-0.8472,-0.8708,-0.9188,-0.9504,-0.9568,-1.0246,-1.0704,-1.103,-1.1285,-1.1216,-1.1141,-1.0884,-1.1144,-1.1534,-1.1912,-1.2531,-1.3192,-1.3716,-1.4193,-1.5197,-1.5947,-1.6709,-1.7726,-1.8192,-1.8533,-1.8716,-1.8702,-1.9334,-1.9871,-2.0397,-2.0872,-2.1117,-2.1497,-2.1678,-2.1738,-2.1776,-2.2036,-2.2634,-2.2703,-2.2994,-2.3415,-2.3485,-2.3494,-2.3494,-2.3494,-2.3494,-2.353,-2.3633,-2.3744,-2.3846,-2.4008,-2.4115,-2.4153,-2.4152,-2.4142,-2.419,-2.4199,-2.4209,-2.4228,-2.4209,-2.419,-2.4219,-2.4312,-2.4348,-2.4284,-2.4401,-2.4519,-2.461,-2.4723,-2.4846,-2.4927,-2.4964,-2.4987,-2.4973,-2.4987,-2.495,-2.4964,-2.4964,-2.4889,-2.4813,-2.4798,-2.4793,-2.4851,-2.4903,-2.4964,-2.5,-2.5,-2.5,-2.5,-2.5,-2.5,-2.5,-2.5,-2.5,-2.5,-2.5,-2.5,-2.5,-2.5,-2.5,-2.5,-2.5,-2.5,-2.5,-2.5,-2.5,-2.5,-2.5,-2.5,-0.5276,-0.5968,-0.6094,-0.655,-0.7154,-0.7692,-0.808,-0.8504,-0.9099,-0.9548,-0.9768,-1.0518,-1.0932,-1.1067,-1.1338,-1.1426,-1.1197,-1.104,-1.1235,-1.1617,-1.2185,-1.2833,-1.3475,-1.4129,-1.4794,-1.585,-1.6608,-1.7365,-1.8345,-1.8845,-1.9081,-1.9148,-1.9206,-1.9573,-2.0185,-2.1031,-2.1526,-2.1589,-2.162,-2.1642,-2.1686,-2.184,-2.2093,-2.266,-2.2782,-2.3044,-2.3383,-2.3494,-2.3494,-2.3494,-2.3494,-2.3494,-2.3567,-2.3651,-2.3786,-2.3919,-2.4087,-2.4275,-2.4275,-2.4266,-2.4238,-2.4294,-2.4303,-2.4303,-2.4284,-2.4284,-2.4321,-2.4312,-2.4393,-2.4401,-2.4303,-2.4479,-2.4584,-2.4698,-2.4667,-2.4753,-2.4889,-2.4954,-2.4987,-2.4996,-2.4987,-2.5,-2.5,-2.5,-2.4964,-2.4903,-2.4903,-2.4899,-2.4927,-2.4964,-2.4977,-2.5,-2.5,-2.5,-2.5,-2.5,-2.5,-2.5,-2.5,-2.5,-2.5,-2.5,-2.5,-2.5,-2.5,-2.5,-2.5,-2.5,-2.5,-2.5,-2.5,-2.5,-2.5,-2.5,-2.5,-0.5054,-0.5042,-0.5775,-0.6493,-0.7125,-0.7554,-0.7972,-0.8368,-0.8837,-0.9291,-0.9754,-1.0671,-1.1178,-1.1226,-1.1489,-1.1636,-1.1523,-1.1234,-1.1343,-1.1911,-1.2538,-1.3135,-1.3841,-1.4605,-1.5377,-1.6369,-1.7109,-1.7875,-1.8841,-1.8959,-1.9213,-1.9428,-1.9384,-1.9479,-1.9894,-2.0632,-2.1214,-2.155,-2.1634,-2.1656,-2.1789,-2.199,-2.232,-2.2721,-2.2918,-2.3184,-2.3407,-2.3494,-2.3494,-2.3494,-2.353,-2.3544,-2.3567,-2.3831,-2.3978,-2.4008,-2.4294,-2.4465,-2.4482,-2.4482,-2.4456,-2.4438,-2.443,-2.443,-2.4465,-2.4492,-2.4457,-2.443,-2.4473,-2.4515,-2.4566,-2.4622,-2.4676,-2.4713,-2.4682,-2.4723,-2.4851,-2.4903,-2.4927,-2.4987,-2.4987,-2.5,-2.5,-2.5,-2.5,-2.4987,-2.4987,-2.5,-2.5,-2.5,-2.5,-2.5,-2.5,-2.5,-2.5,-2.5,-2.5,-2.5,-2.5,-2.5,-2.5014,-2.5027,-2.5027,-2.5014,-2.5004,-2.5021,-2.5004,-2.5,-2.5,-2.5,-2.5,-2.5,-2.5,-2.5,-2.5,-0.4967,-0.5653,-0.5731,-0.6343,-0.7216,-0.739,-0.7669,-0.8019,-0.8649,-0.9221,-0.9762,-1.0744,-1.1204,-1.1322,-1.17,-1.1927,-1.1944,-1.1948,-1.2078,-1.2893,-1.3262,-1.4069,-1.4784,-1.5325,-1.6024,-1.688,-1.7572,-1.8087,-1.8853,-1.8957,-1.9108,-1.9243,-1.9703,-1.9902,-2.0235,-2.0812,-2.1371,-2.1402,-2.1487,-2.1631,-2.1882,-2.2096,-2.2393,-2.291,-2.3061,-2.325,-2.3462,-2.3494,-2.3485,-2.3522,-2.358,-2.362,-2.3694,-2.3958,-2.4125,-2.4163,-2.4393,-2.4509,-2.4509,-2.45,-2.4509,-2.4517,-2.4509,-2.45,-2.4509,-2.4509,-2.4509,-2.4517,-2.4541,-2.4549,-2.4541,-2.4541,-2.4599,-2.4676,-2.4692,-2.4778,-2.4861,-2.4851,-2.4851,-2.495,-2.5,-2.5,-2.5,-2.5,-2.5,-2.5,-2.5,-2.5,-2.5,-2.5,-2.5,-2.5,-2.5,-2.5,-2.5,-2.5,-2.5,-2.5,-2.5004,-2.5018,-2.5031,-2.507,-2.5101,-2.5106,-2.5079,-2.5051,-2.5047,-2.5031,-2.5,-2.5,-2.5,-2.5,-2.5,-2.5,-2.5,-0.4642,-0.5599,-0.5646,-0.6146,-0.6891,-0.7183,-0.7533,-0.8022,-0.8797,-0.9374,-0.9769,-1.0514,-1.1023,-1.1301,-1.1673,-1.2088,-1.2197,-1.2452,-1.2588,-1.3503,-1.3946,-1.4696,-1.5432,-1.5984,-1.6549,-1.7286,-1.7781,-1.8252,-1.8784,-1.895,-1.9131,-1.9486,-2.0007,-2.0319,-2.0622,-2.1007,-2.1394,-2.1456,-2.1623,-2.1815,-2.2096,-2.2347,-2.2642,-2.2944,-2.3119,-2.3274,-2.3401,-2.3439,-2.3476,-2.3571,-2.3655,-2.3744,-2.3869,-2.4019,-2.4192,-2.4257,-2.4437,-2.4582,-2.4654,-2.466,-2.4667,-2.4657,-2.4566,-2.45,-2.4534,-2.4575,-2.4592,-2.4615,-2.4613,-2.4635,-2.4635,-2.4629,-2.4606,-2.4698,-2.4701,-2.4763,-2.4822,-2.4813,-2.4837,-2.4927,-2.5,-2.5,-2.5,-2.5,-2.5,-2.5,-2.5,-2.5,-2.5,-2.5,-2.5,-2.5,-2.5,-2.5,-2.5,-2.5,-2.5,-2.5,-2.5018,-2.5047,-2.5076,-2.5125,-2.5155,-2.518,-2.5157,-2.512,-2.5088,-2.506,-2.5031,-2.5014,-2.5,-2.5,-2.5,-2.4991,-2.4991,-0.4121,-0.4891,-0.5548,-0.5982,-0.6312,-0.6948,-0.761,-0.8424,-0.9204,-0.9566,-0.9673,-1.0208,-1.0763,-1.1199,-1.1423,-1.1827,-1.2314,-1.2812,-1.3101,-1.3518,-1.4351,-1.5206,-1.5796,-1.6318,-1.688,-1.7456,-1.7988,-1.8383,-1.8777,-1.9011,-1.9273,-1.9711,-2.0334,-2.0638,-2.0877,-2.1175,-2.1464,-2.1609,-2.1823,-2.2039,-2.2311,-2.2686,-2.285,-2.3045,-2.3135,-2.3265,-2.336,-2.3365,-2.3508,-2.3624,-2.3744,-2.3867,-2.3998,-2.4135,-2.4192,-2.4302,-2.4547,-2.4713,-2.4808,-2.4799,-2.4847,-2.479,-2.4657,-2.4566,-2.4582,-2.4692,-2.4713,-2.4764,-2.479,-2.4837,-2.4869,-2.478,-2.471,-2.4704,-2.4645,-2.4707,-2.4798,-2.4827,-2.4861,-2.4922,-2.4973,-2.5,-2.5,-2.5,-2.5004,-2.5,-2.5,-2.5018,-2.5018,-2.4991,-2.5,-2.5,-2.5,-2.5,-2.5,-2.5,-2.5018,-2.5031,-2.506,-2.5088,-2.5127,-2.5177,-2.5233,-2.5254,-2.5214,-2.518,-2.5132,-2.5101,-2.5057,-2.5031,-2.5051,-2.5027,-2.5027,-2.4999,-2.4999,-0.3901,-0.4471,-0.5387,-0.5989,-0.6418,-0.7182,-0.7889,-0.8427,-0.8983,-0.9295,-0.9618,-1.0164,-1.066,-1.1191,-1.1697,-1.2141,-1.2661,-1.3199,-1.3652,-1.4139,-1.4687,-1.5299,-1.5944,-1.6552,-1.7137,-1.7619,-1.8101,-1.8553,-1.8957,-1.9176,-1.942,-1.9782,-2.0436,-2.0795,-2.1095,-2.1394,-2.1587,-2.1768,-2.1969,-2.2237,-2.2465,-2.2764,-2.2919,-2.3045,-2.3086,-2.3232,-2.3357,-2.3399,-2.3562,-2.3795,-2.3989,-2.4115,-2.4135,-2.4303,-2.4402,-2.4429,-2.4599,-2.4732,-2.4764,-2.4856,-2.4929,-2.4932,-2.4823,-2.4813,-2.4813,-2.4818,-2.487,-2.4902,-2.4932,-2.4971,-2.4962,-2.491,-2.4865,-2.4823,-2.4775,-2.4794,-2.4865,-2.4889,-2.4912,-2.4972,-2.5034,-2.5034,-2.5021,-2.5021,-2.5034,-2.5004,-2.5004,-2.5034,-2.5034,-2.5021,-2.5034,-2.5034,-2.5034,-2.5047,-2.5018,-2.5018,-2.5034,-2.5051,-2.5103,-2.5164,-2.5213,-2.5264,-2.5312,-2.5312,-2.5293,-2.5244,-2.5171,-2.5143,-2.5103,-2.5141,-2.5155,-2.5101,-2.5057,-2.5051,-2.5044,-0.3607,-0.4258,-0.5313,-0.6152,-0.6748,-0.7396,-0.7993,-0.8427,-0.885,-0.9204,-0.9621,-0.9922,-1.0379,-1.0909,-1.1447,-1.1994,-1.255,-1.3241,-1.38,-1.4261,-1.4823,-1.5668,-1.6293,-1.6729,-1.7256,-1.7733,-1.8147,-1.8475,-1.8957,-1.9442,-1.9718,-1.9952,-2.0538,-2.0901,-2.1198,-2.1487,-2.17,-2.1899,-2.2141,-2.2411,-2.2616,-2.2782,-2.2936,-2.2995,-2.3028,-2.3182,-2.3399,-2.3455,-2.3631,-2.3948,-2.4182,-2.4247,-2.4284,-2.4429,-2.4541,-2.4592,-2.4723,-2.4837,-2.4902,-2.5009,-2.5043,-2.5056,-2.5046,-2.5056,-2.5031,-2.5022,-2.5006,-2.4997,-2.5043,-2.508,-2.5046,-2.5012,-2.5,-2.4978,-2.4958,-2.4915,-2.4938,-2.4951,-2.5009,-2.5057,-2.5082,-2.5082,-2.5082,-2.5069,-2.5069,-2.5094,-2.5106,-2.5118,-2.5106,-2.5079,-2.5094,-2.5096,-2.5106,-2.5094,-2.5076,-2.5063,-2.5094,-2.5143,-2.519,-2.5244,-2.5293,-2.5349,-2.5405,-2.5405,-2.5377,-2.5322,-2.5244,-2.5213,-2.5189,-2.5222,-2.5233,-2.5177,-2.5151,-2.516,-2.5153,-0.3155,-0.3951,-0.5234,-0.6225,-0.7055,-0.7441,-0.794,-0.8418,-0.8741,-0.9197,-0.9555,-0.9618,-0.9932,-1.0549,-1.1103,-1.1665,-1.2363,-1.318,-1.3842,-1.4305,-1.4869,-1.5629,-1.6337,-1.6808,-1.7256,-1.7882,-1.8286,-1.8475,-1.8891,-1.9413,-1.996,-2.0224,-2.0671,-2.1039,-2.1371,-2.1565,-2.1806,-2.2089,-2.2307,-2.2571,-2.279,-2.2952,-2.3028,-2.2952,-2.296,-2.3058,-2.3286,-2.345,-2.3604,-2.4001,-2.4257,-2.4348,-2.4429,-2.449,-2.4575,-2.4654,-2.4749,-2.4874,-2.4994,-2.5103,-2.5202,-2.5243,-2.5293,-2.5253,-2.5191,-2.5149,-2.5126,-2.5136,-2.5169,-2.5191,-2.5171,-2.5149,-2.5128,-2.5105,-2.507,-2.5065,-2.5063,-2.5075,-2.5089,-2.5134,-2.5143,-2.5145,-2.5145,-2.5143,-2.5132,-2.5179,-2.519,-2.519,-2.5201,-2.5155,-2.5155,-2.5169,-2.5157,-2.5145,-2.5166,-2.5155,-2.518,-2.5214,-2.5264,-2.5312,-2.5358,-2.543,-2.5503,-2.5476,-2.5422,-2.5386,-2.5322,-2.5303,-2.5293,-2.5284,-2.5284,-2.5244,-2.5253,-2.5282,-2.5251,-0.2582,-0.2809,-0.4636,-0.5975,-0.679,-0.7116,-0.7676,-0.8368,-0.8485,-0.8947,-0.9506,-0.9618,-0.988,-1.0348,-1.0952,-1.151,-1.2206,-1.3127,-1.3789,-1.4351,-1.4869,-1.5591,-1.6232,-1.6695,-1.7229,-1.7666,-1.8075,-1.8514,-1.8891,-1.9486,-2.0038,-2.0204,-2.0712,-2.1214,-2.1534,-2.1694,-2.1865,-2.2248,-2.2388,-2.257,-2.2756,-2.2808,-2.2833,-2.2944,-2.3075,-2.3294,-2.3526,-2.3792,-2.4001,-2.4294,-2.4393,-2.4456,-2.4509,-2.4509,-2.4517,-2.4566,-2.4673,-2.4809,-2.4958,-2.5103,-2.5192,-2.5274,-2.5303,-2.5303,-2.5283,-2.5254,-2.5244,-2.5263,-2.5273,-2.5293,-2.5293,-2.5264,-2.5243,-2.5213,-2.5191,-2.519,-2.5198,-2.519,-2.5192,-2.5202,-2.5222,-2.5222,-2.5222,-2.5222,-2.5212,-2.5212,-2.5201,-2.5222,-2.5264,-2.5264,-2.5243,-2.5244,-2.5192,-2.5202,-2.5222,-2.5253,-2.5274,-2.5284,-2.5322,-2.5367,-2.543,-2.5466,-2.5511,-2.5501,-2.5456,-2.543,-2.5422,-2.545,-2.5433,-2.5387,-2.5378,-2.5369,-2.5378,-2.5416,-2.537,-0.2184,-0.2467,-0.4418,-0.5867,-0.671,-0.7038,-0.7461,-0.8043,-0.829,-0.8764,-0.9309,-0.9514,-0.9773,-1.019,-1.085,-1.1547,-1.2197,-1.3127,-1.3983,-1.4593,-1.5006,-1.5718,-1.6232,-1.6542,-1.7241,-1.7686,-1.8305,-1.8767,-1.8936,-1.9406,-1.9874,-2.0197,-2.0844,-2.1317,-2.1625,-2.1716,-2.1924,-2.2358,-2.2386,-2.2506,-2.2685,-2.2738,-2.2842,-2.3028,-2.3173,-2.3418,-2.3705,-2.397,-2.4163,-2.4339,-2.4438,-2.4438,-2.4465,-2.4457,-2.4474,-2.4515,-2.4603,-2.4716,-2.4879,-2.5022,-2.515,-2.5244,-2.5303,-2.5303,-2.5303,-2.5274,-2.5274,-2.5283,-2.5283,-2.5303,-2.5303,-2.5283,-2.5303,-2.5293,-2.5313,-2.5322,-2.5351,-2.536,-2.536,-2.5369,-2.5369,-2.5369,-2.5378,-2.5378,-2.5369,-2.5379,-2.5351,-2.5322,-2.5359,-2.5367,-2.534,-2.5322,-2.5293,-2.5313,-2.5369,-2.5378,-2.5378,-2.5377,-2.5386,-2.5422,-2.5476,-2.5493,-2.5511,-2.5501,-2.5501,-2.5493,-2.5503,-2.5511,-2.5511,-2.5459,-2.5477,-2.5495,-2.5511,-2.5511,-2.5451,-0.1953,-0.261,-0.4447,-0.5819,-0.6751,-0.6987,-0.732,-0.7774,-0.8209,-0.8633,-0.9054,-0.9462,-0.9566,-1.0028,-1.0694,-1.1429,-1.2272,-1.317,-1.4129,-1.4834,-1.5068,-1.5648,-1.5995,-1.6271,-1.7023,-1.7719,-1.831,-1.866,-1.8921,-1.9427,-1.9894,-2.025,-2.0738,-2.1183,-2.1556,-2.1768,-2.1974,-2.2285,-2.2432,-2.256,-2.2659,-2.2756,-2.2936,-2.3077,-2.3214,-2.3486,-2.3804,-2.4027,-2.42,-2.4284,-2.442,-2.4446,-2.4473,-2.4473,-2.4523,-2.4564,-2.4642,-2.4775,-2.4915,-2.5043,-2.516,-2.5244,-2.5293,-2.5303,-2.5303,-2.5303,-2.5303,-2.5303,-2.5303,-2.5303,-2.5303,-2.5303,-2.5332,-2.5361,-2.5387,-2.5422,-2.5458,-2.5476,-2.5485,-2.5485,-2.5485,-2.5485,-2.5493,-2.5484,-2.5493,-2.5511,-2.5511,-2.5511,-2.5503,-2.5458,-2.5432,-2.5423,-2.5415,-2.5459,-2.5485,-2.5468,-2.545,-2.545,-2.5458,-2.5485,-2.5511,-2.5511,-2.5511,-2.5511,-2.5511,-2.5511,-2.5511,-2.5511,-2.5511,-2.5511,-2.5511,-2.5511,-2.5511,-2.5511,-2.5519,-0.2158,-0.3299,-0.4562,-0.5474,-0.6128,-0.6603,-0.7111,-0.7706,-0.8209,-0.8636,-0.8998,-0.9409,-0.9825,-1.0297,-1.0897,-1.1683,-1.2657,-1.3409,-1.4176,-1.4971,-1.5078,-1.5468,-1.5884,-1.6217,-1.6834,-1.747,-1.8085,-1.8362,-1.9015,-1.9594,-2.0054,-2.0522,-2.119,-2.1556,-2.1639,-2.1878,-2.2118,-2.2369,-2.2506,-2.2632,-2.2936,-2.3052,-2.314,-2.3344,-2.3615,-2.3858,-2.4096,-2.421,-2.4257,-2.4321,-2.4367,-2.4419,-2.4489,-2.4523,-2.4571,-2.4673,-2.4755,-2.4865,-2.499,-2.5068,-2.5161,-2.5274,-2.5303,-2.5303,-2.5303,-2.5303,-2.5303,-2.5303,-2.5303,-2.5303,-2.5303,-2.5303,-2.5322,-2.5351,-2.5378,-2.5414,-2.5458,-2.5476,-2.5484,-2.5493,-2.5503,-2.5503,-2.5503,-2.5511,-2.5511,-2.5511,-2.5511,-2.5511,-2.5511,-2.5511,-2.5511,-2.5511,-2.5511,-2.5511,-2.5503,-2.5503,-2.5485,-2.5503,-2.5511,-2.5511,-2.5511,-2.5511,-2.5511,-2.5511,-2.5511,-2.5511,-2.5511,-2.5511,-2.5511,-2.5511,-2.5511,-2.5511,-2.5511,-2.5511,-2.5509]}]]